GFSWCAN_sfc_temp_000.txt.gz
Temp
51 50 50 50 51 51 51 51 51 51 51 51 51 51 51 51 52 56 60 62 59 45 54 55 58 56 53 54 46 51 49 45 40 35 35 36 34 42 38 46 41 39 34 32 34 32 31 57 50 41 51 55 57 56
50 50 49 49 50 50 50 51 51 50 50 50 51 51 51 51 51 52 53 59 58 49 50 60 63 65 62 62 57 52 52 52 49 42 38 38 33 34 35 33 47 34 41 42 44 44 58 59 54 57 59 55 55 54
49 49 49 49 49 49 50 50 50 50 50 50 50 51 51 51 51 53 53 54 52 38 47 47 52 61 63 62 65 48 42 54 47 51 43 36 34 37 34 37 40 45 51 40 41 49 54 54 58 59 59 56 57 55
49 49 49 49 49 49 49 49 49 50 50 50 50 50 50 51 51 52 50 55 53 43 34 44 61 59 66 63 62 60 59 59 56 52 36 35 35 42 37 41 39 45 43 39 41 47 53 55 57 58 57 58 56 53
49 49 49 49 49 48 48 49 49 49 49 50 50 50 50 51 51 52 52 53 55 49 37 41 52 59 63 61 58 59 56 54 48 36 34 36 40 39 41 42 38 43 41 38 39 53 52 52 58 59 57 54 53 49
48 49 49 48 48 48 48 48 48 48 48 49 49 50 50 50 50 48 43 48 52 50 38 34 45 47 56 58 57 56 56 51 47 41 36 40 43 39 33 36 48 52 55 56 50 56 56 57 59 60 54 53 54 54
48 48 48 48 48 47 47 47 47 47 48 48 49 49 49 49 49 45 42 47 49 51 35 33 35 42 46 50 54 54 54 48 45 40 36 41 42 41 34 35 49 54 56 56 58 56 51 55 51 56 55 56 55 55
48 48 48 47 47 47 46 46 47 47 47 47 47 48 48 48 48 44 47 49 49 44 37 32 35 39 47 40 39 44 44 43 42 43 43 42 46 38 35 48 54 57 57 57 57 57 54 55 54 54 55 53 50 50
47 47 46 46 46 46 46 47 47 47 47 47 47 48 47 45 41 43 47 48 49 43 33 33 33 34 46 42 42 40 41 35 45 36 41 46 40 35 46 51 53 54 54 54 55 53 53 51 50 50 49 48 47 46
46 46 46 46 46 46 46 46 47 47 47 47 47 42 37 41 46 47 45 40 39 36 36 33 39 36 46 38 37 37 36 34 33 39 46 34 39 50 54 55 56 56 55 51 45 45 46 45 46 46 45 44 39 36
45 45 45 46 46 46 46 47 47 47 47 47 39 38 45 46 44 40 35 33 36 33 36 38 40 38 44 35 35 38 35 34 31 39 35 36 37 47 53 51 51 50 50 49 49 49 49 47 45 43 39 37 35 36
46 46 46 46 46 46 46 46 46 48 47 45 44 45 44 40 37 33 32 34 33 34 39 36 37 40 39 41 37 36 33 34 30 37 30 29 43 46 46 47 47 48 48 48 49 47 46 44 44 40 37 35 35 34
45 46 46 46 46 46 46 46 46 46 47 46 40 35 36 34 29 28 27 32 33 36 34 34 34 35 35 34 32 32 31 31 33 29 31 39 43 45 45 46 47 49 44 38 45 46 44 43 41 35 35 34 33 33
45 45 45 45 45 45 46 46 45 46 46 35 32 28 30 29 31 33 34 33 34 34 34 35 35 35 36 33 34 30 35 32 28 26 31 40 43 44 46 46 44 45 37 35 38 40 35 33 33 32 32 32 32 32
45 45 45 45 45 45 45 45 45 47 40 33 32 27 30 35 34 34 32 33 35 36 35 34 34 33 32 30 32 31 28 26 29 31 36 41 42 42 42 42 43 36 34 35 39 34 33 32 32 33 32 32 32 31
45 44 44 45 45 45 45 45 45 44 35 32 32 30 32 30 31 30 30 31 38 34 34 34 31 28 29 31 28 27 27 28 34 36 42 44 43 42 42 39 37 38 38 39 39 36 34 32 32 35 32 32 31 30
44 43 44 44 45 44 45 44 41 33 32 30 29 34 34 30 29 31 32 35 39 33 30 30 25 27 34 27 26 33 31 35 39 41 44 44 41 41 41 40 35 35 37 38 38 34 33 34 32 32 33 32 30 29
42 45 44 45 45 43 41 40 34 31 28 32 28 32 32 33 32 32 33 35 32 32 35 31 36 27 26 26 31 36 39 41 42 42 44 44 44 42 42 41 42 41 40 36 33 32 33 32 32 36 34 31 30 31
44 46 44 44 45 39 33 33 36 29 30 33 33 34 34 34 35 37 37 36 38 41 34 31 28 28 31 36 34 35 37 38 39 43 44 43 41 39 38 39 37 36 35 34 32 32 34 35 37 38 37 33 35 35
43 43 44 43 45 36 30 31 35 31 29 33 35 33 34 34 34 34 33 34 34 32 29 28 31 34 36 39 42 41 42 43 41 37 38 42 44 42 40 37 35 35 34 33 32 32 33 33 35 34 35 35 34 33
42 44 43 44 39 38 34 32 31 33 34 32 36 33 33 32 30 31 32 37 32 31 31 36 35 38 41 42 44 44 41 41 40 39 38 38 41 36 34 35 34 34 33 33 33 34 32 34 34 32 30 31 31 31
39 42 35 36 33 32 32 36 35 35 30 32 29 33 31 30 30 31 34 30 32 36 38 38 40 41 41 40 42 43 42 41 41 40 38 38 34 33 34 34 33 32 33 34 35 33 33 33 32 31 31 31 28 31
40 36 32 32 31 30 29 34 29 30 27 29 29 27 27 27 31 33 29 34 36 41 42 42 42 42 40 41 40 41 41 38 38 38 37 36 35 34 34 35 34 33 33 34 34 33 31 31 30 31 30 30 30 30
39 33 31 29 30 27 29 27 31 29 29 25 24 24 27 28 30 28 27 32 37 41 40 40 40 39 39 38 37 38 39 39 37 35 35 33 34 35 36 37 36 35 36 35 32 32 30 31 31 30 30 30 30 30
29 28 29 26 31 25 24 25 26 23 22 25 24 25 28 28 25 26 27 32 35 35 37 39 36 35 32 34 36 36 37 36 34 32 35 34 35 33 33 33 34 34 33 32 31 31 31 31 31 31 31 31 31 30
24 29 27 28 27 25 25 22 21 23 26 24 24 30 26 25 23 22 31 34 34 37 33 33 34 33 33 34 33 34 34 32 33 34 37 36 35 33 33 32 31 31 33 33 32 31 31 32 31 31 31 31 30 29
23 25 30 35 32 29 25 23 27 27 22 22 26 22 23 20 22 30 37 37 37 37 37 37 36 35 34 34 33 32 32 31 32 35 35 36 36 37 36 34 33 36 34 32 32 32 32 32 31 31 31 31 31 29
30 32 24 28 25 29 26 24 23 23 27 31 27 21 21 23 27 36 38 39 36 37 35 35 35 36 35 34 32 30 31 30 30 31 32 33 33 32 31 31 31 29 32 31 32 32 32 32 31 30 30 30 29 28
29 31 30 22 24 25 26 27 29 31 34 28 27 27 29 35 35 35 34 32 31 31 30 31 33 34 32 32 31 31 31 30 29 28 30 31 30 31 32 31 30 30 31 31 30 31 31 30 29 28 27 27 27 25
29 30 28 27 23 25 30 31 31 32 33 33 34 35 35 33 31 29 29 29 28 29 29 29 29 29 30 31 31 31 31 31 31 30 31 31 32 32 31 30 30 30 30 29 28 27 27 27 25 26 25 25 25 24
30 27 26 26 26 31 32 28 27 28 29 29 30 29 31 32 27 24 25 24 24 24 26 28 29 31 29 30 30 30 30 31 30 30 30 31 32 31 31 31 31 31 30 29 29 28 27 26 26 24 23 22 20 21
25 25 25 23 25 26 24 25 27 25 27 25 26 28 26 27 27 24 22 22 25 25 24 24 27 29 29 30 30 30 30 30 30 28 28 30 31 31 31 31 31 31 30 29 29 28 27 26 25 24 23 22 21 20
26 26 26 25 25 24 26 25 25 25 23 24 25 25 26 27 26 20 23 22 21 20 20 22 25 28 27 27 27 27 27 26 27 27 27 28 29 30 31 31 30 30 29 28 27 27 25 24 24 23 22 20 18 16

GFSWCAN_sfc_temp_003.txt.gz
Temp
51 50 50 50 50 51 51 51 51 52 52 51 51 51 51 51 52 58 66 68 64 54 61 63 65 61 61 58 50 56 54 51 45 37 35 37 35 45 44 50 44 41 35 33 34 33 32 62 59 42 50 57 58 56
50 49 49 49 49 50 50 50 51 51 51 51 51 51 51 51 51 53 57 66 65 55 60 65 68 69 68 67 62 59 55 56 53 45 40 39 35 35 35 33 53 39 47 44 46 46 60 64 59 62 63 59 55 53
50 49 49 49 49 49 49 50 50 50 50 50 50 51 51 51 52 53 58 59 56 41 48 51 57 65 70 68 70 53 53 60 58 61 50 39 35 43 34 37 38 44 53 45 46 52 57 57 60 62 59 53 59 58
50 50 50 49 49 48 49 49 49 49 50 50 50 50 51 51 51 52 53 59 56 44 34 44 63 60 69 69 66 65 62 62 60 56 37 35 34 44 38 42 41 45 46 43 45 52 54 54 56 60 57 58 59 58
50 49 49 49 49 49 48 48 48 49 49 50 50 50 50 51 51 52 53 55 57 51 37 40 52 63 67 67 63 63 60 58 53 40 35 36 43 41 42 42 39 46 44 39 37 50 51 54 59 60 57 55 57 56
49 49 49 48 49 48 48 48 48 48 48 49 49 50 50 50 50 49 44 49 54 53 40 35 48 52 61 61 62 59 59 57 52 45 37 42 50 42 35 36 45 53 55 55 48 55 55 58 60 60 55 56 58 56
49 49 49 48 48 48 47 47 47 48 48 48 49 49 49 49 51 46 43 49 51 53 35 35 36 44 47 52 58 58 58 53 49 44 39 42 43 43 35 35 51 54 57 58 60 58 56 57 55 59 58 59 57 57
48 49 48 48 47 47 47 47 47 48 48 48 48 48 48 48 48 44 47 49 50 43 38 33 35 38 50 42 41 53 46 43 42 42 42 41 47 39 35 49 55 59 60 60 60 60 58 59 59 58 58 56 53 51
48 47 47 47 47 47 47 47 47 47 48 48 48 49 48 46 41 43 47 48 48 43 33 32 34 34 51 45 42 43 43 34 45 37 42 47 43 37 47 53 56 58 57 54 57 57 57 55 54 55 55 53 48 44
47 46 46 46 46 46 47 47 47 47 48 48 50 45 38 43 47 47 45 40 37 36 35 33 40 36 49 39 36 37 38 34 32 40 50 39 41 52 56 58 59 55 56 55 49 48 49 49 51 52 51 49 44 37
47 46 46 46 46 46 47 47 47 48 47 52 42 39 45 47 48 42 36 34 36 33 35 37 41 38 44 36 35 38 34 36 32 41 39 37 39 50 56 55 56 55 54 54 54 54 54 53 51 49 47 44 39 37
46 46 46 46 46 46 47 47 47 52 54 49 48 49 47 41 38 34 32 35 33 35 43 38 40 44 42 44 38 37 33 35 30 41 32 32 45 51 52 51 53 54 54 53 53 52 52 52 50 46 43 39 38 37
46 46 46 46 46 46 47 46 47 47 48 52 43 37 37 35 30 29 28 32 34 38 35 35 34 38 37 36 33 33 31 32 37 31 33 40 47 51 52 53 53 55 51 43 49 50 49 48 46 38 36 37 33 35
46 46 46 46 46 46 46 46 46 48 52 38 34 29 31 30 34 38 37 34 35 34 35 38 36 37 36 34 34 29 37 36 29 30 34 46 48 50 50 50 49 48 40 39 44 45 39 35 35 35 33 34 33 34
45 45 46 46 46 46 46 46 46 53 42 34 32 29 31 39 38 35 35 37 37 38 38 37 36 37 33 31 33 33 29 27 33 34 42 47 47 47 46 46 47 41 36 37 44 39 35 34 34 35 34 34 34 32
45 45 45 45 45 46 45 46 49 49 37 35 33 31 35 32 32 31 32 33 40 38 37 37 32 29 30 33 30 28 30 30 36 41 46 49 47 47 46 42 42 43 42 43 44 42 39 33 33 34 36 33 32 32
44 45 44 45 45 45 46 47 44 33 34 31 32 36 36 32 33 34 35 38 44 35 31 34 27 28 39 31 29 36 32 36 41 43 46 47 46 46 46 44 40 40 43 43 42 42 40 37 33 32 32 36 34 33
45 47 45 45 46 45 46 46 36 34 29 35 31 34 35 36 35 34 35 40 35 36 37 32 39 31 29 28 31 37 41 44 45 44 46 47 47 46 46 44 44 44 43 41 36 37 35 33 32 35 37 38 34 33
48 48 44 45 45 44 37 35 40 31 33 36 35 36 38 37 39 40 39 38 41 43 38 35 29 29 32 38 36 37 38 40 41 44 46 46 46 44 43 44 42 42 41 37 35 35 35 33 37 41 41 38 37 38
44 44 44 44 46 40 32 33 41 35 32 36 38 36 37 38 38 34 33 34 36 33 30 29 31 36 38 42 45 43 44 45 43 39 40 44 46 45 45 44 45 42 36 35 34 33 34 35 38 38 39 38 36 35
43 45 44 45 42 42 37 34 32 34 38 36 40 38 36 38 33 32 33 38 32 32 32 37 36 40 44 45 46 46 44 44 42 40 39 39 43 44 43 44 42 35 33 34 33 34 33 35 38 38 33 33 33 33
42 44 38 38 34 34 33 40 37 39 36 35 33 35 33 31 32 33 37 32 33 38 41 40 43 44 44 43 45 46 45 45 44 43 40 41 40 40 41 39 35 33 33 33 35 34 35 37 36 33 33 32 32 33
39 38 35 34 31 31 30 40 31 34 28 30 34 30 31 31 35 40 31 36 38 44 45 45 45 45 44 45 43 44 43 42 41 41 40 40 41 38 37 35 34 33 33 35 38 37 35 35 33 32 33 32 32 31
39 33 32 31 30 28 31 29 33 32 32 29 29 27 31 33 36 30 28 33 39 44 44 43 44 43 43 42 41 43 44 43 41 40 39 36 35 35 36 34 35 37 38 40 37 35 33 32 32 32 31 31 31 31
29 28 30 27 32 28 26 27 28 29 26 28 27 28 31 33 28 28 29 35 37 38 40 42 42 42 39 40 41 42 41 40 35 35 37 38 35 33 34 36 38 39 38 33 32 32 32 32 31 31 31 31 31 31
25 29 27 30 30 28 29 26 28 28 29 28 29 33 31 29 26 25 33 36 36 40 35 34 36 38 40 42 40 41 39 39 34 31 34 36 35 33 33 33 33 34 36 34 33 33 32 32 32 31 31 31 32 31
25 28 33 40 37 34 31 31 33 31 28 27 30 29 27 22 24 33 41 44 42 43 44 43 42 41 40 40 41 40 37 35 33 32 35 38 39 40 37 34 34 38 37 35 34 33 32 32 32 32 32 32 32 32
31 34 28 30 30 34 28 29 29 27 29 35 33 27 24 26 30 40 42 44 41 43 42 42 41 40 38 38 37 35 34 34 32 32 33 34 36 35 34 35 34 31 35 33 33 33 33 33 32 32 32 31 32 31
30 35 34 29 30 30 29 29 30 35 38 35 30 30 31 38 38 39 42 39 37 35 34 35 35 35 35 35 34 34 33 32 30 29 29 30 33 33 34 33 32 33 33 32 31 32 33 33 33 32 32 31 31 29
31 35 30 30 26 27 32 34 33 35 38 36 37 37 37 37 38 37 34 33 32 32 32 32 31 31 30 31 31 33 33 32 32 30 29 31 32 35 33 32 32 32 32 32 31 29 28 29 28 29 28 28 28 27
35 33 30 30 29 33 34 34 32 32 31 32 33 31 31 34 34 32 31 31 30 29 29 30 31 32 31 31 31 31 30 32 32 31 31 32 32 33 33 32 32 32 31 31 30 29 29 28 29 28 27 26 26 25
30 29 29 27 29 32 29 29 30 30 31 30 29 32 31 28 28 29 27 27 28 28 28 28 28 29 31 31 31 31 30 31 31 31 31 32 32 32 32 32 32 32 31 31 31 30 29 28 28 27 26 25 25 24
29 30 30 29 28 28 30 28 29 28 29 28 29 31 30 29 27 24 27 26 25 25 24 26 27 29 28 28 29 29 29 28 26 25 26 26 28 30 32 32 31 31 31 30 30 29 27 27 27 26 25 24 23 22

GFSWCAN_sfc_temp_006.txt.gz
Temp
51 50 50 50 50 50 51 51 51 52 52 52 51 51 51 51 52 57 64 68 62 54 59 64 64 60 61 60 50 57 53 53 44 36 35 38 35 43 43 48 42 40 36 34 33 32 31 60 57 40 49 54 53 50
51 50 50 49 49 50 50 50 50 51 51 51 51 51 51 51 52 52 58 65 66 55 59 63 65 68 67 66 59 58 53 55 51 43 38 38 35 36 34 34 51 37 44 41 43 43 55 59 56 57 55 52 51 51
50 50 49 49 49 49 50 50 50 50 50 50 50 51 51 51 52 53 58 59 56 41 52 54 56 65 69 67 69 53 55 59 57 59 48 37 34 42 34 36 40 46 53 42 42 49 54 55 57 57 57 53 54 55
50 50 50 49 49 49 48 49 49 49 49 50 50 50 50 51 51 52 53 60 55 43 34 46 63 60 68 68 66 65 61 61 59 55 39 36 34 43 37 42 41 45 48 43 42 48 52 54 55 56 56 56 53 54
50 50 49 50 49 49 49 48 48 48 49 49 50 50 50 50 51 52 54 57 57 50 38 40 51 61 64 65 64 63 60 57 51 41 36 36 43 40 44 42 38 47 44 39 38 50 48 50 57 58 54 50 51 54
49 49 49 49 49 49 49 48 48 48 48 49 49 50 50 50 50 50 45 51 53 53 40 34 47 51 59 62 61 60 59 56 52 47 38 44 49 40 34 38 49 55 56 56 50 57 57 58 58 56 51 51 56 55
49 49 49 48 48 48 48 48 48 48 48 48 49 49 50 49 50 46 43 48 52 53 35 36 39 45 53 55 57 55 57 53 49 44 39 39 39 42 34 35 48 53 56 57 59 57 49 54 51 55 56 57 56 54
48 49 48 48 48 48 47 47 48 48 48 48 48 48 49 48 48 44 47 48 50 43 38 35 34 37 49 43 41 49 43 42 40 40 38 37 41 37 34 47 53 57 59 59 56 57 56 56 56 56 56 55 52 48
48 48 47 47 47 47 47 47 48 48 48 48 48 48 48 45 41 43 48 48 48 42 34 32 33 33 49 42 39 38 39 33 40 35 38 40 39 36 44 50 54 56 54 52 54 55 54 51 52 53 52 51 48 43
47 47 46 46 47 47 47 47 47 48 48 49 51 44 35 41 47 47 44 37 35 34 34 32 39 37 48 38 36 36 36 33 32 38 46 37 38 50 53 55 56 53 54 54 47 45 46 47 49 49 50 50 45 39
47 46 46 46 46 46 47 47 47 48 46 50 43 37 45 47 46 40 34 33 33 32 34 37 39 39 46 35 34 36 33 34 31 39 38 37 37 46 55 55 55 54 54 54 53 52 52 51 49 47 45 43 39 37
47 47 46 46 46 47 47 47 48 48 48 48 49 50 46 42 38 34 32 35 33 34 38 36 39 41 38 44 37 35 33 34 29 41 33 32 43 52 52 52 53 54 54 53 53 51 51 51 49 43 42 40 36 37
46 46 46 46 46 47 47 47 48 47 48 52 43 37 37 36 30 29 29 32 33 37 35 36 35 38 38 37 34 32 31 30 36 32 33 39 48 51 52 52 52 52 44 42 48 49 48 47 45 36 35 35 34 33
45 46 46 46 46 46 46 47 47 49 50 39 33 30 31 29 33 37 37 33 34 35 36 37 36 36 36 32 32 28 36 35 29 29 33 42 46 49 49 48 47 46 37 38 41 42 39 37 36 34 33 32 31 32
46 46 46 46 46 46 46 46 47 53 42 34 33 30 31 38 37 34 36 36 36 38 39 37 37 37 34 31 33 33 29 27 31 33 40 43 44 45 45 46 46 37 34 37 42 39 37 35 33 33 34 33 33 32
45 45 45 46 46 46 46 47 50 48 35 34 32 31 35 34 32 32 33 34 39 39 38 37 33 30 30 32 30 28 29 29 36 39 42 45 44 43 43 41 41 42 40 41 42 41 39 36 33 34 34 33 32 32
45 43 45 45 45 45 46 47 44 34 34 30 32 36 36 34 33 34 34 36 43 35 32 34 28 29 37 31 30 36 32 36 39 41 44 44 43 43 43 42 38 39 41 41 41 40 39 37 34 33 32 32 32 32
43 46 45 45 46 46 46 44 35 34 30 35 33 34 35 36 35 34 35 39 37 36 37 33 38 31 29 27 30 36 39 41 42 42 43 43 44 43 44 42 43 42 42 40 38 36 36 34 33 33 32 34 33 32
46 47 45 45 47 43 37 36 40 31 34 38 38 39 39 38 39 40 39 38 41 42 38 34 30 29 31 36 35 36 37 38 39 41 43 43 43 42 41 42 41 42 41 40 39 37 36 35 34 34 35 36 34 35
45 44 44 45 45 39 32 34 42 34 32 36 38 36 37 37 38 35 34 35 37 34 30 29 31 35 36 40 42 41 41 42 40 37 38 41 43 42 42 41 41 42 41 41 37 34 33 33 33 34 36 36 34 34
44 44 44 45 41 41 38 35 33 34 37 36 40 38 36 39 35 33 32 36 32 32 31 36 36 39 42 43 44 43 42 42 40 39 38 37 41 41 41 42 41 41 39 37 33 33 32 33 34 35 33 33 33 33
44 43 38 38 34 34 34 40 37 39 36 36 36 37 33 32 32 33 37 32 32 36 38 38 40 42 42 42 43 44 43 43 42 41 39 40 38 38 39 39 38 36 36 34 34 33 33 34 34 34 32 32 32 32
43 41 36 34 30 30 30 41 32 35 29 31 33 30 31 32 35 41 32 36 37 42 42 43 43 43 42 43 43 43 43 41 40 40 39 39 40 39 38 37 36 34 33 34 34 33 33 35 33 32 32 32 32 32
39 33 31 29 30 29 32 30 34 33 33 31 30 28 31 33 37 32 29 33 38 42 42 42 43 41 42 42 41 42 43 43 41 40 41 38 36 36 37 35 35 34 34 34 34 34 33 33 33 32 32 32 31 31
29 29 30 27 32 29 27 28 29 30 27 30 28 28 31 35 28 29 28 34 36 37 39 42 41 41 39 39 41 41 40 42 39 36 37 37 34 33 33 35 34 34 34 33 33 33 32 32 32 32 32 31 31 31
25 30 28 30 30 28 29 26 28 28 29 28 29 34 33 30 26 25 32 36 36 39 34 34 35 38 39 41 40 39 40 41 38 33 35 35 32 32 32 32 32 34 36 34 33 32 32 32 32 32 31 32 32 31
25 28 32 39 37 35 31 33 34 31 28 27 30 30 29 22 23 32 40 43 42 43 43 43 42 41 40 40 41 40 39 37 34 34 34 34 34 34 34 33 32 35 36 34 33 33 32 33 32 32 32 32 32 32
31 33 27 31 32 35 29 30 29 28 30 35 33 27 25 27 29 38 41 43 40 41 41 41 42 42 40 39 38 36 34 34 34 34 33 33 34 34 34 34 34 31 35 34 33 32 33 33 33 33 32 32 32 32
30 35 34 28 30 31 30 30 30 34 38 35 30 29 31 38 39 39 41 41 39 36 34 34 35 34 35 35 34 34 34 33 31 28 28 28 31 33 34 33 33 33 33 33 32 32 33 33 32 32 32 32 31 30
31 35 31 30 27 27 32 35 34 35 37 36 35 34 34 36 38 41 39 37 34 32 33 32 32 32 30 31 31 32 34 33 32 30 28 28 30 32 32 32 32 32 32 32 31 30 30 31 30 30 29 29 28 28
36 34 31 31 29 33 34 35 34 34 33 34 34 32 32 34 36 37 35 34 33 32 31 30 31 32 31 30 30 29 30 32 32 31 31 32 32 32 32 32 32 32 32 31 30 30 29 29 29 28 27 26 26 25
31 30 29 26 29 34 32 31 32 32 32 32 32 32 32 31 30 30 27 28 28 27 29 28 28 28 30 30 32 31 30 29 27 27 27 30 32 32 32 32 32 32 31 31 30 29 29 28 28 27 27 26 25 25
31 31 31 30 28 29 32 30 29 30 31 30 31 32 32 31 28 25 27 27 25 24 24 25 27 28 29 29 29 30 29 27 25 24 23 23 22 24 27 30 31 31 30 30 29 29 28 27 27 27 26 25 22 22

GFSWCAN_sfc_temp_009.txt.gz
Temp
51 50 50 50 50 51 51 51 51 51 51 51 51 51 51 52 52 54 54 59 53 44 48 55 57 51 52 48 37 46 44 41 36 33 33 33 33 32 32 40 33 31 27 30 26 30 25 50 50 36 44 48 51 48
52 50 49 50 50 51 50 50 51 51 51 51 51 50 51 51 52 51 51 58 58 50 49 56 57 58 58 57 51 48 46 47 43 34 34 34 33 34 33 33 44 34 38 31 34 33 46 52 49 52 53 50 48 47
50 50 50 49 49 49 50 50 50 50 50 50 50 51 51 51 52 53 52 54 51 40 48 47 49 57 63 61 61 43 42 53 48 48 39 36 34 36 33 34 35 43 46 36 36 43 48 50 53 53 52 49 49 48
50 49 50 50 49 49 49 49 49 49 49 50 50 50 50 50 51 52 51 54 52 42 34 43 56 54 61 61 59 58 56 55 52 47 36 34 34 42 35 39 38 41 43 40 39 45 48 49 49 51 49 49 47 48
49 49 49 49 49 49 49 48 48 48 49 49 49 50 50 50 51 51 52 53 55 49 37 38 48 55 59 59 57 57 54 52 43 37 35 35 36 37 36 36 35 45 43 38 36 47 45 47 49 50 48 47 47 47
49 49 49 48 48 49 49 48 48 48 48 49 50 50 50 50 50 50 44 50 54 53 40 34 46 46 53 55 54 54 54 50 48 41 36 39 46 40 34 36 46 52 52 52 46 50 50 48 51 52 49 49 50 46
49 49 48 48 48 48 48 48 48 48 48 48 49 49 50 49 50 46 43 47 51 52 35 35 35 41 45 47 48 48 50 47 45 40 37 38 39 42 33 35 47 50 51 51 53 52 46 49 46 51 51 51 51 46
49 48 48 48 48 48 47 48 48 48 48 48 48 49 49 49 48 44 46 48 50 43 38 35 34 35 43 35 36 41 37 38 39 39 36 36 38 35 34 43 47 50 51 51 51 51 49 49 49 50 51 49 46 40
48 48 47 47 47 47 47 47 48 48 48 48 48 48 47 44 40 42 48 48 46 42 35 33 32 33 44 39 37 36 37 33 37 34 35 38 34 34 38 43 46 48 46 47 49 49 46 45 45 47 47 45 43 39
47 47 47 47 47 47 47 47 48 48 48 48 48 42 34 39 47 47 43 36 35 34 33 32 36 34 42 35 33 34 33 32 31 35 37 33 34 45 48 50 49 46 48 48 41 39 39 39 42 42 42 42 39 36
47 47 46 47 47 46 47 47 48 48 49 46 38 35 42 47 44 37 32 32 32 31 32 34 35 34 40 34 33 34 32 32 29 28 27 25 29 39 46 46 48 49 50 49 47 46 45 43 42 41 37 36 35 33
47 47 47 46 46 47 47 47 48 46 45 45 44 45 42 38 34 33 31 32 31 29 34 33 35 37 35 38 33 33 31 31 26 31 30 26 32 44 44 46 46 45 44 45 45 42 42 43 41 36 34 34 30 32
47 47 47 46 46 47 47 48 48 47 48 45 37 34 34 32 28 24 23 29 27 32 34 34 33 34 34 34 32 31 28 27 32 28 27 28 38 43 43 42 43 43 37 36 40 40 40 39 38 33 34 30 27 33
46 46 46 46 46 46 47 47 47 47 43 33 30 21 25 26 26 28 28 32 32 33 33 33 33 30 32 31 31 26 26 28 25 23 21 27 36 41 42 42 42 40 32 33 35 35 32 31 31 30 26 29 32 28
45 45 46 46 46 46 46 47 47 46 37 28 30 21 26 29 32 32 33 33 33 34 34 32 31 29 25 23 27 23 20 24 21 20 24 29 35 37 38 39 38 32 30 28 34 30 30 31 30 30 28 28 30 28
45 45 44 45 46 46 46 46 46 41 33 33 31 26 29 27 30 31 32 33 34 33 30 29 24 19 18 21 18 19 17 18 21 24 28 33 35 35 36 34 35 35 35 34 34 34 34 31 29 30 32 32 32 30
46 40 45 45 46 46 46 43 35 32 28 26 22 28 32 29 32 31 32 32 35 27 21 22 17 20 25 17 17 26 20 22 25 27 28 34 34 35 35 35 32 32 34 34 36 36 35 32 26 32 33 35 32 30
41 43 45 45 45 44 42 39 31 27 23 26 23 24 26 27 31 32 33 32 32 26 25 23 27 18 15 14 16 22 23 25 27 27 29 34 34 35 37 34 37 36 36 35 33 33 30 25 30 34 34 33 28 28
43 43 45 45 44 38 29 29 33 26 25 27 29 28 27 26 28 28 30 28 29 29 26 22 16 16 21 22 19 23 24 24 28 31 33 34 35 34 35 35 34 34 34 35 34 35 30 32 34 34 33 30 29 29
44 44 44 44 44 31 29 28 36 28 26 28 27 26 26 26 26 30 32 33 29 26 21 21 21 26 23 27 28 26 28 31 30 30 33 36 35 34 35 35 36 36 36 35 34 27 31 33 32 32 31 30 30 29
42 41 43 42 36 36 30 27 30 31 28 26 28 27 25 26 24 29 26 33 29 27 22 28 30 33 32 32 34 32 35 35 34 33 33 32 36 35 35 36 34 32 30 31 33 35 32 33 33 32 32 32 32 31
38 43 35 36 32 32 29 30 27 28 25 25 25 26 20 18 19 21 26 26 26 27 30 32 33 33 34 34 35 35 35 35 34 30 29 29 31 33 33 34 31 32 34 34 34 33 33 33 32 32 32 32 26 28
41 38 34 33 29 29 24 30 23 27 18 19 22 19 17 18 24 28 19 26 27 34 35 34 36 36 35 36 35 35 36 35 34 32 30 29 32 29 30 33 33 32 32 33 33 32 33 33 32 31 29 29 27 29
40 32 28 27 21 16 26 25 28 23 21 19 17 16 20 21 24 19 18 21 32 31 31 34 33 34 32 34 31 32 33 31 29 28 29 28 27 31 30 33 32 33 34 34 33 33 32 32 30 29 28 30 30 29
27 27 28 23 24 23 22 19 22 18 14 17 16 14 18 22 15 14 15 26 23 25 29 30 29 30 28 26 27 30 32 30 29 29 27 27 25 33 32 33 33 33 33 33 32 32 32 32 29 29 28 30 29 28
24 26 24 21 24 22 20 12 15 16 15 14 17 20 19 16 12 14 23 22 22 25 24 25 25 25 28 31 29 27 29 28 27 24 28 30 32 30 29 28 29 31 33 33 32 32 32 30 27 27 26 30 30 29
23 22 25 30 28 26 19 21 23 19 14 15 15 16 18 16 12 22 27 27 28 28 30 31 32 30 30 31 30 27 26 26 28 31 33 32 32 32 30 29 28 30 32 34 33 32 32 29 29 29 30 30 30 28
23 23 20 22 24 25 19 17 16 16 18 23 21 16 15 16 18 26 29 30 28 30 31 32 33 33 32 30 27 24 30 31 33 32 31 32 32 30 32 31 33 32 31 33 32 33 32 32 32 31 30 29 29 28
21 25 25 17 19 20 19 20 20 24 27 24 21 18 20 26 25 26 27 30 32 30 26 25 26 30 32 28 28 31 32 32 30 27 27 26 21 24 26 31 32 32 31 31 32 32 32 32 32 32 31 29 30 29
20 27 20 16 16 17 22 26 23 24 28 31 33 29 30 32 35 34 34 34 33 32 30 30 32 31 29 28 29 29 31 32 32 29 24 18 22 29 30 30 31 32 32 32 30 26 30 30 30 29 28 27 26 25
26 24 20 22 22 28 30 32 32 27 25 28 32 30 30 32 33 26 23 27 29 30 29 28 28 30 29 28 27 26 26 27 24 25 25 26 30 31 30 30 28 25 27 28 27 27 27 28 28 27 26 25 24 23
22 22 24 23 25 29 29 26 23 24 25 25 29 31 31 31 28 25 20 23 25 24 25 26 25 25 26 24 28 25 23 21 19 20 15 15 20 23 27 28 28 27 26 25 26 25 26 26 25 25 24 22 21 20
23 26 28 26 24 19 20 22 20 20 23 25 27 28 28 26 25 20 21 23 22 19 19 20 21 22 25 23 25 24 21 20 19 21 20 19 17 18 19 19 22 25 27 26 25 25 23 22 21 21 21 19 15 13

GFSWCAN_sfc_temp_012.txt.gz
Temp
51 50 50 50 51 51 51 51 51 51 51 51 51 51 51 52 52 54 53 55 52 43 47 52 54 50 49 45 36 44 43 39 36 33 32 29 32 32 30 37 32 32 27 29 26 26 26 47 47 37 41 42 47 46
52 50 49 50 50 50 51 51 50 51 50 50 51 50 51 51 52 52 50 55 54 48 48 53 55 56 55 55 48 45 45 43 40 35 34 31 31 33 31 32 40 34 38 31 33 32 43 47 48 47 49 46 43 44
50 50 50 49 49 50 51 50 50 50 50 50 50 50 50 51 52 52 50 52 49 39 45 46 49 55 60 57 57 42 38 50 44 45 36 35 33 34 33 33 35 41 45 33 36 43 45 47 51 51 47 44 45 44
49 49 50 50 49 49 49 49 49 49 49 49 50 50 50 50 51 51 49 51 48 42 34 43 53 53 58 58 56 54 52 52 51 45 36 34 34 41 35 40 38 41 42 39 40 44 46 48 47 49 48 47 46 47
49 49 49 49 49 49 49 48 48 48 49 49 49 49 50 50 51 50 50 52 52 48 36 37 47 53 56 57 55 56 52 49 42 37 35 35 36 37 35 35 35 44 43 37 37 47 45 47 49 49 45 45 45 45
49 48 48 48 48 49 49 48 48 48 48 49 49 50 50 50 50 50 45 49 52 53 40 35 45 45 50 51 51 51 50 48 45 39 36 39 45 40 34 34 44 48 51 52 46 49 48 48 48 48 45 45 47 48
48 48 48 47 47 48 48 48 48 48 48 49 49 49 50 49 51 47 44 47 51 52 36 35 35 41 43 45 45 45 47 44 44 40 37 39 39 42 33 36 47 48 50 52 51 50 43 45 42 46 45 47 48 45
48 48 47 47 47 47 47 48 48 48 48 48 49 49 49 49 48 45 47 49 50 44 38 34 34 36 44 33 34 40 36 37 39 39 36 36 37 35 34 46 45 48 50 49 47 47 46 47 46 47 48 46 43 41
47 47 47 47 47 47 47 48 48 49 48 48 48 48 47 45 40 42 47 47 45 43 35 33 33 33 43 38 36 34 34 33 36 33 35 37 33 34 38 40 43 44 45 45 46 45 46 43 43 43 44 43 40 39
47 47 47 47 47 47 47 47 48 48 48 48 47 42 34 39 47 47 42 36 35 34 34 32 35 34 41 34 33 33 33 32 31 34 39 33 36 44 48 48 47 42 44 43 36 35 37 37 39 38 39 40 37 34
47 47 47 47 47 47 47 48 48 48 49 45 37 35 42 47 43 37 32 33 32 31 32 34 34 34 39 34 33 33 32 32 28 28 32 27 29 35 41 41 42 43 44 43 43 42 43 39 38 37 34 35 33 32
47 47 47 47 47 47 47 48 48 45 44 44 43 44 41 37 34 32 31 31 31 28 32 32 34 37 34 38 33 32 30 31 24 27 25 27 29 37 39 40 41 42 43 43 43 41 40 40 39 35 33 32 32 31
47 47 47 47 47 47 47 47 48 47 47 42 37 34 32 32 25 21 25 28 28 32 34 33 33 33 34 34 32 25 24 21 30 27 27 26 35 40 41 42 41 40 37 35 41 41 40 38 36 31 31 31 28 27
46 46 47 46 46 46 47 47 48 46 41 32 27 24 25 23 25 25 27 31 32 33 33 33 32 30 30 25 31 26 26 27 22 22 20 26 34 38 39 39 39 38 31 31 33 34 32 30 30 29 25 27 23 31
46 46 46 46 46 46 47 47 47 43 34 25 26 21 25 30 30 32 32 32 33 34 32 27 27 27 24 20 28 25 18 22 24 18 23 28 34 35 36 36 36 31 31 31 33 30 29 28 28 31 32 26 29 31
45 45 43 46 46 47 47 46 43 39 33 25 27 25 26 27 28 31 32 32 32 28 27 27 21 17 17 18 16 16 16 16 19 20 26 31 34 34 34 33 34 33 32 33 34 33 34 30 31 33 29 31 34 34
45 40 45 45 45 46 47 42 35 29 22 23 20 27 29 26 24 31 29 31 34 30 20 19 15 20 22 13 14 23 17 20 23 26 29 31 33 33 33 33 30 31 34 34 34 34 33 33 28 29 26 34 32 33
39 43 45 46 45 43 41 35 28 24 22 23 21 21 22 22 27 23 31 32 33 27 23 22 25 17 14 12 14 20 21 24 26 27 28 29 32 32 34 33 35 34 34 34 32 32 31 28 27 30 33 33 32 31
43 44 45 45 43 35 28 32 30 21 23 23 24 24 23 22 23 25 24 29 32 29 23 19 13 13 16 19 15 17 18 20 26 32 34 32 32 32 34 34 33 32 32 33 33 33 34 32 33 35 32 32 31 29
44 44 45 45 43 30 27 25 32 25 23 26 23 22 23 23 22 19 29 31 32 30 28 25 19 21 22 26 25 25 27 27 25 27 32 34 32 32 32 32 32 34 33 33 31 26 30 33 30 32 31 32 29 28
41 41 41 41 36 31 26 23 23 25 26 25 25 25 22 19 19 21 29 28 28 27 24 27 27 31 30 30 29 30 31 31 31 29 31 31 34 29 30 32 31 30 29 30 31 32 33 31 34 33 33 32 32 32
38 41 35 36 30 26 23 26 25 25 23 23 22 22 16 14 13 23 22 28 28 28 28 29 32 32 31 31 33 32 33 33 33 32 29 29 29 31 30 29 24 29 31 32 32 32 33 33 33 33 32 32 31 29
40 37 31 32 23 20 19 27 21 25 18 16 18 16 12 12 19 25 16 24 26 29 34 33 34 33 33 35 33 33 33 33 32 32 30 28 29 26 25 26 23 31 30 31 33 33 33 33 33 32 32 31 28 25
38 29 25 25 20 12 20 27 22 20 13 15 12 10 16 15 19 14 14 16 29 28 28 32 31 32 30 31 30 32 34 29 29 27 27 25 25 25 25 31 33 33 32 33 33 33 33 33 31 29 27 28 27 28
21 23 25 23 22 20 18 12 18 13 11 9 9 8 15 15 12 7 12 25 22 23 28 29 27 30 29 29 26 28 29 29 28 27 25 24 21 23 29 32 32 32 32 31 31 32 32 32 30 29 28 26 26 27
14 21 24 23 15 16 16 8 8 12 6 7 11 16 9 9 8 12 19 19 17 22 18 21 23 22 26 29 27 27 28 27 26 23 25 25 25 27 29 27 27 29 28 32 31 31 31 31 31 28 26 25 26 26
16 16 21 27 26 22 12 11 15 11 8 10 10 9 11 14 10 19 25 25 26 25 27 27 28 28 29 30 29 29 23 25 27 28 31 31 32 31 31 28 27 29 30 31 31 31 31 31 31 30 28 29 29 29
20 15 20 19 20 21 16 9 9 11 14 19 14 11 15 15 17 24 27 28 26 28 29 30 30 32 30 26 23 23 23 24 25 30 29 24 25 22 23 29 31 32 32 32 31 32 31 31 31 31 30 29 30 30
24 20 22 19 18 22 24 19 17 21 24 21 14 11 16 23 21 22 25 27 26 27 27 26 27 25 30 31 26 29 28 29 28 26 26 27 23 18 20 28 29 30 31 31 30 31 31 31 31 31 31 31 30 29
20 25 22 14 16 17 20 21 17 18 20 28 25 24 23 24 26 28 27 26 20 27 25 24 29 31 29 28 27 27 28 29 29 27 22 16 18 23 29 29 29 29 30 30 26 24 25 26 29 29 28 27 27 25
14 12 11 9 13 17 23 18 15 16 14 20 26 25 28 29 20 21 19 24 27 29 29 28 28 27 25 25 25 25 23 19 20 18 16 15 18 21 25 27 28 21 13 14 16 19 22 21 24 25 25 24 24 23
9 13 13 16 23 20 19 20 20 19 18 11 25 13 14 16 20 18 20 18 21 20 19 20 20 19 22 19 20 20 18 16 16 16 16 14 16 16 18 18 22 23 17 14 15 16 18 20 20 19 20 20 20 18
11 9 10 9 9 11 15 16 15 13 7 17 24 25 23 19 22 16 17 19 16 15 15 16 18 20 21 22 21 20 18 19 20 21 19 18 16 15 14 15 16 17 19 17 15 14 12 13 13 13 12 11 10 9

GFSWCAN_sfc_temp_018.txt.gz
Temp
50 50 50 51 51 51 51 51 51 51 51 51 51 51 52 51 50 53 51 51 49 40 44 48 49 46 44 41 36 41 41 36 35 31 28 26 20 30 29 34 30 31 26 24 26 25 22 42 42 35 41 42 45 43
50 50 49 50 50 50 51 51 50 50 50 50 51 51 51 52 50 53 49 51 50 47 47 48 50 50 51 51 45 41 42 39 38 34 33 29 25 25 28 29 36 31 37 33 35 31 41 46 47 46 47 45 42 40
50 50 49 49 49 50 50 50 50 50 50 50 50 51 51 51 52 52 49 48 47 39 44 45 46 51 54 53 53 42 36 45 40 42 33 32 29 31 31 31 34 38 42 35 37 41 43 46 48 48 44 42 44 43
49 48 49 49 49 49 50 50 50 50 50 50 50 50 50 51 52 52 49 48 47 41 34 41 49 48 53 53 52 51 50 46 43 39 34 33 33 41 34 39 37 39 39 37 38 44 45 45 46 45 44 43 41 42
48 48 48 48 48 48 49 49 49 49 50 50 50 50 50 50 51 50 49 50 51 47 36 37 45 49 51 51 50 48 48 44 41 36 34 35 35 36 35 35 35 42 40 37 37 46 44 44 42 43 39 37 39 41
48 47 47 47 48 48 48 48 48 48 49 49 50 50 50 50 51 51 46 51 51 53 40 35 43 41 44 48 46 47 46 44 43 39 35 38 43 39 33 33 44 47 49 50 45 49 43 41 40 40 38 41 42 42
47 47 47 47 47 48 48 48 48 48 48 49 49 49 50 50 52 48 45 46 51 52 37 35 36 37 40 42 42 42 45 44 44 38 35 37 38 41 33 35 46 48 48 47 48 44 39 41 37 41 40 41 41 40
47 47 47 47 47 47 47 47 47 48 48 48 48 48 49 49 49 46 46 48 51 45 39 34 35 36 41 33 34 40 36 37 37 39 35 34 37 34 34 40 43 46 47 43 40 41 41 42 42 40 41 41 37 37
47 47 47 47 47 47 47 48 48 48 48 48 48 48 47 45 41 43 47 48 46 44 34 33 34 33 42 37 35 35 35 33 36 33 34 36 33 34 34 36 37 37 39 35 36 38 39 39 40 40 39 38 35 33
47 47 47 47 47 47 47 47 47 48 48 48 46 42 35 39 47 47 43 38 36 35 34 33 35 34 40 34 33 34 33 32 32 33 35 33 33 37 37 39 38 37 37 39 34 33 35 35 37 37 35 35 33 32
47 47 47 47 47 47 47 47 47 47 47 43 37 35 42 47 43 37 34 33 33 32 33 34 34 34 38 34 33 33 33 32 27 25 30 30 29 32 35 35 37 38 39 41 41 40 40 38 35 34 34 33 32 31
47 47 47 47 47 47 47 47 47 46 44 44 43 43 41 37 34 34 32 31 31 30 32 32 33 36 34 37 33 32 30 30 24 26 25 19 28 33 35 36 37 38 37 38 38 37 35 35 35 33 33 34 32 32
47 47 47 46 47 47 47 47 47 47 46 43 37 34 33 32 29 29 23 26 28 31 33 33 32 32 34 34 31 31 26 21 29 22 20 23 30 37 37 37 37 38 36 32 35 35 35 33 32 30 30 31 28 28
46 46 46 46 46 47 47 47 47 45 42 33 30 28 26 25 26 24 24 27 29 33 33 33 31 30 30 28 28 25 25 26 21 16 18 24 34 37 37 35 34 34 29 28 32 32 30 28 29 29 26 27 25 26
46 46 46 46 47 47 47 46 45 41 35 28 27 22 23 25 29 31 32 33 32 33 33 31 29 26 26 21 27 24 23 20 19 16 19 28 34 33 33 34 34 30 27 27 32 29 26 26 25 27 29 26 25 25
46 46 44 46 47 47 46 44 41 37 29 25 21 23 26 28 28 29 32 32 33 32 30 28 18 16 17 20 20 21 17 14 17 16 26 30 32 32 33 32 32 32 31 32 32 30 30 27 26 30 30 28 27 25
45 40 45 46 45 44 45 38 33 28 25 21 20 27 22 21 23 20 32 32 33 30 26 16 14 17 19 11 14 19 13 17 21 23 25 30 32 32 32 32 29 29 32 31 31 30 31 30 26 24 26 30 29 30
41 44 46 46 43 42 38 33 27 26 24 23 21 18 28 22 23 20 28 26 27 23 22 22 22 12 9 9 10 16 20 21 22 24 27 30 31 31 32 31 32 32 31 31 28 28 27 24 26 30 30 31 31 32
43 44 45 46 42 33 30 30 31 23 22 22 23 23 21 19 21 25 23 23 29 31 29 23 9 12 15 18 16 14 14 18 24 28 29 30 31 31 31 32 31 31 31 29 30 29 30 30 31 30 30 30 31 32
44 43 43 44 42 30 24 29 30 26 23 25 23 22 21 21 24 26 24 19 25 26 26 25 19 19 21 23 25 24 25 26 23 23 28 27 29 30 31 31 31 31 30 29 26 22 26 30 33 28 27 32 32 31
41 40 41 39 31 29 26 22 22 23 25 23 23 23 19 23 24 24 19 25 22 21 21 25 22 26 29 27 29 29 29 28 28 26 26 28 29 28 29 30 29 26 24 22 21 26 27 31 32 33 32 32 33 33
38 40 34 34 25 22 23 24 23 23 21 20 19 19 11 11 16 24 21 27 27 24 27 27 32 30 30 30 31 30 32 31 31 29 26 27 25 25 25 26 21 23 21 22 24 25 29 32 31 32 32 33 33 30
39 37 26 22 18 16 17 24 17 22 15 14 14 14 11 9 15 25 24 28 25 28 29 29 31 32 32 33 31 31 32 31 29 29 28 27 27 26 25 24 21 25 24 26 23 24 28 31 31 32 33 32 32 29
37 23 17 15 13 14 14 24 20 15 11 11 10 8 13 12 17 21 17 15 24 25 26 31 30 28 26 29 27 30 31 28 27 25 25 24 25 27 25 24 21 22 28 27 25 26 27 29 32 31 31 28 27 26
23 20 16 18 23 17 14 22 19 13 8 2 7 6 10 10 9 8 10 18 15 17 24 24 24 26 25 23 23 25 27 27 26 25 28 25 24 21 22 22 23 28 29 18 26 28 30 30 30 30 30 30 28 25
11 18 13 10 21 11 10 6 14 11 2 3 10 8 1 3 5 11 17 17 14 19 15 16 18 18 21 26 24 24 29 25 23 21 26 25 25 25 22 28 28 29 25 27 27 28 28 29 28 28 28 29 29 29
11 18 25 23 22 17 8 5 10 6 2 7 6 3 4 6 7 17 21 22 24 24 25 25 26 26 27 28 26 26 22 21 24 26 23 26 29 30 30 27 25 24 25 28 28 28 27 27 26 27 27 28 29 30
15 16 17 22 20 14 8 3 5 7 10 15 10 7 10 12 15 22 24 26 26 25 25 26 26 25 24 23 23 19 26 25 21 23 21 21 22 20 21 20 20 27 27 28 27 29 28 25 25 25 25 26 27 29
23 19 15 15 11 8 12 14 13 17 22 20 16 12 15 21 21 22 21 20 18 21 19 20 22 17 21 20 19 26 29 29 26 24 20 14 19 21 21 23 25 27 28 27 20 19 18 16 14 13 18 22 24 25
19 15 13 6 10 13 18 21 15 15 15 18 17 21 23 19 14 17 18 20 22 23 24 25 26 26 26 26 24 25 20 21 22 22 17 15 15 16 18 19 23 25 25 23 22 16 16 11 13 12 14 16 18 17
9 9 11 9 10 12 14 6 2 3 4 11 14 20 26 18 17 15 16 14 16 17 17 14 17 17 16 16 17 17 17 15 15 15 14 13 16 17 17 17 17 17 17 21 18 9 5 3 3 3 13 10 8 9
17 8 8 6 10 10 2 4 2 3 8 3 19 6 7 8 9 13 16 15 13 12 12 12 11 12 17 19 18 18 19 18 16 16 15 15 14 14 13 12 10 7 5 7 5 3 -1 -2 -1 3 5 6 6 5
-3 -5 -7 -2 4 7 2 6 4 3 -1 -3 -1 -1 -2 6 5 10 14 15 14 12 12 13 14 16 17 18 17 17 17 16 16 16 16 14 12 10 7 4 -0 -1 1 1 1 -2 -1 -2 -2 -2 -0 0 0 0

GFSWCAN_sfc_temp_021.txt.gz
Temp
50 50 50 50 50 50 51 51 51 51 51 51 51 51 51 50 50 54 52 52 51 41 46 50 52 47 47 45 41 44 43 40 37 34 34 33 31 36 35 39 34 35 31 29 29 28 27 46 47 39 47 48 48 48
50 50 49 49 50 50 50 50 50 50 50 50 51 51 51 51 52 53 51 52 51 48 49 50 53 54 54 53 47 43 46 42 42 36 34 32 32 30 32 34 40 35 40 37 37 37 46 48 48 51 50 45 44 44
50 49 49 49 49 50 50 50 50 50 50 50 50 51 51 52 52 53 50 50 48 39 45 48 49 53 55 55 56 46 40 47 43 45 38 35 34 35 32 32 37 41 44 38 39 46 48 49 53 49 46 41 41 41
48 48 49 49 48 49 50 50 50 50 50 50 50 50 50 51 51 52 50 49 47 42 34 43 50 50 55 55 55 54 50 46 44 42 34 34 34 43 35 41 38 44 42 40 39 46 48 48 45 43 40 40 40 43
48 48 48 48 48 48 49 49 49 49 49 50 50 50 50 51 51 51 50 51 51 48 36 38 46 50 50 52 52 51 49 45 43 37 34 35 37 38 37 37 35 43 42 37 37 48 46 41 41 41 38 40 42 43
48 48 48 48 48 48 48 48 49 49 49 49 50 50 50 50 52 52 46 50 51 51 39 34 43 43 46 49 49 48 48 46 44 40 36 39 45 41 33 33 44 48 50 51 47 48 42 40 39 40 41 43 44 44
48 47 48 47 47 48 48 48 48 49 49 49 49 49 50 50 52 49 46 47 50 51 38 36 36 40 42 43 43 43 45 46 45 39 36 37 38 41 33 34 45 46 46 43 45 43 38 39 38 43 44 45 45 44
47 47 47 47 47 48 47 47 48 48 49 49 49 49 50 50 49 47 47 48 51 46 40 34 35 36 42 36 36 40 37 39 38 39 35 36 37 35 34 39 39 41 40 39 40 42 41 43 44 44 45 44 41 41
47 47 47 47 47 47 47 47 48 48 49 49 49 49 48 46 42 44 48 48 46 45 35 33 34 34 42 38 37 36 37 34 37 33 34 37 34 33 34 35 35 37 39 37 39 41 42 41 42 42 42 41 39 39
47 46 47 47 46 47 47 47 47 48 48 49 48 43 35 39 47 47 44 38 36 35 34 33 36 34 41 34 33 35 34 33 32 34 37 33 34 36 38 39 39 39 40 41 38 37 38 38 38 38 38 39 38 38
47 47 46 47 47 47 47 47 47 48 47 43 37 35 42 46 43 37 34 34 33 32 33 34 34 34 38 34 34 34 33 33 29 30 32 32 31 34 37 38 40 41 43 43 44 43 41 39 37 37 37 37 36 35
47 47 47 47 47 46 47 47 47 45 43 43 42 43 41 37 34 33 32 32 32 32 33 33 34 36 34 37 34 32 32 31 26 31 29 25 31 36 37 39 40 41 41 41 41 39 38 38 37 35 35 35 34 34
47 46 47 47 47 47 47 47 46 46 45 42 37 33 33 32 31 30 27 27 29 32 33 33 32 33 34 34 32 32 28 26 30 25 25 28 34 37 39 40 39 40 38 35 38 38 37 37 35 32 31 32 30 31
46 46 46 46 47 46 46 47 46 44 41 34 33 29 29 28 28 27 28 29 32 33 33 33 31 32 31 31 29 27 27 28 25 20 22 29 35 39 39 37 37 38 31 30 34 35 32 30 30 30 27 28 27 28
46 46 46 46 47 46 46 46 45 42 35 29 30 25 25 28 30 31 33 33 33 34 33 31 29 29 27 27 28 26 24 22 23 23 26 33 36 35 35 36 37 32 28 29 35 31 29 28 28 29 31 30 30 28
46 46 44 46 47 46 46 45 41 38 31 28 26 25 28 29 28 31 32 32 33 32 31 29 23 24 24 25 23 23 20 18 23 25 30 33 34 35 35 34 34 34 34 34 34 32 32 29 28 31 31 29 28 27
45 41 45 45 45 44 44 39 35 29 29 25 23 27 26 24 28 28 32 32 34 33 26 24 21 22 23 19 19 24 19 24 27 29 30 32 34 35 35 34 30 31 33 34 34 33 33 32 28 26 27 32 32 32
41 44 45 46 44 42 38 34 30 29 26 25 24 25 28 28 23 23 29 31 33 29 27 25 26 17 17 17 19 22 25 27 27 30 32 33 35 34 34 34 35 34 34 33 30 30 30 27 29 32 32 33 31 33
43 44 45 45 43 36 32 31 31 25 24 25 25 25 25 24 25 27 28 29 33 33 26 23 17 19 20 23 23 23 23 25 30 33 32 34 33 33 33 33 33 33 33 32 33 33 33 31 32 32 32 32 30 32
44 43 43 44 42 31 26 29 31 27 24 26 25 25 24 25 27 27 28 28 32 28 27 25 23 24 25 27 28 29 30 30 28 28 31 31 32 32 33 34 34 34 33 32 31 25 30 31 32 33 34 32 30 31
40 39 40 39 32 30 26 23 23 24 26 24 25 25 22 26 26 26 24 27 30 28 26 28 26 30 30 30 32 32 32 32 30 29 30 30 33 32 33 33 33 31 29 29 28 29 25 29 32 33 33 32 32 33
37 41 33 34 27 25 24 26 25 24 22 21 20 20 14 14 20 24 27 28 28 27 28 28 30 32 31 32 33 32 33 33 32 31 28 29 28 30 30 31 29 29 28 27 28 28 29 31 31 32 32 32 33 33
38 35 26 23 21 18 20 25 19 22 17 15 16 16 12 11 16 26 24 28 27 29 31 31 32 34 33 34 32 33 33 32 31 30 29 30 30 30 29 30 29 27 26 29 29 29 29 28 29 30 32 32 31 31
36 25 18 14 14 15 14 14 21 16 13 12 12 11 14 14 22 21 20 19 24 26 28 31 31 30 29 30 28 31 32 31 30 29 29 28 28 30 30 30 28 28 29 30 29 28 28 29 30 30 30 29 29 30
25 20 16 18 22 15 8 21 21 21 10 10 13 11 10 15 11 16 17 20 20 22 25 26 26 28 27 27 26 28 28 30 29 29 31 28 28 27 29 28 28 30 31 30 28 30 30 30 30 30 30 29 29 29
11 20 14 8 18 11 12 12 14 16 12 9 13 8 4 6 8 13 18 20 19 23 20 22 24 23 25 27 27 28 31 29 28 26 29 29 28 27 26 27 28 29 29 29 28 28 28 28 28 28 28 28 28 27
15 19 23 22 21 16 7 6 11 6 10 9 7 4 5 7 8 18 23 24 26 26 27 27 28 28 30 30 28 27 26 26 28 30 28 29 30 31 30 29 28 28 28 28 28 28 27 28 26 26 26 27 27 27
13 19 15 21 18 14 6 2 6 12 10 15 10 9 11 12 16 23 23 25 24 26 28 28 27 27 26 26 25 24 26 23 26 27 28 28 24 23 24 25 26 26 27 29 29 26 24 22 23 24 25 24 25 26
23 17 17 19 18 18 10 13 13 17 21 17 14 11 16 21 17 16 19 19 22 24 24 24 25 24 25 25 23 26 26 27 27 26 24 25 22 23 21 22 24 27 28 26 26 26 24 23 22 21 20 19 20 20
22 22 16 15 12 12 17 18 14 13 16 18 19 19 20 14 15 15 15 15 14 14 16 17 19 19 19 18 18 21 19 19 19 20 21 20 19 17 18 18 19 20 21 22 23 21 20 18 17 17 16 14 14 14
16 15 14 12 9 12 10 2 0 2 2 9 6 16 16 11 13 14 13 13 14 13 12 11 13 15 15 15 16 16 19 19 19 18 18 17 16 16 15 15 15 15 16 20 19 16 14 11 10 12 11 9 8 8
18 17 10 14 9 5 0 1 -2 5 0 2 5 -0 5 8 5 8 12 11 10 9 10 11 10 12 15 18 18 17 17 16 16 16 16 15 14 13 12 11 8 9 11 10 9 8 6 6 7 6 6 5 5 4
-5 5 4 -2 4 6 2 5 3 5 1 -1 -2 7 -3 1 -1 5 8 12 11 10 8 10 12 16 15 14 13 13 14 13 13 12 11 12 8 7 7 4 4 5 6 6 5 5 4 4 3 2 2 1 1 0

GFSWCAN_sfc_temp_024.txt.gz
Temp
50 50 50 50 50 50 51 51 51 51 51 51 52 52 51 51 52 64 60 60 64 53 57 58 60 58 58 61 52 54 53 50 44 37 37 37 36 45 43 48 42 43 35 33 34 31 30 55 53 42 50 54 54 54
49 49 50 50 50 50 50 50 50 50 50 51 51 52 51 51 52 57 63 60 59 61 58 59 60 62 63 65 61 55 56 54 54 45 39 39 36 35 39 39 51 42 48 46 46 45 57 60 55 58 58 53 48 41
49 49 49 49 49 49 50 50 50 50 50 50 51 51 52 52 52 58 62 59 61 51 57 58 57 61 63 64 67 57 54 58 55 56 49 41 35 46 34 39 47 53 55 45 46 52 56 57 59 52 50 43 43 42
48 48 48 49 49 49 49 49 49 49 50 50 50 51 51 52 51 56 61 59 59 49 37 53 58 58 62 63 64 64 60 56 55 54 38 37 38 53 43 47 44 53 54 49 48 52 53 55 51 45 41 41 43 47
48 48 48 48 48 48 49 49 49 49 49 50 50 50 51 52 52 59 61 60 61 60 43 48 56 57 59 60 61 61 60 56 47 40 38 40 50 44 44 42 39 54 51 43 40 50 46 44 40 41 39 43 48 48
48 48 48 48 48 48 48 48 49 49 49 49 50 50 50 51 52 62 57 61 61 62 47 41 54 52 55 58 57 57 58 55 50 47 40 48 52 48 34 36 49 54 56 55 46 50 44 40 40 42 45 47 50 50
47 47 47 48 48 48 48 48 48 49 49 49 49 50 50 50 57 57 55 55 54 61 43 39 41 49 50 53 53 54 52 52 52 46 40 44 44 47 34 34 44 46 47 47 50 45 38 39 37 48 49 51 51 52
47 47 47 47 47 48 48 47 48 49 49 49 49 49 49 49 49 54 54 50 55 50 46 36 38 42 50 43 40 46 43 42 42 43 37 39 40 38 35 42 44 45 43 43 44 48 46 47 48 50 52 50 48 48
47 47 47 47 47 47 48 47 48 49 49 49 49 49 50 48 44 46 48 50 52 51 37 35 37 36 47 41 41 41 43 36 40 35 36 38 35 35 39 40 41 41 43 44 46 48 47 46 47 48 48 48 45 45
47 47 47 47 47 47 48 47 47 48 49 49 49 45 36 41 47 48 46 40 38 36 35 34 39 37 46 39 38 39 38 36 34 36 41 34 34 37 42 43 45 45 44 45 43 42 44 44 45 45 45 46 45 44
47 47 47 47 47 47 47 47 47 48 48 44 38 35 43 47 44 39 34 35 34 33 34 35 36 36 41 37 34 36 34 34 32 37 36 34 34 39 45 45 47 46 47 48 48 48 48 46 44 43 43 43 42 41
47 47 47 47 47 47 47 47 47 45 44 43 43 43 41 38 34 33 32 32 33 34 34 34 35 37 35 38 35 33 33 33 30 40 32 32 41 43 44 43 44 45 47 47 48 46 46 45 45 43 41 41 39 38
47 47 47 47 47 47 47 47 47 45 45 43 36 33 33 32 32 32 30 32 32 36 37 35 33 34 35 37 33 34 32 31 36 30 32 39 40 43 44 45 46 47 45 41 46 46 45 44 42 38 36 36 34 35
46 46 46 47 46 46 46 46 45 45 42 34 32 30 32 31 32 34 34 35 36 36 35 36 34 35 34 33 33 31 31 34 28 27 30 37 41 43 46 46 45 45 37 38 41 42 38 35 35 34 33 33 32 32
46 46 46 46 46 46 45 45 43 46 39 33 34 30 30 31 34 34 35 36 36 37 38 36 35 37 32 30 33 30 27 27 31 32 37 42 43 44 43 43 44 41 35 36 42 37 34 34 34 34 35 35 35 33
46 46 46 46 46 45 43 43 42 42 34 34 32 30 31 32 31 33 34 33 36 34 34 36 32 31 29 31 28 28 28 28 33 37 42 43 41 41 42 41 41 41 40 40 41 40 38 34 33 37 36 34 33 32
45 42 46 45 45 44 45 42 42 33 33 32 30 32 32 33 33 33 36 36 36 35 32 33 29 29 30 28 27 32 29 34 38 39 41 42 41 42 42 41 36 37 39 40 41 40 39 38 35 33 33 39 37 35
41 45 45 46 47 45 42 39 36 35 30 32 32 31 32 33 32 32 34 37 36 36 35 32 33 28 28 27 30 34 36 39 39 40 42 42 42 42 42 41 42 41 41 40 36 37 37 33 35 40 39 40 37 36
44 45 45 45 45 42 37 36 37 32 30 32 31 32 33 32 31 33 34 35 37 38 35 33 29 30 31 34 34 36 36 37 40 42 42 42 41 40 39 40 39 39 40 39 39 40 41 39 39 39 39 38 35 34
44 43 42 42 44 37 32 33 39 35 32 32 33 32 32 32 31 31 32 35 37 34 32 30 32 35 36 39 40 41 42 42 40 37 38 41 41 40 40 40 41 42 41 40 39 35 38 39 41 39 37 36 33 33
41 40 41 41 37 37 34 33 32 33 33 32 32 34 29 31 30 30 31 34 32 33 33 37 36 39 40 40 41 42 41 41 39 38 37 38 42 40 40 41 41 40 39 38 36 37 34 35 37 36 33 33 33 33
38 40 35 38 34 33 32 33 34 33 33 31 32 32 30 29 28 29 32 30 32 36 38 38 40 41 40 39 41 42 41 41 41 39 35 36 36 38 39 40 39 37 37 36 37 34 35 36 35 33 32 32 33 33
38 36 32 33 31 30 27 35 30 31 29 28 30 29 28 29 28 30 27 32 35 39 41 41 41 41 40 42 40 40 41 39 39 40 39 39 39 39 38 39 39 35 34 37 38 36 34 34 33 32 32 32 32 31
37 30 27 26 29 23 28 27 30 28 28 28 27 25 25 28 27 25 24 29 35 38 37 38 39 39 40 38 38 41 42 41 40 39 39 38 38 40 41 40 39 37 37 37 34 34 33 32 32 32 32 31 31 31
30 25 28 22 26 23 23 25 23 25 21 21 22 25 25 25 24 22 24 31 34 35 37 38 38 39 37 40 41 41 39 39 39 39 41 40 38 37 38 40 38 37 37 32 32 32 32 32 32 31 31 31 30 29
22 23 25 23 23 24 22 20 21 21 21 19 22 23 24 25 23 25 30 33 34 36 33 35 36 38 39 40 38 39 41 40 39 36 39 40 38 35 33 32 32 33 35 33 30 30 30 30 30 30 29 29 28 28
21 21 26 29 28 25 22 21 23 23 19 20 25 21 24 21 23 30 34 30 32 31 32 34 34 34 34 35 36 37 37 36 34 36 38 37 37 36 33 31 30 32 33 32 31 30 29 29 29 29 29 29 29 28
25 27 21 23 24 26 22 22 22 21 25 27 25 21 22 24 27 28 26 25 26 28 30 31 31 29 29 30 30 31 31 32 32 32 32 32 32 31 29 30 31 28 31 31 30 30 29 28 28 28 28 27 27 27
26 26 27 20 21 23 25 27 27 29 31 28 27 27 28 26 19 20 21 22 25 24 22 21 23 24 27 27 28 28 25 25 23 25 26 28 30 26 26 26 27 28 28 29 28 28 27 27 27 26 25 25 25 24
24 28 24 22 20 22 29 30 30 30 31 32 33 31 27 18 18 21 20 20 18 17 18 18 19 19 18 19 20 23 23 22 21 20 20 20 20 22 23 23 23 23 24 26 27 27 26 25 24 25 22 20 20 19
26 27 25 25 24 28 26 22 24 24 26 28 26 28 27 17 17 18 16 18 17 17 16 15 16 19 18 18 17 17 17 19 18 18 18 20 20 19 19 18 19 20 22 23 23 22 21 22 21 19 17 15 13 14
24 23 23 21 23 25 22 23 24 23 24 24 24 22 19 18 12 14 15 16 15 13 12 13 13 14 18 18 18 18 16 16 16 15 14 15 15 14 15 15 16 18 19 19 19 18 17 16 16 15 14 12 10 9
16 18 17 18 21 23 22 19 22 21 22 21 18 17 14 14 8 12 17 16 14 12 12 12 14 15 17 17 16 16 15 16 15 14 12 11 10 10 11 12 13 14 15 16 15 15 13 12 11 10 8 7 6 5

GFSWCAN_sfc_temp_030.txt.gz
Temp
52 51 51 51 51 51 50 50 51 49 50 53 53 52 52 52 53 63 66 69 68 61 64 68 69 66 66 65 54 60 57 57 50 37 36 40 38 48 49 55 42 39 35 33 37 33 32 60 56 41 50 55 51 50
51 51 50 50 50 50 51 51 51 50 51 53 53 52 52 52 53 55 68 71 70 66 63 68 67 68 68 68 66 62 61 58 57 47 43 44 38 38 40 42 61 46 49 45 44 42 57 58 53 55 54 49 48 47
49 49 50 49 50 50 50 50 50 51 51 52 53 53 53 53 54 57 69 69 71 59 62 63 61 67 71 69 71 59 61 67 63 62 50 43 34 46 35 43 51 58 62 49 50 56 58 54 54 52 51 47 48 48
48 48 49 49 49 49 50 50 50 50 51 51 52 54 53 53 54 56 69 69 67 55 38 57 67 65 69 70 70 69 66 65 63 58 40 38 37 56 45 50 49 55 57 53 51 57 58 50 49 47 46 47 48 51
47 47 48 48 49 49 49 49 49 49 50 51 51 52 55 55 54 66 69 69 69 63 45 54 64 65 67 67 67 67 64 61 55 42 37 39 52 50 51 48 45 56 52 46 44 52 52 46 44 45 45 48 52 52
47 47 47 47 48 49 48 48 48 49 49 50 51 52 52 52 51 68 62 67 68 68 50 41 60 59 63 65 65 63 64 59 57 47 42 51 62 51 37 40 54 60 62 57 53 52 50 46 46 49 49 52 54 53
47 47 47 47 48 48 49 48 48 48 49 49 50 50 51 52 62 59 57 57 54 65 47 39 47 56 59 62 61 57 57 54 53 51 45 48 51 53 37 37 54 58 57 55 52 48 41 43 46 50 52 54 54 55
47 47 47 47 47 48 48 48 48 48 48 49 49 49 49 48 50 57 57 55 57 60 53 36 42 46 56 48 44 54 46 48 51 49 44 44 51 43 37 48 55 58 52 51 49 50 50 51 52 53 55 54 51 50
47 47 47 47 47 47 47 48 48 49 48 48 48 50 54 53 53 57 49 52 63 58 38 35 36 36 55 46 44 44 48 36 44 38 39 44 38 37 44 49 54 51 48 48 50 52 52 51 51 52 51 50 48 47
47 47 47 47 47 47 47 48 48 48 48 49 51 47 37 44 48 49 56 48 45 44 41 37 49 40 50 41 38 38 40 37 34 38 42 34 35 47 51 53 53 50 48 49 46 46 48 47 48 48 48 49 47 45
48 47 47 47 47 48 47 48 48 48 48 46 39 35 43 47 51 43 38 37 37 35 39 42 47 40 48 39 36 40 35 36 33 37 36 34 35 45 49 48 50 49 50 51 53 52 52 50 48 47 46 45 42 41
48 47 47 47 47 46 47 47 48 47 44 43 43 44 42 38 35 36 34 34 34 36 36 35 37 42 39 45 37 34 34 34 32 41 34 33 43 47 47 47 48 50 52 51 52 50 50 50 49 44 42 40 40 38
47 47 47 47 46 46 46 46 46 45 46 43 37 35 35 32 31 32 31 32 33 33 35 34 33 35 35 37 33 33 32 32 39 32 32 39 45 49 49 50 49 51 45 44 49 49 48 46 44 39 37 38 35 36
47 47 47 46 46 46 46 46 47 46 42 34 32 31 32 31 33 33 33 34 35 36 35 34 33 34 33 32 32 32 33 35 30 29 32 40 46 49 50 50 49 47 37 40 42 43 40 37 36 34 33 33 31 33
48 47 46 46 45 45 46 46 47 50 40 33 33 31 31 33 34 34 34 35 35 36 35 34 34 35 33 32 33 32 30 29 32 32 35 42 46 46 46 47 47 42 34 36 42 37 34 33 34 35 36 36 36 33
47 47 47 45 45 45 45 46 44 49 38 35 33 32 33 33 32 33 33 33 36 35 36 37 33 32 31 33 31 30 30 29 33 37 42 44 43 43 44 42 41 42 41 40 41 40 39 35 33 38 38 35 34 34
46 46 46 45 45 45 46 42 40 35 35 33 33 34 35 33 33 33 34 34 37 35 32 35 31 28 33 31 30 34 31 35 40 41 41 42 42 43 43 42 37 38 39 40 40 40 40 40 36 35 34 38 38 37
48 47 45 45 47 47 48 47 40 38 33 38 35 34 36 36 34 34 36 38 38 36 37 32 36 30 30 29 33 37 39 39 41 42 43 43 45 43 45 42 44 42 41 40 39 39 39 35 36 37 39 41 39 38
48 48 45 46 47 45 40 39 44 35 36 37 36 37 36 34 35 35 36 37 39 40 38 35 31 32 34 38 37 39 40 40 40 42 43 44 43 42 41 41 39 40 40 39 40 40 41 40 40 41 41 41 38 36
42 42 43 44 45 37 35 39 47 40 37 38 39 36 35 33 33 33 34 36 37 36 33 32 34 38 39 40 41 41 42 42 41 39 40 42 43 43 42 40 40 41 41 41 40 37 40 40 42 42 40 37 33 32
41 40 41 43 38 38 37 40 38 40 40 38 38 39 33 35 33 33 33 37 33 34 34 39 39 42 43 42 44 43 42 43 41 40 39 39 42 41 42 42 42 41 40 40 38 39 37 38 39 38 33 32 33 33
39 41 36 39 35 35 37 40 39 41 38 36 37 39 32 31 31 32 35 33 35 38 41 41 42 43 43 42 43 44 43 43 42 41 37 39 39 40 40 41 41 39 39 37 39 37 37 38 37 35 33 33 33 33
38 37 35 34 32 32 30 40 33 37 31 31 35 31 31 31 32 35 31 36 39 44 45 45 45 44 42 43 43 43 43 42 41 42 41 42 42 42 41 41 41 37 37 39 40 38 35 35 35 33 33 33 32 32
37 33 31 31 33 28 32 31 36 34 34 32 31 29 32 32 33 31 30 36 41 43 42 43 44 42 43 42 41 43 42 43 42 42 42 40 39 40 42 41 41 40 40 39 38 35 34 33 33 32 32 32 32 31
31 28 30 27 32 30 29 29 30 31 28 30 29 29 29 32 29 29 29 34 31 31 33 36 40 41 40 40 40 40 38 36 34 34 37 39 37 36 36 38 38 38 38 35 33 33 33 32 32 32 31 30 30 30
26 28 29 30 29 30 31 27 28 29 30 28 29 30 31 30 27 27 33 30 28 28 28 29 30 33 35 35 33 31 31 33 31 29 32 32 31 30 30 30 30 32 30 31 32 32 32 32 31 30 30 30 30 29
25 27 31 35 35 33 30 31 33 30 27 27 30 28 28 24 26 29 30 28 28 28 31 32 31 30 29 30 30 30 30 29 27 27 31 33 30 27 26 24 24 26 29 30 30 30 30 30 30 29 29 29 29 29
30 31 25 29 31 33 29 30 28 28 30 35 32 26 26 28 26 26 26 28 28 30 31 31 30 28 28 27 28 28 27 27 27 28 30 31 30 28 26 26 26 26 26 26 27 28 29 28 27 28 28 27 27 27
29 32 31 26 29 30 30 30 31 35 38 36 31 31 28 25 24 24 25 26 28 27 25 24 24 26 27 27 27 27 24 22 18 15 15 17 18 20 22 23 22 23 23 23 24 26 26 26 26 26 26 25 25 25
27 32 30 28 26 28 29 32 31 32 37 34 35 31 26 22 22 26 25 24 23 21 22 23 23 22 20 20 20 21 24 22 19 16 13 12 14 18 19 19 18 19 20 20 21 23 26 24 26 26 24 22 20 20
31 31 30 31 29 30 29 30 30 30 31 32 31 29 22 19 20 22 22 23 23 22 21 19 20 20 18 17 17 16 16 20 19 19 17 17 17 16 15 15 16 17 17 17 18 20 21 20 22 21 19 17 15 15
30 28 29 27 28 29 30 30 30 30 30 29 28 25 23 23 19 19 20 21 20 18 16 17 16 16 18 19 19 19 19 19 18 18 17 16 15 15 14 13 14 14 12 12 15 18 18 17 17 15 15 12 11 10
27 28 27 28 28 28 29 28 29 28 28 28 25 24 21 21 16 17 21 22 19 17 16 16 17 18 18 17 16 18 17 17 17 18 17 16 13 13 12 13 13 11 9 9 13 16 13 12 11 11 9 8 6 4

GFSWCAN_sfc_temp_033.txt.gz
Temp
51 51 51 51 50 50 49 49 50 50 50 53 52 52 52 52 53 58 56 60 57 49 53 58 58 54 59 53 42 50 45 44 38 33 29 32 32 35 37 44 35 31 28 30 32 27 23 53 50 39 42 45 45 43
51 51 50 50 50 50 49 50 49 49 51 53 52 52 52 52 53 54 56 61 61 54 52 58 58 60 58 57 54 52 49 49 46 37 36 35 34 34 33 31 48 34 39 33 36 33 46 49 47 46 47 43 43 45
50 50 50 50 50 50 50 50 50 50 51 52 54 52 52 52 53 55 57 58 57 48 51 52 52 58 63 61 62 49 48 56 51 50 41 40 34 36 29 33 39 47 52 38 40 48 47 45 46 47 46 43 44 46
49 49 50 49 49 50 50 50 50 50 51 52 52 53 52 52 53 57 56 57 53 47 36 48 61 57 63 62 63 60 56 54 51 45 38 36 33 45 34 39 38 45 49 45 41 44 44 44 44 43 43 43 44 48
47 48 48 49 49 49 49 50 49 50 50 51 52 53 51 52 52 58 57 57 58 53 39 41 56 59 61 61 60 59 56 52 44 38 34 35 37 39 35 38 34 48 45 35 34 46 44 41 42 43 41 43 46 47
47 47 47 48 48 49 49 49 49 49 49 50 50 51 52 52 52 57 51 55 55 56 42 38 52 52 56 57 57 53 53 50 47 40 36 42 50 41 33 31 46 52 53 51 45 44 43 41 41 44 46 47 49 48
47 47 47 47 48 48 49 48 48 48 49 49 50 50 50 51 53 50 48 51 49 53 40 35 41 47 52 54 49 49 49 47 46 40 37 39 41 42 34 33 45 50 49 47 45 43 38 39 40 48 48 50 50 49
47 47 47 47 47 48 48 48 48 48 49 49 49 50 49 48 50 51 51 52 50 48 43 34 36 37 50 39 37 44 39 43 44 40 39 37 39 35 34 42 47 51 47 45 44 46 45 45 47 48 49 47 45 43
47 47 47 47 47 47 48 48 49 49 49 49 49 52 52 49 47 49 49 49 52 48 34 35 33 32 46 40 38 39 42 34 40 34 36 39 34 35 40 44 46 45 44 43 47 50 49 47 47 46 46 44 41 39
47 47 47 47 47 47 47 48 48 49 48 49 51 47 37 43 48 50 48 42 39 38 37 36 39 36 43 35 34 36 35 34 33 35 39 33 34 40 44 47 46 44 47 47 44 43 44 43 42 43 43 41 39 38
47 47 47 46 47 47 47 48 48 48 49 47 40 36 43 48 46 39 35 35 35 35 36 39 38 38 42 34 34 35 33 33 32 34 34 32 32 38 43 43 44 46 48 49 49 48 47 44 42 39 39 37 35 34
47 47 47 46 46 47 47 47 47 45 44 44 43 44 42 38 35 36 34 33 34 34 34 34 35 38 35 40 34 33 33 33 30 36 32 30 34 40 42 42 45 47 48 48 48 44 43 43 40 37 35 34 34 32
47 47 47 46 46 47 47 46 46 45 45 42 38 35 35 32 33 33 33 32 32 33 34 33 33 34 34 35 33 33 32 31 34 32 28 30 41 43 43 44 43 44 40 40 43 43 42 41 39 34 33 33 28 31
46 46 46 46 46 46 46 47 46 45 41 34 33 30 32 30 31 30 32 32 33 33 33 33 32 33 32 33 32 31 31 32 29 25 23 34 41 44 45 44 42 40 34 37 37 37 35 34 31 29 27 28 24 28
46 46 46 45 46 46 46 47 47 45 37 33 33 29 30 31 32 32 33 33 33 34 34 33 33 33 32 31 32 30 28 27 29 28 31 35 39 39 39 40 38 35 28 31 35 32 28 27 28 31 31 31 32 28
47 47 43 45 46 46 47 45 42 41 34 33 33 30 32 32 32 32 32 32 34 33 34 33 32 32 30 30 28 29 28 26 29 32 35 37 38 38 38 37 36 38 36 35 35 35 34 29 27 33 33 30 29 28
47 43 46 45 46 46 47 40 36 34 33 33 31 34 33 32 32 32 33 32 35 33 31 32 29 27 30 28 27 31 29 31 33 33 35 36 37 37 37 37 33 35 36 35 35 35 35 35 30 29 30 34 33 32
44 44 45 46 45 45 42 39 33 30 29 32 32 32 32 33 32 33 33 33 32 30 30 28 31 27 26 25 27 31 31 32 33 33 36 38 38 38 40 37 39 37 35 35 34 34 34 29 31 33 33 34 32 30
44 44 45 46 44 40 35 33 36 29 32 30 32 32 32 32 32 33 33 32 33 33 32 29 27 26 27 30 30 30 31 31 33 35 36 38 38 38 37 37 36 35 34 34 34 32 32 34 33 33 32 30 27 29
43 43 43 44 45 35 32 30 38 31 28 31 33 31 31 30 31 32 33 33 30 31 29 27 27 30 30 32 34 32 34 35 33 30 31 34 35 36 36 35 33 34 33 34 33 30 32 31 31 31 30 29 30 29
41 40 42 41 37 36 34 32 32 34 32 31 32 29 29 31 30 31 32 31 30 24 27 29 29 31 35 34 36 36 35 35 32 31 29 29 34 31 34 33 34 32 30 31 29 31 29 30 32 31 30 25 26 25
38 41 34 36 33 32 29 33 33 32 32 32 31 32 29 28 29 29 33 26 25 28 31 30 33 33 34 35 36 36 36 36 36 33 31 29 29 29 30 30 29 28 29 29 30 33 32 31 31 30 31 32 31 28
39 37 33 32 30 29 25 32 30 31 27 28 31 28 28 29 29 29 29 27 28 33 33 35 36 37 35 36 36 35 34 34 30 31 32 30 29 29 31 31 29 28 29 31 30 30 30 28 29 31 32 29 23 25
37 32 29 30 31 26 28 25 28 27 25 25 27 23 26 27 25 22 20 23 29 30 31 31 32 32 33 34 29 28 29 30 29 29 30 29 28 29 30 29 30 29 28 29 30 30 31 33 34 31 29 24 20 17
30 27 29 25 28 27 23 20 22 24 22 23 21 19 22 25 19 18 18 27 26 24 26 29 29 30 27 27 28 27 28 27 25 24 26 26 24 25 25 27 27 27 26 25 25 25 27 30 32 29 23 21 25 22
26 27 25 25 26 24 22 16 20 21 22 20 21 23 23 19 16 15 25 24 25 25 26 26 24 24 26 26 23 23 24 25 24 21 23 25 25 21 19 18 18 20 22 23 22 21 22 25 27 27 21 21 25 26
23 24 27 30 30 28 23 24 27 25 19 16 20 16 14 9 10 22 25 25 25 26 29 28 26 24 23 23 25 26 25 22 19 21 24 26 24 21 19 16 16 18 20 21 20 19 20 21 24 24 24 25 26 25
25 24 19 24 24 26 20 23 22 23 23 25 21 13 11 12 18 22 23 25 25 28 27 25 24 24 23 24 23 22 14 13 15 16 17 22 20 14 16 16 17 18 16 18 18 19 19 20 21 22 23 23 23 22
27 29 28 21 23 24 24 23 22 26 29 26 18 17 21 21 19 22 21 23 24 24 21 20 15 15 16 16 13 16 14 7 8 5 3 5 8 10 14 14 14 13 13 15 16 18 19 19 21 20 22 21 20 16
25 29 25 22 19 22 26 29 29 29 27 26 25 23 21 19 18 20 20 18 15 13 18 14 13 10 5 4 5 7 11 11 4 4 2 1 8 12 11 11 11 10 11 11 10 11 15 19 20 21 18 15 16 12
28 28 27 26 25 26 27 28 29 29 30 29 28 22 17 13 13 13 12 16 17 8 7 5 5 4 3 2 4 2 3 4 5 9 9 5 9 4 3 8 8 9 10 7 7 8 9 15 16 15 12 11 10 7
28 25 25 18 23 24 29 28 28 28 27 26 22 18 12 11 7 9 7 11 10 5 3 2 1 3 3 7 4 1 12 6 2 4 9 9 5 6 6 5 7 8 4 4 6 6 11 11 11 9 8 6 5 3
23 21 20 16 15 16 17 16 15 14 14 13 15 14 10 8 5 7 10 8 6 3 2 2 1 2 5 5 1 3 2 0 3 13 9 11 6 4 3 6 8 5 1 3 4 9 8 7 5 4 2 1 -0 -2

GFSWCAN_sfc_temp_036.txt.gz
Temp
51 51 51 50 50 49 49 50 50 50 50 51 51 51 51 52 52 57 54 56 55 45 51 54 55 53 51 48 41 47 45 42 37 31 26 27 29 33 34 40 35 31 27 24 24 18 24 48 48 40 42 42 43 41
51 50 50 50 49 49 49 49 49 50 51 52 51 51 51 52 52 55 54 57 57 52 51 55 56 56 56 55 50 47 48 45 43 35 32 36 33 35 31 30 44 36 38 32 35 34 44 47 46 45 45 42 42 41
50 50 50 49 48 48 48 48 48 50 51 52 51 51 51 52 53 57 54 54 53 45 49 51 50 58 61 57 58 48 45 52 48 45 38 33 29 35 30 32 37 45 47 36 38 45 45 43 44 45 45 42 44 45
49 50 50 49 49 49 50 50 50 50 51 51 51 51 51 52 53 56 54 53 50 44 36 46 58 55 61 60 59 56 53 49 46 42 37 36 31 41 31 37 36 42 46 42 38 40 42 42 42 42 42 44 45 47
49 49 49 49 49 49 50 50 49 49 50 51 51 51 51 52 53 56 54 52 53 51 39 38 53 56 58 58 56 56 53 48 41 37 34 34 35 36 31 35 33 45 43 36 35 45 42 40 41 42 42 43 46 45
48 49 48 49 49 49 49 49 49 49 49 49 50 51 51 51 54 54 49 53 52 51 41 35 47 49 53 54 53 51 51 48 44 39 35 40 46 38 33 33 43 49 51 50 45 43 41 41 42 44 45 46 48 46
47 47 48 48 48 49 49 49 49 49 49 49 49 48 48 51 51 49 46 50 49 49 39 35 34 45 49 50 46 46 46 45 45 38 35 37 39 40 33 32 44 47 46 44 44 42 38 39 40 46 48 48 46 44
47 47 47 47 48 48 48 48 48 49 49 49 50 48 48 50 50 49 49 49 49 44 39 33 37 36 46 36 37 41 37 40 40 40 36 33 36 35 34 40 44 45 43 42 42 43 43 44 46 46 47 45 42 40
46 46 46 46 47 48 48 48 49 49 49 50 50 50 50 47 45 47 47 47 48 45 34 30 31 32 43 39 36 36 39 33 38 34 35 36 34 34 39 41 43 42 42 41 44 46 47 46 45 45 43 42 39 38
46 46 46 46 47 47 47 48 48 48 49 50 49 44 37 42 48 49 45 40 38 37 36 31 35 35 41 34 34 34 34 33 32 33 39 33 35 38 40 43 44 42 44 46 43 41 42 40 41 41 40 39 38 36
46 46 46 46 47 47 47 48 48 49 50 47 40 36 43 48 44 39 35 35 35 35 35 38 35 36 40 34 33 33 33 33 31 33 34 32 32 36 40 40 44 46 47 47 47 45 45 43 40 38 37 36 34 33
47 46 46 46 46 47 47 47 47 45 44 45 43 44 43 38 35 35 33 34 34 34 34 35 35 38 36 37 34 33 32 32 29 34 32 30 34 38 40 43 44 46 46 45 44 42 41 40 38 36 35 34 33 31
46 46 46 46 46 47 46 46 46 46 45 44 39 35 36 33 33 34 32 32 32 33 34 34 33 33 34 35 33 33 32 31 34 31 28 31 39 42 42 42 42 44 40 40 42 42 40 39 37 35 33 34 26 30
46 46 46 46 46 46 47 46 46 44 41 34 33 31 32 30 30 30 32 32 33 33 33 33 32 33 32 33 32 31 31 32 29 24 21 34 38 41 42 41 40 37 32 35 36 36 35 34 31 28 24 26 22 27
46 46 46 45 46 46 47 47 47 44 37 33 33 28 29 31 32 32 33 33 33 34 33 33 33 33 31 30 31 30 27 26 28 27 31 34 38 38 37 38 37 34 29 33 35 31 27 26 26 30 30 30 31 27
47 46 43 45 46 47 46 44 40 38 34 32 33 30 32 31 31 32 32 32 33 33 33 33 31 31 29 30 27 27 27 24 27 31 33 36 36 36 36 35 35 36 35 35 34 34 33 27 25 32 32 29 27 26
47 41 45 45 46 46 46 39 34 34 32 32 31 33 33 32 31 32 33 33 34 33 31 32 27 25 30 27 27 30 26 30 33 33 35 36 35 35 35 35 32 35 35 34 34 34 34 34 29 27 28 33 33 32
40 44 45 45 45 43 40 36 33 30 30 32 31 31 31 32 32 32 33 33 31 29 29 27 30 26 25 24 27 30 31 31 33 34 35 36 37 36 38 37 38 36 35 34 33 33 33 28 30 32 33 33 31 30
41 42 44 45 43 36 32 33 34 27 30 31 31 31 31 31 32 32 32 32 30 31 30 27 24 23 24 28 29 29 29 30 32 34 34 36 36 36 36 36 35 34 34 33 33 32 31 33 32 33 32 29 28 26
43 43 43 44 44 34 29 29 34 30 28 31 32 31 30 29 31 32 31 31 31 31 23 23 25 27 28 30 32 30 32 33 32 29 30 33 33 35 34 33 32 33 31 33 32 27 30 31 32 31 28 28 24 26
40 40 41 41 35 36 32 28 29 31 32 31 31 29 29 30 30 31 31 31 22 21 25 27 25 28 32 31 33 32 32 33 30 29 27 28 32 29 31 31 32 30 28 28 26 29 25 26 31 32 30 26 27 25
38 41 34 36 33 28 26 31 28 29 32 31 30 30 28 27 28 29 31 26 25 26 28 27 31 31 32 31 30 30 32 32 32 29 29 28 28 28 28 28 28 26 24 23 27 27 27 29 30 31 32 31 28 32
38 37 33 32 27 23 23 31 30 31 28 27 29 27 26 27 29 28 28 28 29 29 29 31 33 34 30 30 29 28 29 29 27 26 27 26 26 25 25 25 26 24 24 26 27 26 24 26 29 29 31 33 32 31
38 31 28 22 29 25 24 26 24 25 22 27 26 22 21 23 22 23 16 26 29 28 28 28 29 29 29 28 25 24 25 26 25 25 25 24 23 24 25 25 26 23 22 22 22 22 22 21 24 26 27 29 27 26
27 25 22 18 25 25 24 18 15 17 13 17 16 12 18 18 13 13 14 26 25 25 24 26 27 27 25 24 24 24 25 24 22 21 23 24 21 19 20 21 20 19 18 16 16 16 15 17 19 20 23 25 24 24
22 20 18 20 19 21 20 13 13 15 15 14 13 18 16 13 11 11 23 24 23 25 19 24 22 21 22 24 22 22 21 22 21 17 21 22 19 14 11 11 12 13 16 14 14 13 13 14 16 17 18 21 23 24
18 15 24 30 29 27 20 20 24 20 15 13 18 15 11 10 8 21 23 23 23 24 25 26 24 22 21 22 22 20 18 17 15 17 20 20 17 16 12 9 9 12 13 11 11 11 10 11 13 14 16 19 22 22
23 24 19 25 26 27 23 21 21 19 20 23 20 14 13 12 16 20 22 23 22 25 24 23 22 21 20 19 18 12 11 9 11 11 14 15 11 6 5 4 6 12 6 8 9 10 9 9 10 12 15 17 19 15
20 25 24 22 24 23 22 21 22 26 28 26 18 17 17 19 17 19 20 21 21 21 17 16 11 9 11 11 8 7 2 3 5 -1 -5 -5 -2 3 4 1 4 7 7 7 9 10 10 10 11 13 17 13 11 10
23 28 24 22 21 22 25 26 26 28 26 23 22 20 18 15 16 18 16 16 15 13 11 9 2 4 -5 -2 -2 2 5 1 -1 -1 -5 -5 3 6 1 2 5 5 5 6 5 5 7 7 10 15 12 12 9 7
26 25 25 23 23 24 25 26 27 27 28 26 23 16 10 9 11 12 12 10 5 5 5 -1 1 -7 -3 -2 -3 -8 -4 0 -2 0 -0 -1 -1 -4 -2 -0 1 1 4 5 1 2 4 3 8 7 6 4 4 3
25 24 23 18 21 23 27 27 26 26 22 23 16 14 4 1 -1 2 8 7 2 -0 -5 -8 -5 -3 -0 0 -4 -6 -3 -5 -6 -4 4 1 -3 -4 -3 -2 -3 -0 -2 -6 -5 -1 4 -0 -0 -0 -0 -0 -1 -1
18 6 5 6 10 14 8 8 6 10 4 10 11 7 3 4 1 4 4 -0 1 -3 -5 -6 -7 -7 -2 -4 -5 -6 -5 -7 -5 3 4 6 -1 -2 -5 -8 -8 -12 -11 -10 -7 -2 -7 -7 -3 -4 -3 -3 -4 -4

GFSWCAN_sfc_temp_039.txt.gz
Temp
51 51 51 50 49 49 49 50 49 50 51 51 51 51 51 51 54 57 53 54 54 45 49 52 53 50 49 46 41 46 44 41 34 31 26 27 24 32 33 38 33 31 26 23 25 18 25 45 45 38 41 40 43 41
50 50 50 49 48 48 49 49 49 50 50 51 51 51 51 51 53 55 54 55 55 51 50 54 53 54 53 54 48 45 47 44 42 34 29 28 30 34 29 28 40 32 37 32 34 33 43 45 43 42 44 41 41 41
50 50 49 48 48 48 49 48 49 50 50 50 51 51 51 52 54 56 53 52 51 45 48 50 49 56 59 55 56 47 43 49 45 42 38 31 27 33 29 30 34 42 44 35 37 43 42 45 42 43 43 41 42 43
49 49 48 47 48 48 48 48 49 50 50 50 50 51 51 53 53 54 52 50 48 43 36 45 55 53 58 57 56 55 51 47 44 40 36 32 28 38 30 35 36 41 43 39 37 41 40 42 42 42 41 42 44 45
49 49 48 48 49 49 49 49 49 49 50 50 50 51 52 53 54 55 52 50 50 50 38 37 50 54 54 55 54 53 51 46 40 36 33 34 34 34 30 34 32 43 41 35 34 43 42 42 42 41 40 42 44 45
49 48 48 49 49 49 49 49 49 49 49 50 49 50 51 52 53 53 48 51 50 49 41 35 45 47 51 51 50 49 49 45 41 38 35 37 43 37 34 34 41 46 47 47 44 42 41 39 40 42 43 45 47 44
48 48 48 48 48 49 49 48 48 49 49 48 48 49 50 51 51 48 46 48 49 48 39 35 34 44 46 47 44 45 45 43 43 39 35 36 38 39 34 33 43 46 46 43 42 41 38 38 39 44 46 46 45 43
47 48 48 48 48 48 48 48 48 49 49 49 48 49 50 50 50 48 48 47 47 43 39 34 33 35 44 36 37 40 37 39 39 39 36 32 36 35 34 39 42 42 41 40 40 43 43 43 43 44 45 43 40 39
46 46 47 47 48 48 48 48 49 49 49 50 49 50 50 47 45 47 48 47 46 45 34 29 33 32 41 38 36 36 38 33 37 34 35 35 33 34 38 40 40 40 40 40 42 43 44 44 43 43 43 41 39 37
46 46 46 46 47 47 47 48 48 49 49 49 49 44 38 43 48 48 44 39 37 37 37 33 35 34 40 34 34 31 34 29 33 30 39 33 35 37 39 40 42 41 42 42 40 38 39 38 38 39 40 39 37 36
46 46 46 47 47 47 48 48 48 50 50 45 40 37 44 48 43 38 35 34 35 35 35 35 35 36 39 34 33 32 29 32 30 29 31 28 32 35 38 38 40 43 45 45 44 43 41 38 38 37 36 35 35 34
46 46 46 46 46 47 47 47 48 45 44 44 43 43 40 36 35 35 32 34 34 34 34 35 35 38 35 36 33 33 31 32 29 34 32 29 34 38 41 41 42 42 41 41 41 40 40 39 38 36 36 34 34 32
46 46 46 46 46 46 46 46 46 46 46 44 39 36 35 33 33 34 33 32 32 33 34 34 33 33 34 35 33 33 32 30 33 31 30 31 37 40 40 41 41 41 39 38 40 40 39 38 36 35 34 34 27 31
46 46 46 46 46 46 46 46 46 45 42 34 34 33 32 31 30 31 32 32 32 33 33 33 32 33 32 33 32 31 32 32 29 27 24 34 37 39 40 39 38 35 31 34 35 36 34 33 30 27 25 24 22 27
46 46 46 45 46 46 46 46 45 43 37 32 33 28 28 31 32 32 32 33 33 34 33 33 33 33 32 31 31 30 27 25 24 22 30 32 38 37 36 36 35 33 28 31 34 30 27 26 26 29 29 29 30 25
46 45 43 45 46 46 46 43 41 40 34 32 32 30 32 31 31 32 32 32 33 33 33 33 31 29 28 29 26 25 24 20 22 31 33 35 36 36 35 34 34 36 35 34 34 34 32 26 24 32 31 29 26 25
46 41 45 45 45 46 45 37 34 32 31 32 31 33 32 32 32 32 32 32 34 33 31 31 27 25 29 26 25 27 22 26 30 31 34 35 34 34 34 36 33 34 34 34 34 34 33 34 27 27 28 34 32 32
40 42 45 45 44 42 38 34 29 29 30 31 30 30 31 32 32 32 32 32 32 31 28 27 30 25 24 23 24 28 30 32 32 33 35 36 36 35 36 36 36 35 34 34 32 33 33 27 30 31 32 33 31 29
41 41 43 44 42 35 31 32 32 28 30 31 31 31 31 31 32 32 32 32 31 30 29 25 21 20 23 27 28 27 27 28 31 34 34 35 35 35 34 34 34 33 33 32 32 30 30 31 30 30 31 30 29 30
43 43 42 43 42 31 30 29 33 30 29 31 32 30 30 30 31 32 31 31 32 28 22 21 23 26 26 28 30 29 30 31 30 28 28 31 30 31 30 29 29 29 28 29 29 25 28 28 30 30 29 28 27 28
39 38 40 38 32 32 29 27 28 32 32 30 31 31 28 30 30 30 24 30 22 26 25 27 25 27 30 29 30 31 31 31 28 26 25 25 27 28 27 27 28 27 25 24 25 27 27 25 25 26 27 28 30 31
36 40 35 36 28 26 27 30 29 30 31 29 29 29 28 27 27 28 30 29 26 25 27 26 29 29 28 27 28 28 29 29 28 27 26 26 25 24 24 25 24 23 24 23 24 23 23 23 22 23 23 25 27 28
38 36 33 33 23 21 22 32 31 31 27 27 28 26 26 26 28 30 28 28 29 28 28 29 29 30 27 28 28 27 27 27 24 24 24 24 24 23 23 25 21 16 14 18 20 21 18 16 17 17 19 19 21 24
38 31 28 27 23 19 22 24 28 27 26 25 24 21 22 25 26 24 18 26 28 29 28 29 28 27 27 27 24 23 24 25 24 22 23 23 22 21 21 20 19 17 15 15 14 13 13 12 12 13 14 15 16 18
24 22 19 14 19 19 15 16 17 19 15 22 22 20 20 17 10 12 17 24 25 25 25 26 26 28 25 23 24 23 24 23 21 20 21 20 16 15 16 17 16 15 13 8 7 7 8 9 9 10 10 12 12 14
21 18 16 14 15 18 16 14 18 17 13 22 19 18 11 9 16 10 22 23 23 24 22 22 22 21 22 24 21 19 18 19 19 17 19 17 14 9 4 5 6 7 12 4 5 4 5 6 6 5 6 9 10 12
22 16 21 28 27 27 21 18 23 22 17 16 17 18 13 13 14 19 22 23 23 22 23 24 23 22 21 20 18 16 15 14 12 16 18 16 15 14 6 -1 3 7 10 7 2 2 3 4 3 3 5 8 10 13
18 18 17 20 25 27 23 22 20 21 18 22 19 15 14 9 13 19 21 23 22 23 21 20 19 18 17 16 13 9 9 7 9 12 11 10 8 2 3 1 1 9 3 0 -2 3 3 4 4 5 7 7 7 10
22 25 24 20 24 24 24 24 23 26 28 26 20 17 16 17 16 18 19 20 21 19 15 12 9 8 9 9 6 5 0 1 1 -5 -9 -11 -10 -2 2 -6 -6 -4 -4 -3 3 7 7 8 8 11 12 7 6 5
22 28 24 22 21 22 23 25 25 27 25 23 21 19 17 13 14 16 15 14 12 8 5 5 0 1 -8 -6 -7 -2 -2 -7 -6 -5 -9 -9 -3 1 -6 -5 -4 -4 -3 -6 -2 -1 1 -1 -1 -3 -1 0 2 1
26 26 24 23 21 21 24 26 27 27 26 21 19 14 10 10 10 12 11 7 8 3 0 -4 -4 -11 -7 -8 -9 -10 -7 -8 -10 -5 -2 -3 -8 -10 -9 -7 -8 -10 -9 -8 -11 -11 -9 -9 -11 -13 -10 -9 -8 -6
19 16 17 17 19 23 22 23 22 23 22 21 14 10 5 1 -4 4 5 1 0 -3 -8 -13 -8 -5 -5 -6 -9 -11 -5 -9 -10 -10 -8 -5 -8 -10 -10 -10 -14 -15 -17 -16 -15 -14 -15 -15 -17 -16 -17 -15 -14 -12
14 11 9 6 10 19 6 4 5 10 13 11 7 3 0 0 -2 4 4 -2 -2 -5 -8 -9 -10 -12 -10 -8 -8 -10 -9 -11 -11 -2 -1 -1 -5 -6 -12 -15 -17 -19 -17 -19 -18 -17 -17 -16 -17 -17 -17 -17 -16 -15

GFSWCAN_sfc_temp_042.txt.gz
Temp
51 51 50 50 49 49 49 49 49 51 50 50 50 50 51 51 52 58 53 54 52 45 47 50 51 48 47 45 41 45 43 41 34 32 27 27 25 32 32 36 33 31 28 27 23 15 25 44 44 39 41 39 42 41
50 50 49 48 48 49 49 49 50 51 50 51 50 50 51 52 53 56 54 54 53 50 49 52 52 52 51 52 46 44 46 43 42 33 26 26 26 32 29 28 37 32 36 31 33 32 42 44 41 41 42 42 40 40
49 48 48 48 48 48 48 49 49 51 50 50 51 51 51 52 53 55 53 49 50 45 47 48 48 54 57 53 54 46 42 47 42 41 34 30 28 31 27 30 33 39 41 34 36 41 41 43 43 43 43 42 41 42
48 48 48 48 48 48 48 48 49 50 50 50 51 51 51 52 53 54 50 48 48 43 36 45 53 51 55 55 54 52 48 44 42 39 32 31 29 36 29 33 34 39 41 37 36 41 40 43 42 42 41 41 42 43
47 47 47 47 48 48 49 49 49 49 50 50 52 52 53 53 54 54 50 48 48 50 38 38 48 51 52 53 52 52 50 45 40 36 33 34 33 33 32 32 32 40 39 34 34 44 43 43 41 41 40 41 42 42
48 47 48 48 48 49 49 48 48 49 48 48 49 51 51 52 52 52 48 50 50 47 42 35 44 45 48 49 48 47 47 43 40 38 34 37 41 36 33 34 41 44 45 45 43 41 40 37 38 40 41 42 44 42
48 48 48 48 49 49 48 48 48 48 47 48 50 51 51 52 51 47 45 47 47 46 39 35 33 42 44 45 42 42 42 40 41 38 35 36 37 38 34 32 42 43 44 41 40 40 36 37 38 43 43 43 43 42
48 48 48 48 49 48 48 48 49 49 48 48 49 50 50 50 49 48 47 47 47 43 39 33 32 35 42 37 37 41 37 38 39 39 36 34 37 34 33 38 41 41 39 39 40 41 41 41 42 41 44 43 40 38
47 47 47 47 48 48 48 48 49 49 49 49 49 50 50 47 45 47 48 47 45 45 32 27 32 31 40 37 36 37 37 34 37 34 35 35 33 33 36 37 39 39 39 38 40 41 41 39 40 41 41 40 37 37
46 47 47 47 47 48 48 48 48 49 49 49 49 45 37 43 48 48 44 39 37 37 35 32 36 34 40 34 34 30 33 29 24 28 38 33 34 38 36 37 38 38 39 41 36 34 35 35 36 37 37 39 37 35
46 46 47 47 47 47 48 48 48 50 50 46 41 37 44 47 44 37 34 34 34 34 36 35 35 36 39 34 33 31 30 31 27 27 33 31 32 33 37 36 39 41 41 41 41 40 40 38 37 36 35 35 35 34
46 46 46 47 47 47 47 48 48 45 43 46 44 44 42 38 35 35 32 33 34 32 34 35 35 37 35 34 34 33 26 31 28 34 32 29 33 38 38 38 39 41 41 41 42 40 39 37 37 36 35 34 34 33
45 45 46 46 46 46 46 47 47 47 46 42 38 34 35 31 34 34 32 32 32 33 34 34 33 33 34 35 33 33 32 30 33 31 29 32 36 38 37 38 38 39 38 37 39 38 38 37 35 35 34 34 28 31
45 45 45 45 45 46 45 45 46 45 42 34 33 34 33 32 31 31 32 33 32 33 33 33 32 33 32 33 32 32 32 32 29 27 25 32 36 36 38 38 36 34 30 34 35 35 34 33 30 28 25 24 22 27
46 46 46 45 45 45 45 44 45 43 37 33 34 28 28 30 32 32 32 33 32 34 33 33 33 33 32 31 31 30 27 22 23 20 30 32 37 36 34 34 34 32 28 31 34 29 26 25 26 29 29 28 29 25
46 45 43 45 46 45 44 43 41 40 34 33 32 28 31 31 31 32 32 32 33 33 33 34 32 30 28 28 25 25 24 19 22 30 32 35 35 33 33 34 33 34 34 33 33 33 32 26 24 31 29 28 26 24
45 39 44 45 45 45 44 39 36 33 32 32 30 32 32 32 32 32 32 32 34 33 31 31 24 23 28 22 22 25 19 27 31 32 34 35 33 33 33 33 31 33 33 33 33 32 32 32 26 27 28 31 31 31
39 39 44 45 43 41 37 34 31 32 30 31 30 30 31 32 32 32 32 32 32 32 30 28 30 25 20 19 20 26 29 31 33 32 33 34 35 35 36 34 34 33 32 32 31 31 30 27 28 28 29 29 28 28
40 40 43 44 41 35 32 31 32 28 30 31 31 31 31 31 31 32 31 31 32 28 28 24 21 20 21 26 24 25 26 27 31 32 32 32 34 33 32 32 31 30 29 29 28 27 27 28 27 26 26 26 25 27
42 42 41 42 41 30 29 28 32 32 29 31 31 30 30 30 30 32 30 31 31 22 23 21 22 24 25 27 28 27 32 30 32 30 26 27 28 29 28 28 27 27 26 26 26 22 25 25 26 24 23 23 23 23
38 37 39 36 30 31 29 27 29 31 31 30 30 30 28 30 30 26 23 28 22 25 23 25 22 26 28 28 28 29 28 30 27 27 26 26 26 26 25 25 25 24 22 20 19 19 19 21 21 19 17 19 20 19
37 39 33 34 27 27 27 30 30 30 30 29 29 30 27 26 28 28 29 25 26 25 26 26 28 28 27 27 28 28 28 28 27 26 25 23 22 22 23 22 19 16 16 15 16 16 16 17 15 14 12 13 15 16
39 34 29 27 24 23 25 31 29 31 27 27 28 23 25 26 27 28 27 28 28 28 28 29 28 29 26 27 27 26 27 26 23 23 23 22 23 23 23 19 16 11 10 13 14 13 11 9 10 9 10 10 10 11
37 30 28 26 20 16 19 25 28 27 26 27 24 19 22 25 26 24 22 26 27 28 30 28 28 26 27 26 22 22 24 25 22 21 22 21 18 18 18 18 16 13 12 11 9 5 6 4 4 5 6 5 6 7
20 21 18 13 22 14 9 13 21 22 17 23 23 21 21 19 12 20 21 23 23 24 25 27 28 27 25 23 21 21 22 23 21 18 18 17 13 13 13 14 13 12 10 3 2 1 0 1 1 2 3 2 3 5
18 23 16 8 14 17 12 10 12 13 15 20 22 18 14 9 16 12 21 22 22 23 21 22 22 21 21 22 19 17 16 18 18 15 15 15 12 7 2 1 2 4 9 -2 -4 -2 -2 -0 0 -1 -0 1 3 6
12 14 18 26 27 25 16 17 19 19 16 20 21 20 16 14 13 18 21 21 21 21 22 23 23 22 18 17 16 14 13 12 13 15 15 14 13 11 3 -4 -3 4 7 3 -5 -11 -7 -2 -1 0 1 2 4 5
17 16 13 13 17 24 19 19 18 16 19 24 22 19 18 10 12 18 19 21 20 20 19 18 17 17 15 13 11 10 8 9 10 9 8 8 6 2 -0 -2 -2 6 -2 -8 -10 -7 -6 -1 1 2 3 1 -3 -3
16 21 22 18 21 23 23 22 23 26 27 25 20 16 15 16 14 16 18 19 19 17 13 11 10 10 9 7 5 3 0 -1 -2 -5 -9 -11 -11 -4 -4 -10 -10 -9 -10 -9 -3 3 3 2 -0 -4 -8 -4 -4 -9
19 24 23 21 21 21 22 25 24 25 23 22 20 18 16 13 13 15 16 14 11 7 3 4 1 1 -6 -7 -8 -4 -8 -12 -9 -7 -10 -12 -7 -3 -13 -14 -12 -10 -14 -17 -15 -11 -4 -11 -9 -13 -13 -13 -14 -16
23 23 23 22 21 23 24 26 27 26 22 18 15 12 10 10 11 11 8 7 6 2 0 -6 -8 -15 -9 -10 -12 -12 -8 -10 -13 -9 -7 -9 -9 -13 -13 -12 -15 -18 -20 -21 -22 -21 -20 -20 -22 -22 -19 -16 -15 -17
18 14 15 14 15 19 19 20 18 18 19 17 10 6 2 2 -4 2 2 0 -1 -6 -10 -16 -10 -7 -9 -10 -14 -14 -8 -11 -11 -11 -11 -9 -10 -9 -13 -14 -19 -21 -20 -21 -22 -21 -21 -21 -22 -22 -22 -21 -20 -20
12 13 10 6 10 15 3 4 3 3 6 8 1 -1 -2 -0 -4 1 2 -3 -3 -6 -9 -11 -11 -14 -13 -11 -11 -13 -12 -15 -13 -4 -2 -2 -7 -7 -14 -19 -21 -21 -19 -21 -22 -24 -20 -20 -21 -22 -23 -24 -24 -24

GFSWCAN_sfc_temp_045.txt.gz
Temp
51 50 50 49 49 48 49 50 49 49 49 50 49 49 49 51 51 56 53 54 53 46 48 52 53 49 48 48 44 47 47 45 39 36 34 35 35 38 39 41 38 37 33 30 27 29 32 48 50 44 49 48 48 47
50 49 48 48 48 49 49 49 49 50 50 50 50 50 51 53 53 55 52 55 54 50 50 53 54 54 54 55 49 46 50 46 46 39 34 33 33 33 35 36 41 38 42 38 39 40 48 49 49 49 49 48 48 47
48 48 48 48 48 49 49 49 49 50 50 50 50 51 52 53 53 54 54 51 52 47 49 50 50 55 56 53 56 48 45 49 46 45 38 36 35 36 34 35 39 43 44 41 41 47 45 47 49 49 49 48 49 48
48 48 48 48 48 48 48 49 50 50 50 50 50 51 53 52 53 54 52 50 50 45 37 46 54 51 54 54 55 54 49 45 44 44 36 34 35 39 36 41 40 44 44 42 41 45 45 48 47 48 47 47 46 47
47 47 48 48 48 48 49 49 48 49 50 51 51 51 52 52 53 53 51 49 50 52 39 41 50 51 52 53 52 52 50 47 43 38 34 36 36 37 36 38 36 44 43 39 39 47 48 48 45 45 45 45 46 45
47 47 47 48 48 48 48 48 47 48 50 51 52 52 52 52 51 54 51 51 48 48 44 36 46 46 49 50 48 47 48 45 43 40 35 39 42 39 34 35 45 47 47 48 47 47 46 43 43 45 45 45 45 44
47 48 48 48 48 49 48 47 47 48 49 50 50 50 50 50 50 48 47 48 47 47 40 35 36 44 45 46 44 44 44 42 43 40 37 39 40 41 34 36 43 44 45 44 44 45 45 43 42 45 44 44 44 43
48 48 48 48 49 48 48 48 48 48 50 50 50 50 50 50 49 48 47 47 47 44 41 34 34 38 43 38 38 42 39 41 40 39 37 36 38 36 35 40 42 44 43 42 42 43 43 43 44 43 43 42 39 39
48 47 47 47 49 48 48 48 48 48 49 49 49 49 50 47 46 48 48 47 46 46 35 32 34 34 42 37 37 39 38 34 38 35 37 39 34 34 36 37 39 41 41 39 41 42 43 40 40 40 40 39 37 38
47 47 47 47 48 48 48 48 48 49 49 49 49 46 38 44 48 48 45 41 38 36 36 32 36 35 41 36 34 34 34 33 32 35 39 34 34 37 37 38 38 39 42 41 37 35 37 37 37 37 38 40 40 39
47 47 47 47 48 48 48 47 48 50 50 46 41 38 44 47 45 38 34 34 34 33 36 35 38 36 39 36 33 34 32 32 30 33 34 33 33 34 37 37 40 42 42 41 41 40 40 39 38 38 37 38 38 38
47 47 47 47 47 47 47 48 48 46 44 46 44 44 42 39 36 35 33 34 34 33 35 35 35 38 35 36 35 33 30 33 30 36 33 30 33 36 38 39 40 41 41 41 42 40 40 39 39 38 38 37 37 35
45 46 46 46 46 47 47 47 47 47 46 46 40 37 38 35 34 29 29 32 32 34 34 34 34 35 35 37 33 34 32 31 35 32 31 32 35 37 37 39 38 39 39 39 40 40 39 38 37 36 34 35 30 34
45 45 45 45 45 45 46 46 47 45 42 35 35 33 32 32 33 33 32 33 32 33 34 34 33 34 33 35 33 33 32 33 30 28 29 31 34 36 38 38 38 36 32 35 36 37 34 33 33 29 27 27 27 31
45 44 45 45 45 44 45 45 45 42 37 33 34 30 30 31 32 32 32 33 33 34 34 34 33 35 32 32 32 31 29 27 28 26 31 34 35 36 36 35 36 34 30 33 36 32 28 27 29 31 32 32 31 27
46 45 42 45 44 44 44 43 42 40 34 33 31 30 32 31 31 32 32 32 33 33 34 34 32 31 29 30 28 28 27 24 27 32 32 34 34 36 35 35 35 35 35 35 35 34 32 29 28 31 31 30 28 29
44 38 43 45 45 44 45 39 37 32 32 32 30 32 32 32 32 32 32 32 34 33 31 32 28 27 30 26 25 28 26 28 32 32 32 33 33 34 35 35 33 34 34 34 33 32 31 31 28 28 27 29 29 29
38 40 43 44 44 43 38 36 34 32 29 30 30 30 31 32 32 32 32 32 33 32 32 30 32 27 25 23 25 29 32 33 34 34 34 33 34 35 36 34 33 33 31 30 29 29 28 27 26 25 26 26 26 27
39 40 42 43 42 37 34 33 34 29 30 31 31 31 31 31 31 32 31 32 32 31 32 29 28 26 27 30 29 29 30 32 32 32 31 32 32 31 31 31 30 29 28 28 27 27 27 27 25 24 23 22 21 23
42 42 41 41 42 33 31 30 34 32 29 30 31 30 30 30 31 31 30 31 30 26 26 25 26 27 28 29 30 31 33 34 32 29 28 28 29 29 28 28 27 27 26 25 24 23 24 23 23 21 19 18 17 17
38 37 39 36 32 32 29 28 29 31 31 30 30 31 29 31 30 29 26 28 25 26 25 27 26 27 29 29 30 30 30 32 30 30 28 25 27 27 25 25 24 22 20 19 18 18 17 17 17 16 14 13 14 15
37 39 29 32 27 28 27 30 31 31 30 30 29 30 28 27 28 29 29 28 27 27 28 28 29 28 27 27 27 28 29 29 29 27 26 25 24 23 21 20 19 17 16 14 15 13 13 14 13 12 11 11 11 12
36 34 28 27 25 23 26 32 30 31 27 27 29 25 26 26 28 29 28 29 28 29 30 29 28 29 27 27 27 27 28 27 24 23 23 23 23 22 20 18 16 12 12 13 14 12 9 6 9 7 9 8 8 8
35 28 26 19 21 20 19 22 29 28 28 27 25 20 23 25 27 25 23 26 27 29 29 27 28 26 26 25 22 23 24 25 22 21 23 21 18 18 19 17 15 13 12 11 9 7 6 5 3 6 5 4 5 6
21 21 19 18 21 15 11 12 23 22 13 23 24 21 23 21 18 20 21 23 23 23 25 28 28 27 23 20 21 21 21 24 21 17 18 18 16 15 15 14 13 12 11 7 5 4 3 2 3 3 4 3 4 5
15 23 19 14 21 16 11 10 9 14 14 16 20 19 17 16 16 15 20 20 21 21 21 23 22 21 20 21 19 18 17 19 20 16 15 15 13 11 8 7 7 8 10 6 3 2 2 2 2 1 2 4 3 5
10 10 22 26 27 25 14 14 20 14 13 16 19 21 21 15 14 17 21 20 20 20 21 22 23 20 17 16 16 15 15 16 16 16 15 14 13 12 8 5 4 7 8 6 2 -0 -1 -1 -1 1 2 5 5 4
17 19 12 14 17 20 12 11 14 13 16 23 21 18 18 15 13 17 19 20 19 19 17 16 16 16 15 13 12 13 12 12 11 11 10 10 8 7 5 5 4 4 1 -0 -1 -1 -1 -1 1 3 3 2 1 2
15 17 17 10 12 18 19 18 22 25 25 25 20 17 14 14 14 15 18 19 18 17 14 12 10 11 9 8 6 5 5 7 7 1 0 1 1 5 5 2 1 -0 -1 -2 -2 2 5 6 4 2 -1 -2 -2 -2
18 21 17 14 13 15 19 24 24 23 23 21 19 17 15 12 12 14 15 14 11 8 6 7 6 7 4 4 2 2 0 -1 2 3 2 0 2 4 1 -0 -1 -1 -5 -5 -5 -4 -2 -3 -2 -4 -5 -5 -5 -5
19 18 17 16 14 17 20 23 27 24 20 16 14 12 10 11 11 10 8 7 7 6 6 2 0 -6 -0 -2 -1 -1 0 0 -6 -2 -1 -2 -2 -1 -0 -1 -3 -5 -6 -6 -7 -7 -7 -6 -7 -8 -7 -7 -9 -10
14 12 14 13 14 14 14 15 16 17 17 13 8 6 5 5 2 7 5 4 2 1 -8 -9 -3 0 -3 -3 -7 -5 -7 -3 -2 -3 -4 -3 -1 -0 -0 -2 -6 -7 -6 -6 -7 -8 -9 -8 -8 -8 -9 -9 -11 -11
4 11 8 6 9 7 4 4 3 2 4 7 2 0 0 2 -1 5 4 -0 0 -2 -4 -3 -3 -6 -6 -7 -3 -3 -7 -4 -7 -4 -0 -1 -3 -1 -1 -3 -7 -7 -7 -6 -7 -9 -8 -9 -8 -9 -10 -12 -12 -13

GFSWCAN_sfc_temp_048.txt.gz
Temp
50 50 50 50 50 50 50 50 50 50 49 50 50 50 50 50 52 57 58 61 66 56 57 59 61 60 59 63 55 56 57 55 52 44 40 46 43 50 50 53 47 46 41 37 37 35 36 59 56 50 58 60 59 59
48 48 48 49 49 49 49 49 49 49 49 49 49 49 50 51 52 54 57 60 64 60 57 61 60 60 61 65 63 59 61 59 61 52 47 45 39 38 47 46 52 46 53 50 50 52 57 60 61 61 59 58 59 58
48 48 48 49 49 49 49 48 48 48 49 49 49 49 50 52 53 55 61 60 62 56 58 61 58 61 63 61 63 60 57 61 59 59 54 49 37 50 38 47 51 54 54 51 49 58 58 59 62 62 62 59 59 58
48 48 48 48 48 48 48 48 48 48 49 49 49 49 50 53 52 56 63 59 59 53 42 53 62 58 61 62 62 62 60 57 57 60 48 42 43 52 48 52 51 56 53 53 52 58 59 59 58 57 57 55 55 55
48 48 48 48 48 48 48 48 48 49 49 50 50 50 52 53 53 57 58 55 58 56 44 49 57 58 60 62 61 62 61 61 57 48 40 46 49 48 47 49 48 56 55 49 50 54 55 54 53 52 53 53 54 53
48 48 48 48 48 48 47 48 49 49 49 50 51 52 52 53 55 65 58 57 52 59 51 43 54 54 57 59 57 56 59 57 55 49 41 49 49 50 38 46 51 53 53 54 54 54 53 52 53 54 53 53 53 51
48 48 48 48 47 47 47 48 50 50 50 51 51 51 51 51 58 60 57 55 51 55 47 40 46 52 53 56 52 54 54 48 53 45 42 44 46 51 37 44 48 50 51 52 53 53 50 50 48 52 51 49 47 46
48 48 48 48 48 47 48 48 49 50 50 50 50 51 51 51 51 57 52 49 52 56 53 37 42 47 52 45 43 49 45 49 45 42 42 41 43 43 40 45 48 50 50 49 49 52 50 50 49 46 46 43 39 38
47 48 47 49 48 48 48 48 49 49 50 50 49 50 57 54 55 55 48 49 56 57 39 35 39 38 48 41 42 46 45 37 43 39 40 45 38 37 38 41 46 47 46 46 49 49 46 43 42 42 42 41 39 41
47 47 47 48 48 48 49 49 48 49 49 50 57 57 47 49 48 51 55 52 46 42 40 34 43 37 46 42 39 42 40 37 34 39 42 39 41 39 39 41 44 47 48 48 39 37 39 39 40 41 42 46 46 45
47 47 47 48 48 48 48 49 48 50 52 53 48 43 50 49 55 46 38 38 40 36 41 40 44 39 44 40 36 39 35 36 34 39 38 37 37 37 40 42 45 46 46 45 45 44 43 42 44 44 43 42 43 42
47 47 47 47 47 48 48 48 49 53 51 52 50 51 52 48 42 37 34 37 38 36 38 39 39 41 39 45 39 37 33 36 33 41 36 33 36 38 41 42 44 44 44 44 45 44 44 44 45 44 43 42 41 39
45 46 46 46 46 47 46 47 47 47 49 54 48 38 43 37 35 37 32 35 34 37 37 37 35 39 39 43 35 37 35 33 41 35 35 35 39 39 40 41 43 44 44 44 45 45 44 42 41 40 38 37 35 39
44 45 45 45 45 45 46 46 46 48 51 38 36 34 35 35 34 35 36 37 34 35 37 38 35 37 37 37 36 35 34 36 31 30 31 33 36 36 40 43 43 40 36 41 42 41 37 37 36 34 33 33 33 34
44 44 45 44 45 45 45 46 46 46 42 36 37 32 32 32 33 33 34 35 35 36 38 39 37 41 35 33 34 33 31 30 33 33 34 34 35 39 41 42 41 39 35 38 41 34 32 33 35 35 35 35 33 31
45 44 41 44 44 45 45 46 45 45 37 35 34 32 33 33 32 33 33 33 35 36 37 39 34 34 32 34 33 32 33 32 33 35 34 35 36 41 41 40 40 41 41 40 39 38 35 32 32 34 34 32 30 30
45 41 43 44 45 44 44 42 39 33 33 34 32 33 34 33 32 32 33 33 35 35 33 35 33 31 34 32 30 34 32 34 34 33 34 37 39 40 41 39 35 38 39 38 37 35 34 34 32 31 30 32 32 32
40 44 43 45 47 46 40 38 33 34 31 34 33 32 33 33 33 32 33 33 34 34 35 33 37 31 31 29 31 34 35 34 34 34 33 35 41 41 41 39 38 37 35 34 33 34 32 31 31 31 30 30 30 30
42 42 43 44 46 44 38 36 39 31 32 33 34 34 34 32 33 34 34 35 37 39 38 36 33 33 33 37 35 35 35 35 33 32 32 33 34 33 33 34 33 34 33 33 33 32 32 30 29 29 28 27 25 26
42 42 42 42 46 41 34 35 42 36 32 32 35 33 34 33 33 33 33 35 37 36 33 32 33 32 35 35 39 40 40 40 37 34 32 32 33 33 33 34 33 33 32 31 29 27 29 29 28 26 24 22 21 21
43 42 42 43 40 39 35 35 35 35 34 32 34 34 32 35 34 33 34 37 33 30 30 29 28 29 32 34 38 40 39 40 36 36 35 31 33 34 32 31 30 29 28 26 26 24 23 22 22 22 20 20 19 21
41 41 40 40 35 35 35 37 36 36 34 33 34 35 32 31 31 32 36 32 29 29 30 32 32 33 33 32 34 36 35 35 34 32 31 31 29 28 28 28 28 25 23 22 22 20 20 20 18 18 18 17 19 20
40 41 36 34 32 32 30 38 33 34 31 30 33 30 30 30 32 36 30 31 30 32 32 31 32 34 32 33 32 33 34 33 31 30 30 29 28 27 26 24 24 21 21 20 21 20 18 13 16 15 17 17 17 17
39 31 28 27 30 26 30 29 34 32 33 31 30 26 27 29 32 30 27 28 30 32 30 28 29 28 30 30 29 28 29 30 28 28 28 27 24 23 24 22 21 19 18 18 17 17 16 15 12 15 14 14 14 14
28 25 28 24 28 26 24 26 28 29 25 28 27 26 27 30 26 25 25 26 26 27 29 31 31 29 25 24 25 25 27 29 26 23 23 25 23 22 21 20 19 17 17 16 15 14 13 13 13 13 12 13 11 11
22 25 25 24 25 26 25 24 24 24 25 25 26 26 28 26 21 20 23 24 24 25 25 27 27 25 24 25 24 23 22 25 26 21 20 22 21 20 18 17 18 17 17 15 12 11 11 11 11 10 11 12 11 10
22 23 27 30 30 29 26 27 28 27 24 24 27 25 26 20 18 20 25 24 24 23 24 25 26 24 21 20 21 20 21 22 22 21 20 19 18 18 16 14 12 13 14 13 11 10 9 8 9 9 10 12 12 10
26 27 23 25 26 28 24 25 24 24 26 28 28 22 20 18 17 20 21 23 22 22 20 19 19 20 19 18 20 19 18 17 16 17 17 17 17 15 14 15 13 9 10 10 9 8 9 9 9 10 10 9 8 9
26 28 28 20 24 27 26 25 26 27 27 29 25 20 16 17 16 17 20 21 22 21 18 17 16 17 16 15 14 15 17 18 16 12 12 14 14 14 14 13 13 12 11 10 8 8 10 10 10 8 7 6 7 7
25 28 27 23 22 23 26 28 26 25 25 23 22 19 17 15 15 17 18 17 16 14 14 14 15 16 14 16 13 12 12 13 12 12 11 10 11 12 12 11 11 11 9 8 8 8 8 7 8 8 6 6 6 5
26 28 26 25 23 26 25 27 27 25 23 19 19 17 14 14 15 15 14 14 15 15 15 13 12 12 13 12 13 13 11 12 7 8 9 9 10 10 11 10 10 10 8 7 6 6 4 4 6 4 4 2 1 0
24 20 22 21 23 23 22 24 24 23 21 19 15 15 14 14 10 13 12 14 15 13 5 11 13 12 11 12 10 11 2 10 10 8 7 8 10 11 11 10 9 8 7 6 6 5 3 2 3 3 2 1 0 -2
20 22 21 21 22 21 18 18 18 17 17 15 12 12 11 12 7 11 13 11 12 12 11 11 12 12 8 7 9 10 5 10 6 5 4 3 3 5 7 9 8 7 5 5 5 4 2 2 2 1 1 -1 -2 -3

GFSWCAN_sfc_temp_051.txt.gz
Temp
49 49 49 49 49 49 50 50 50 50 50 49 50 50 50 51 51 56 59 68 64 65 66 66 71 68 70 70 58 62 60 60 58 48 42 51 47 55 55 60 50 48 44 38 44 34 36 65 62 53 60 65 65 65
49 49 49 49 49 49 49 50 49 49 49 50 50 50 50 50 51 54 56 67 72 69 63 67 65 66 69 72 72 64 67 64 65 59 53 53 42 42 53 48 62 51 58 54 54 53 63 67 65 66 65 63 64 63
48 48 49 49 49 48 49 48 49 49 49 49 49 50 50 50 51 56 61 69 72 62 62 64 62 65 69 68 69 65 66 71 67 68 61 56 41 56 40 52 58 61 62 55 54 63 64 65 67 67 67 64 65 64
48 48 48 49 48 48 49 49 49 49 49 49 49 49 50 51 53 55 62 66 65 58 48 54 67 62 67 69 69 69 70 67 67 67 52 45 44 61 54 59 58 62 60 58 57 63 65 63 62 61 62 61 60 60
47 47 48 48 48 47 48 48 48 48 48 49 49 49 50 51 53 58 59 60 64 65 48 51 61 63 67 68 67 68 67 65 63 53 43 50 58 55 56 57 54 63 60 53 51 58 58 57 57 58 58 58 59 58
47 47 47 47 47 47 48 48 48 48 49 49 49 49 51 52 54 59 55 60 64 69 54 45 58 58 63 66 66 66 67 66 64 52 49 57 56 57 42 50 58 59 59 59 58 58 58 56 58 60 57 57 56 54
47 47 47 47 47 48 48 48 48 48 48 48 49 50 52 53 62 57 59 60 57 65 49 41 46 57 59 63 60 62 61 56 60 51 46 53 54 58 41 47 55 55 57 57 58 58 53 56 52 56 54 53 51 51
47 48 48 48 48 48 48 48 49 49 49 50 51 52 52 51 51 55 56 52 54 58 51 38 43 47 58 51 47 58 51 56 49 46 47 46 50 47 45 52 54 55 55 55 55 57 56 54 53 50 49 46 42 41
48 48 49 49 49 49 49 50 50 51 51 51 51 52 60 59 60 56 48 51 60 58 39 37 40 38 54 47 49 49 50 39 50 41 45 49 41 40 43 46 49 51 50 52 55 54 52 48 46 45 45 43 43 44
47 47 48 49 48 48 49 49 49 50 49 49 61 63 52 54 49 51 55 53 50 49 44 38 47 41 50 45 41 44 42 39 36 42 51 42 43 44 46 46 49 51 53 53 46 42 43 42 44 45 47 49 49 48
47 47 48 48 48 48 48 49 49 49 49 61 53 46 54 50 56 49 40 43 46 39 45 45 50 43 48 42 37 41 37 38 34 41 41 40 39 40 45 46 50 52 51 48 47 46 47 45 46 47 46 45 44 44
47 47 47 47 48 48 49 49 51 53 52 54 55 55 56 51 44 40 35 39 40 38 40 39 42 44 42 49 41 38 35 38 34 46 39 36 36 43 44 44 46 47 47 46 46 47 49 49 48 46 44 42 40 41
46 46 46 46 46 47 47 47 47 48 50 59 51 41 45 38 36 35 33 36 35 38 38 39 36 41 41 45 37 38 34 35 44 35 36 38 41 43 44 44 46 48 48 48 48 48 46 42 42 41 38 39 38 40
45 45 45 45 46 46 46 47 48 52 54 40 37 35 36 34 35 36 38 37 36 37 39 40 37 39 40 37 38 33 35 40 33 32 33 37 39 41 44 46 47 44 39 43 43 42 40 38 36 34 33 34 33 34
44 45 45 44 45 46 46 46 47 52 45 37 37 33 33 33 34 34 35 36 36 40 41 39 39 41 37 35 37 34 32 32 35 35 35 36 37 40 43 45 43 40 37 40 41 35 33 35 37 37 36 36 34 31
45 46 42 44 45 45 46 46 46 45 38 35 35 33 33 33 32 33 33 33 38 40 45 44 37 36 34 36 35 34 34 33 33 36 36 36 38 42 45 44 44 45 43 42 41 38 35 33 34 36 36 34 31 31
45 40 43 44 45 44 45 42 40 34 33 33 32 33 34 33 32 32 34 34 37 38 34 38 35 33 38 34 32 38 33 34 35 34 35 38 40 43 44 42 37 40 42 41 40 39 37 36 35 34 33 35 34 34
47 48 44 45 47 44 40 38 35 37 33 34 33 32 32 33 33 32 33 34 36 36 37 35 42 34 34 32 32 35 34 33 33 33 36 39 43 44 44 43 42 41 39 38 37 37 36 34 35 35 34 33 33 33
44 46 43 44 49 43 35 35 38 33 33 35 35 35 35 33 34 35 35 38 39 42 41 40 34 34 34 37 34 34 33 35 33 33 34 35 38 38 39 39 38 38 37 37 37 37 35 33 32 33 31 30 28 29
43 43 43 44 49 43 34 35 44 37 33 34 36 35 35 34 35 35 36 40 42 39 34 33 31 30 33 34 38 39 37 40 38 35 33 34 35 34 34 34 34 36 35 34 32 32 34 33 32 30 28 26 25 24
46 45 45 49 46 43 39 38 36 36 36 35 36 37 34 38 36 35 35 41 34 31 30 30 29 32 35 38 40 40 39 42 42 41 38 34 37 37 36 36 36 35 33 32 31 29 28 27 27 26 25 24 23 25
46 44 43 44 38 37 38 41 38 40 37 35 37 38 33 32 32 33 38 33 30 30 31 33 34 36 37 37 38 39 38 37 36 34 34 34 32 33 33 33 32 29 29 28 28 25 26 25 23 22 23 22 23 24
43 45 39 38 34 34 31 43 34 37 31 32 36 32 31 32 33 40 31 33 31 33 33 34 36 38 36 37 37 38 39 38 35 33 32 32 32 32 30 30 30 28 26 26 27 25 23 19 22 20 22 22 22 22
42 34 30 30 33 28 34 32 38 35 35 33 31 28 29 31 36 32 28 29 31 33 31 30 31 31 33 34 33 33 34 36 33 33 34 32 29 28 28 27 26 24 24 24 24 22 22 20 18 20 20 19 20 18
31 28 31 28 33 30 29 29 29 31 28 30 29 28 29 33 28 28 26 27 28 29 31 33 32 32 29 27 27 27 31 33 30 27 28 29 27 27 26 25 23 22 22 21 20 19 19 18 18 18 17 17 16 15
25 27 28 28 29 29 30 27 27 27 29 28 27 30 31 29 25 22 23 24 25 25 26 28 29 28 26 27 25 24 24 29 29 24 24 26 26 25 23 22 22 20 21 20 18 16 17 17 15 14 15 16 15 15
26 26 30 35 33 33 30 30 32 30 28 27 29 28 28 23 21 22 26 25 25 24 24 25 26 25 23 22 22 23 24 24 24 23 24 23 22 22 20 18 16 17 19 17 16 15 14 13 14 14 14 16 16 15
29 30 26 28 29 32 27 29 28 27 28 31 31 24 22 21 19 22 23 24 24 23 22 21 20 20 20 21 22 22 21 21 21 22 22 22 21 20 19 19 17 12 15 15 13 13 13 13 13 13 14 13 12 14
28 30 30 25 29 29 27 27 27 28 28 29 27 23 19 20 19 21 23 24 26 24 21 20 19 21 20 20 20 21 21 21 20 17 17 18 19 19 19 18 17 17 16 15 14 14 13 11 12 12 11 11 12 12
27 30 29 27 25 25 27 29 26 25 27 27 26 22 20 18 19 22 22 22 20 18 18 19 19 20 19 19 17 17 17 17 15 14 14 13 14 16 16 16 15 16 15 14 13 13 13 13 12 13 11 11 11 10
30 30 28 28 26 26 28 29 28 27 25 23 24 21 18 17 19 19 19 20 20 20 20 18 17 19 17 16 17 17 15 16 13 13 12 13 14 15 16 15 15 15 13 12 11 11 10 9 9 9 10 9 8 6
28 25 26 24 25 27 29 28 28 26 24 23 19 21 20 19 14 16 16 19 19 17 13 18 17 14 15 17 16 16 8 14 15 13 12 12 13 14 14 14 14 14 12 11 10 10 10 8 7 8 7 7 6 4
26 27 27 26 26 25 25 25 25 21 22 19 17 18 17 16 11 15 18 18 16 15 15 16 17 17 14 13 14 15 13 16 13 11 11 9 6 8 9 12 13 12 11 10 10 9 9 8 7 6 5 4 4 3

GFSWCAN_sfc_temp_054.txt.gz
Temp
48 48 47 47 49 49 50 50 50 50 50 50 50 49 49 49 50 50 53 55 52 56 68 72 73 68 69 66 56 62 59 61 57 44 39 48 45 55 54 59 47 43 42 36 43 34 34 66 62 53 59 64 64 65
48 48 49 49 49 49 49 49 50 50 50 50 50 49 49 50 51 51 50 57 59 55 60 68 65 66 66 65 68 62 65 62 62 55 50 51 40 41 50 46 64 49 56 50 49 47 62 67 64 65 66 63 64 62
48 48 48 48 48 49 49 49 49 50 50 50 50 49 50 50 51 50 52 56 59 59 62 65 62 66 69 68 69 62 66 71 67 70 59 54 40 54 39 50 58 62 64 55 54 63 64 65 66 65 65 62 62 62
48 48 48 48 48 48 48 49 49 49 49 49 49 49 50 50 51 50 51 56 58 59 47 55 68 64 68 70 71 70 71 68 67 64 52 43 42 63 52 59 57 61 61 58 58 63 65 60 59 60 61 61 61 61
48 48 48 48 48 48 48 48 48 48 49 49 49 49 50 50 50 51 53 57 59 55 48 51 62 65 69 69 67 69 68 65 61 50 39 50 58 55 57 57 54 64 60 52 50 57 57 55 57 59 58 58 59 57
48 47 47 47 47 47 47 47 47 48 49 49 49 50 49 50 50 52 50 62 64 62 54 44 58 60 66 68 66 66 67 67 63 51 51 56 59 56 41 48 60 61 62 60 57 59 57 56 58 59 55 54 54 52
47 47 47 47 47 47 48 47 48 48 48 48 49 49 49 50 53 52 50 54 52 64 50 40 44 55 62 63 61 61 62 57 59 53 49 53 54 54 40 46 56 58 59 58 59 58 53 56 50 53 52 51 49 48
47 47 47 47 47 47 47 47 47 48 48 48 49 49 50 50 50 51 52 52 53 57 52 37 39 45 57 49 48 55 52 54 49 46 48 47 49 48 44 53 55 56 56 56 56 57 54 53 51 48 48 47 44 43
47 47 47 47 47 47 47 47 48 48 48 49 50 50 53 53 51 50 49 50 58 56 39 36 36 37 54 47 46 47 50 38 48 40 44 49 41 39 48 51 53 52 51 53 55 54 52 48 46 45 45 45 44 45
48 48 48 48 48 47 48 48 48 49 50 50 55 53 42 48 49 49 52 52 48 48 45 40 44 40 48 44 41 42 42 39 36 41 50 42 40 47 48 50 51 53 54 53 47 43 44 43 44 45 47 48 47 45
47 48 47 48 49 49 49 49 50 50 52 58 50 42 49 48 51 47 40 39 42 37 45 47 46 41 48 40 37 40 37 38 35 41 41 39 38 41 48 48 52 52 50 50 50 48 48 47 46 45 44 43 41 39
46 47 47 48 48 47 48 50 50 56 55 55 56 57 55 51 43 38 35 38 39 39 41 41 42 44 42 49 39 37 35 37 34 44 36 36 36 44 45 45 47 47 47 46 46 46 48 48 47 44 41 39 37 36
45 46 46 46 46 47 47 48 50 52 52 57 48 39 44 37 35 34 32 36 35 37 39 39 37 40 42 44 37 36 34 35 44 35 37 37 41 44 44 46 46 47 47 46 47 46 44 42 40 37 35 35 36 35
45 45 45 45 46 46 47 48 49 54 52 40 37 34 35 34 35 35 35 36 35 36 39 39 38 39 39 35 36 33 36 39 33 32 34 37 41 42 45 46 45 43 39 42 42 39 36 35 33 33 31 30 29 31
45 44 45 45 45 46 47 48 49 52 44 36 37 32 32 33 34 34 34 35 35 40 40 39 39 40 36 34 36 34 32 32 36 35 35 38 41 43 43 44 42 38 36 38 38 34 33 34 34 33 33 33 31 27
46 46 42 44 45 46 47 48 47 45 37 35 34 33 33 33 33 33 33 33 36 37 42 43 36 33 34 36 34 32 34 34 34 35 36 39 40 42 43 41 41 42 40 39 37 35 34 32 32 34 33 32 27 26
46 41 43 45 44 45 45 46 43 35 33 33 32 33 33 33 32 32 33 34 37 38 34 38 34 32 38 33 32 34 32 33 34 34 36 39 39 42 43 41 38 39 40 39 37 37 35 35 34 34 32 33 34 32
44 44 44 46 46 43 40 39 37 36 32 34 31 32 32 32 32 32 33 35 38 37 37 35 40 34 33 32 31 33 32 32 33 35 36 38 44 43 43 42 42 41 38 37 36 35 35 34 34 33 33 32 32 31
44 44 44 46 45 40 36 36 40 33 33 34 33 34 33 33 33 34 34 35 38 42 41 40 35 33 32 33 32 32 32 32 31 32 33 37 39 39 38 39 38 37 37 37 37 35 33 33 31 31 30 29 27 28
45 44 44 46 50 39 35 36 43 37 32 34 35 34 34 34 34 34 35 37 39 37 32 30 28 28 31 32 35 35 36 35 34 31 31 33 34 34 34 34 33 34 33 32 32 32 34 32 30 29 26 26 24 23
49 47 47 50 46 44 38 37 35 35 35 33 34 35 33 35 34 33 34 38 33 29 28 30 30 32 34 34 37 40 39 40 37 37 34 32 34 34 34 35 35 36 34 32 30 28 27 26 26 26 25 24 23 24
47 45 45 45 38 37 37 40 36 38 35 35 35 36 33 32 32 32 37 32 28 29 31 31 33 33 32 32 33 35 37 38 38 37 36 36 33 32 32 33 32 29 28 28 28 25 25 24 22 22 22 22 22 24
45 46 40 37 33 34 31 43 34 37 32 32 36 32 32 31 33 40 31 31 30 31 32 32 34 35 33 34 35 35 36 35 32 32 31 31 31 31 30 30 30 28 25 25 26 25 22 18 20 19 21 21 21 21
43 34 31 32 33 28 34 33 37 35 35 33 31 28 29 31 36 32 26 27 30 32 32 31 33 32 32 31 29 30 33 34 32 32 32 30 28 27 28 26 25 24 25 25 24 23 22 21 17 20 19 18 18 17
31 28 32 29 34 32 30 30 31 32 28 31 29 28 29 33 29 27 24 26 26 26 27 31 32 31 28 26 26 26 28 30 28 25 27 28 27 26 25 24 22 21 23 21 19 19 19 19 19 17 16 16 16 15
25 28 28 29 30 30 30 27 28 28 30 28 26 30 32 30 25 20 22 23 23 23 23 25 28 25 23 24 23 22 22 27 26 21 22 25 25 25 23 22 21 17 20 19 17 15 16 16 15 14 14 15 14 14
25 27 31 35 33 33 30 31 33 32 28 27 29 29 29 24 19 21 24 24 23 23 23 24 25 24 22 21 21 21 22 23 23 22 23 22 21 21 19 17 14 13 17 17 15 13 12 12 12 13 13 15 15 14
29 29 25 29 30 33 29 30 29 26 27 29 30 23 21 19 17 21 23 25 24 24 23 22 22 22 21 21 22 22 21 21 21 22 22 21 22 20 19 19 17 15 16 16 14 14 13 12 11 11 11 11 11 13
27 31 32 25 29 28 27 27 26 26 27 28 26 21 18 18 20 22 23 24 26 25 22 21 21 22 21 21 21 20 19 18 20 17 17 17 17 16 18 18 18 17 17 16 16 15 15 13 12 11 11 11 11 12
27 32 30 28 26 24 26 27 23 25 27 26 23 19 17 17 19 23 22 22 21 19 19 20 20 21 20 19 17 16 16 15 14 12 12 11 12 15 16 16 15 15 15 14 13 13 14 13 13 12 12 11 11 10
30 31 29 28 25 27 27 28 28 27 25 23 25 19 16 16 18 19 19 21 21 21 20 18 17 18 16 15 15 15 14 15 14 13 12 13 14 15 15 15 15 15 14 13 12 11 10 10 10 9 9 8 8 8
28 26 27 25 24 27 30 29 28 25 25 22 20 21 20 20 14 15 17 19 18 17 16 17 16 14 15 17 17 15 8 15 14 13 12 10 11 11 12 12 13 13 13 12 11 10 10 9 8 8 7 7 7 5
28 28 28 28 26 26 26 27 25 22 22 20 18 19 17 16 10 14 19 19 16 15 15 16 16 17 16 16 15 15 14 16 14 15 13 10 7 8 9 10 10 9 8 8 9 8 8 8 8 7 6 5 5 4

GFSWCAN_sfc_temp_057.txt.gz
Temp
47 47 48 48 48 48 48 48 48 48 49 50 50 50 50 51 52 50 47 51 50 48 51 58 63 59 60 57 45 50 49 49 46 36 35 34 32 43 42 49 41 37 32 28 32 31 29 56 55 45 48 52 54 53
48 47 47 46 47 47 48 48 48 49 50 50 50 50 50 50 50 52 45 52 54 48 50 57 58 59 60 62 56 53 51 54 51 41 38 38 36 35 39 34 52 37 43 37 39 37 50 54 53 55 55 52 52 52
47 46 46 47 48 48 49 49 49 49 49 50 49 50 50 50 50 51 47 52 51 47 51 54 52 58 64 61 60 51 52 58 55 53 45 41 36 40 34 37 45 51 56 45 46 52 54 52 54 55 54 52 53 53
48 48 48 48 48 48 48 48 48 48 49 49 49 50 49 49 51 51 46 50 51 50 40 49 61 57 61 62 60 59 56 59 56 51 40 37 36 49 39 47 45 50 52 50 48 49 50 50 51 52 53 53 51 50
48 48 48 48 48 48 48 48 48 48 49 49 49 50 49 50 50 50 49 50 52 49 42 46 56 59 63 60 58 61 57 55 50 42 36 38 45 44 44 45 43 52 50 40 37 49 47 46 50 51 49 49 48 46
47 47 47 47 47 48 48 48 48 48 49 49 49 50 49 50 50 49 45 51 52 53 47 38 51 52 58 59 57 58 56 54 50 43 38 45 50 43 34 34 50 51 52 52 48 51 49 47 48 50 47 46 46 44
47 47 47 47 47 47 47 47 48 48 48 49 49 49 49 49 49 48 47 50 50 52 45 37 40 49 54 54 50 50 51 48 48 44 39 43 45 43 36 34 48 51 52 52 53 51 45 46 43 46 45 44 44 43
47 47 47 47 47 47 47 47 47 48 48 49 49 49 49 49 49 50 51 50 49 51 46 35 36 42 52 44 41 47 45 44 43 43 42 36 41 36 35 46 50 51 51 49 48 50 46 46 45 44 43 42 39 38
46 46 46 46 46 47 47 47 47 47 48 49 49 48 49 48 47 50 50 48 52 49 35 34 36 35 48 43 43 42 43 36 43 35 39 40 37 33 43 45 47 48 46 46 47 46 45 42 43 41 41 39 38 38
46 46 46 46 46 47 47 47 47 48 48 48 49 48 42 47 49 48 48 43 39 39 39 36 39 37 45 38 36 36 36 34 33 36 44 35 34 44 44 45 47 48 49 47 40 38 39 40 39 40 40 40 38 36
47 47 46 47 47 47 47 47 48 48 49 50 45 40 47 48 49 41 35 35 37 33 36 41 40 38 44 36 34 35 34 34 32 34 35 34 32 40 45 45 47 48 49 48 46 45 45 43 40 37 36 35 34 32
47 47 47 47 47 47 47 48 48 50 51 50 48 49 47 45 37 36 33 34 36 32 35 37 38 41 37 43 36 34 33 33 30 38 34 28 35 43 44 42 42 44 45 45 46 45 45 43 40 37 35 32 30 29
46 46 47 47 48 48 48 49 49 50 54 51 44 37 38 34 33 32 30 32 33 34 36 35 34 35 37 38 34 34 33 32 36 32 28 31 39 42 42 42 42 44 44 43 41 40 39 36 34 33 31 31 29 28
45 45 45 45 46 47 47 48 50 50 47 37 35 33 33 32 32 32 33 34 33 34 36 35 35 34 34 34 33 33 33 35 30 27 28 34 39 41 43 43 42 38 36 35 35 34 31 30 29 28 27 26 26 27
45 45 45 44 45 46 47 48 48 47 39 34 34 30 30 32 33 33 33 33 34 37 36 35 35 35 33 33 33 32 31 30 30 29 33 37 40 41 40 39 37 35 33 33 34 31 29 29 29 29 28 28 27 22
46 46 42 45 45 46 47 46 44 42 35 33 32 32 32 32 32 32 33 33 35 34 36 35 34 33 32 33 31 31 28 26 30 32 36 39 39 40 38 37 37 37 34 34 33 32 31 29 28 28 28 26 21 20
45 39 44 46 45 46 46 42 39 33 32 32 30 32 32 32 31 32 32 32 35 35 33 33 31 30 33 31 29 31 28 30 32 34 35 38 38 37 38 37 35 35 34 33 32 32 31 31 29 28 27 28 28 26
41 44 46 47 46 44 40 39 35 34 30 31 29 30 31 32 32 32 32 34 34 33 33 31 35 31 30 28 28 30 30 32 34 35 36 39 39 39 40 38 38 36 34 32 32 32 31 29 28 27 27 28 26 26
43 44 45 46 45 39 35 35 37 30 31 32 32 32 32 32 33 33 34 35 35 37 35 34 29 28 28 30 30 30 31 32 31 32 34 35 36 35 34 35 34 33 32 32 30 28 28 28 26 25 25 24 21 20
46 45 45 47 47 36 33 33 39 33 30 31 32 32 32 31 32 33 33 33 33 31 27 26 25 27 28 31 33 32 32 33 32 30 30 31 32 32 31 30 29 29 29 30 29 28 27 25 25 23 20 19 14 13
44 43 45 45 39 37 34 32 32 33 33 32 32 32 31 33 32 31 30 33 29 27 26 29 29 30 32 33 35 35 35 34 33 32 30 30 31 31 30 30 30 29 28 25 25 23 20 19 19 19 12 10 9 10
40 44 36 38 33 33 31 35 33 34 33 32 32 33 31 30 30 30 32 27 26 27 29 29 29 30 30 30 31 33 33 35 34 32 31 30 28 27 27 27 25 23 23 22 22 18 18 19 17 14 8 6 10 10
42 39 34 33 27 27 26 34 30 32 28 30 31 29 29 29 30 32 26 28 27 30 30 31 30 30 28 29 30 30 30 31 29 28 27 26 26 25 24 23 24 21 20 21 22 19 16 15 14 8 8 8 3 4
40 32 25 25 27 25 29 25 30 30 29 28 26 23 25 27 30 25 21 23 25 27 27 29 30 28 27 26 24 25 28 28 26 27 27 25 22 21 21 20 20 20 21 21 19 16 15 9 9 7 4 0 -1 2
23 23 25 19 25 21 19 27 28 26 23 27 25 24 24 28 23 20 19 21 20 19 21 25 24 26 23 22 22 22 25 26 23 20 22 24 22 20 19 19 19 18 19 15 13 11 8 7 4 1 3 -1 4 1
23 27 26 26 27 23 23 23 24 25 24 18 24 26 27 23 14 14 18 19 18 18 18 20 22 19 18 20 18 18 19 23 22 18 18 19 18 19 18 16 13 12 16 14 9 6 6 6 4 3 1 4 3 3
23 24 28 32 30 30 27 26 26 22 19 20 23 22 22 12 11 17 20 20 19 19 20 21 21 19 18 18 19 19 20 20 19 18 19 19 18 18 14 11 7 9 12 10 5 1 0 -0 -2 -3 -3 1 2 1
26 27 24 27 24 27 20 18 17 19 19 23 23 13 9 10 11 18 20 21 20 21 20 20 19 19 18 17 16 17 18 18 18 18 18 18 17 16 13 11 10 13 9 5 1 1 -1 -0 -5 -5 -5 -4 -5 -6
25 28 24 23 23 21 21 19 19 21 23 23 13 12 10 16 18 19 19 20 21 19 18 17 14 16 16 15 14 13 12 11 11 7 4 5 4 5 5 3 4 3 3 3 8 10 8 5 4 1 -4 1 4 -2
23 29 23 17 15 17 19 21 18 22 21 15 16 15 14 13 15 18 18 18 16 15 16 16 15 13 12 12 8 6 5 4 4 -2 -6 -6 -2 1 2 7 2 1 2 -2 -3 -0 5 0 -0 -4 -5 -6 -1 0
26 26 23 20 20 21 21 22 21 20 15 14 15 10 9 10 12 15 14 16 16 17 12 9 9 8 6 4 1 -2 -1 1 2 -1 -2 -2 -2 5 5 2 6 2 -1 6 1 -5 -7 -6 -6 -2 -6 -7 -6 -2
26 22 22 17 20 25 25 23 23 19 17 13 10 8 10 10 4 7 12 13 9 8 6 6 2 -0 -0 1 4 -1 -1 4 0 -2 1 -3 -5 -6 -4 -2 0 4 1 -6 -5 3 -0 -3 -4 0 -2 -3 -8 -9
19 20 21 20 20 16 15 19 14 13 12 9 11 5 3 1 0 6 11 7 3 2 5 7 6 8 6 2 1 4 5 0 1 9 7 3 -3 -1 -6 -8 -9 -10 -9 -9 -8 -9 -7 -2 0 -0 -1 -3 -8 -8

GFSWCAN_sfc_temp_060.txt.gz
Temp
48 47 46 46 46 47 48 48 48 49 49 49 49 48 48 48 50 50 47 50 45 45 47 54 57 53 56 56 44 48 47 46 43 37 35 36 32 41 38 45 39 38 32 28 29 22 29 52 52 45 46 48 49 49
46 46 46 46 47 48 48 48 48 48 48 48 49 48 49 50 52 52 44 49 50 45 45 51 54 55 61 64 55 49 52 48 48 41 38 38 35 33 37 33 46 37 42 36 38 36 48 50 51 50 52 49 48 49
46 46 46 47 48 48 48 48 48 48 48 49 49 49 50 51 52 51 46 48 47 45 46 49 50 57 61 60 60 49 49 54 50 50 45 42 37 38 33 33 41 47 50 42 43 47 46 48 50 51 50 48 48 50
47 47 47 47 47 47 47 47 47 47 48 48 49 49 50 51 51 51 45 48 49 47 39 47 58 55 61 60 60 60 57 54 51 47 39 37 36 45 36 45 42 46 50 46 41 45 47 48 48 48 46 46 45 45
47 47 47 47 47 47 47 47 47 47 48 49 49 49 49 50 50 49 48 49 49 46 40 45 52 56 58 57 57 59 57 53 47 40 35 39 42 43 41 42 41 48 47 40 37 48 45 44 45 47 44 43 43 42
47 47 47 47 47 48 48 48 48 48 48 48 49 49 49 49 50 48 40 47 50 50 41 37 48 51 53 55 54 52 52 51 49 43 40 44 48 41 34 32 46 48 49 50 46 46 45 44 45 46 43 42 42 41
47 47 47 47 47 47 47 47 47 48 48 48 49 49 49 49 49 44 42 49 51 50 42 37 39 49 52 51 48 48 48 46 47 45 41 42 43 41 32 33 46 47 48 47 48 46 41 43 38 42 42 42 42 41
47 47 47 47 47 47 47 47 47 48 48 48 48 49 49 49 50 46 50 50 52 48 46 35 38 42 49 42 41 44 41 42 43 42 41 37 41 36 33 43 46 46 48 47 45 46 43 42 41 40 41 41 38 36
47 46 46 46 46 46 47 47 47 48 48 48 49 48 48 46 45 46 50 49 49 47 35 34 36 35 46 41 41 41 39 35 39 36 37 40 34 32 39 43 44 46 44 41 43 43 42 39 38 39 39 38 35 34
46 46 46 46 46 46 46 47 47 48 48 48 47 44 39 46 51 52 49 44 40 39 38 35 39 37 42 36 35 36 35 34 34 34 42 32 33 40 41 44 45 45 44 43 38 35 36 36 37 37 37 37 36 33
46 46 46 46 46 46 47 46 47 47 47 45 42 39 46 49 48 42 36 35 35 32 36 39 38 38 43 36 34 34 33 33 32 35 34 33 33 38 42 43 46 46 45 44 44 42 41 40 36 34 33 33 32 31
46 46 46 46 46 46 46 47 46 45 46 48 47 48 46 43 36 36 32 33 33 32 36 37 37 37 37 41 35 34 33 32 30 37 34 31 35 41 42 42 44 46 45 44 44 41 40 40 38 34 32 30 29 28
46 46 47 46 47 47 47 47 46 49 48 48 43 40 38 34 32 29 28 31 32 34 36 35 34 35 36 38 34 33 32 31 32 30 30 31 39 41 41 42 42 43 42 42 41 40 38 36 35 32 28 28 28 27
45 46 47 47 47 48 48 48 48 48 45 37 36 32 33 32 31 31 32 33 33 34 35 36 34 34 33 34 33 32 32 33 23 20 27 34 38 39 41 41 38 36 35 35 34 34 32 31 29 28 28 27 26 26
45 45 45 45 46 47 47 46 48 45 36 33 33 29 29 31 32 32 33 33 34 35 35 34 34 35 33 33 32 30 31 28 27 27 32 36 38 39 38 36 34 33 32 32 32 30 28 28 28 28 28 28 26 22
45 46 43 45 46 46 46 46 43 41 34 33 31 32 32 33 32 32 32 33 35 34 35 35 34 33 31 32 31 29 28 26 30 32 35 38 37 37 36 35 35 35 33 31 31 30 29 28 27 28 27 25 21 20
44 39 44 46 45 46 46 41 38 33 33 32 29 32 32 32 30 31 32 32 35 33 32 29 32 30 32 30 28 30 27 29 32 33 36 37 36 35 35 34 33 33 32 32 31 31 30 30 28 26 25 26 27 24
40 43 46 47 45 43 40 39 34 32 29 31 28 30 31 32 32 32 32 33 34 31 31 31 33 30 28 27 27 29 30 32 34 34 35 36 37 36 37 34 34 33 32 31 31 31 30 28 28 27 28 27 25 24
43 44 46 46 45 38 34 35 36 29 30 32 32 32 32 32 32 32 33 34 34 34 32 30 25 24 25 29 29 30 31 32 32 32 33 34 34 32 32 32 32 31 30 30 29 27 27 28 26 26 25 23 19 19
45 45 44 45 45 35 32 33 37 32 30 31 32 31 32 31 32 31 31 31 32 30 27 25 25 27 28 30 32 32 32 32 32 29 29 30 31 30 28 28 28 30 29 28 27 26 25 24 25 23 21 18 13 12
40 40 41 40 36 36 34 32 32 32 32 31 32 32 31 31 28 27 27 31 27 26 25 27 27 28 31 31 32 33 32 32 31 31 29 27 29 29 28 28 28 27 25 23 21 20 20 19 19 18 13 7 9 9
36 42 32 35 30 31 31 34 32 33 32 31 32 32 30 28 27 27 30 25 24 26 28 26 26 26 27 28 29 31 31 31 30 29 29 29 26 25 25 25 23 22 21 21 20 18 17 18 16 15 9 8 11 12
38 35 29 29 24 25 28 33 29 31 28 29 30 28 28 28 30 31 22 23 23 25 28 27 27 27 25 27 28 27 29 28 26 25 24 23 22 22 22 22 22 19 18 19 20 18 16 16 14 12 10 8 6 5
37 28 26 23 22 20 22 25 30 30 29 27 26 23 25 27 28 23 18 19 21 23 24 25 26 25 25 24 22 24 25 26 24 24 24 22 19 19 19 18 18 18 18 18 17 15 14 12 11 9 5 1 -2 -2
22 21 20 17 20 19 15 22 21 23 21 23 22 22 25 27 19 17 15 17 17 17 18 22 22 22 20 19 19 21 23 23 20 17 19 21 19 18 17 16 15 15 16 12 10 8 7 7 5 4 4 -3 4 2
21 20 23 23 22 21 22 20 18 18 15 20 22 23 23 16 12 11 15 16 15 16 16 18 17 16 16 18 16 16 18 21 20 15 16 18 18 17 15 13 12 10 13 9 5 2 3 2 -1 -1 -5 -2 -0 -1
17 17 26 30 28 26 19 20 21 16 13 14 18 16 11 4 6 14 18 18 17 18 19 19 19 17 16 16 18 18 18 18 17 16 17 17 16 15 9 5 5 8 11 7 0 -2 -4 -7 -9 -10 -12 -12 -10 -10
24 24 18 22 16 20 11 9 12 14 14 21 14 4 1 1 8 15 18 19 18 19 18 18 17 15 13 12 12 12 11 13 15 15 14 14 12 10 8 5 4 12 5 1 -1 -1 -4 -2 -4 -5 -7 -11 -8 -7
23 24 19 11 11 12 15 12 13 18 18 17 2 4 6 13 13 16 17 18 19 17 15 14 12 12 10 10 9 8 7 6 4 -1 -6 -7 -5 0 6 6 4 -1 -5 -2 2 5 3 1 1 -6 -8 -10 -6 -5
20 20 13 7 7 10 15 15 14 13 14 9 13 13 11 11 13 16 16 15 12 10 10 10 9 7 4 0 -4 1 -2 -2 -1 -7 -11 -11 -6 -1 -2 -1 -2 -1 -2 -7 -2 -0 2 -8 -6 -7 -8 -6 -8 -14
19 15 12 11 13 14 15 15 17 14 6 8 6 5 3 9 10 13 13 13 12 8 5 0 0 -4 -0 -4 -10 -10 -6 -2 -8 -7 -7 -10 -13 -13 -13 -13 -12 -10 -9 -10 -10 -9 -7 -8 -8 -10 -8 -4 -6 -9
18 14 10 10 15 19 17 14 7 5 2 1 1 -2 0 -1 -3 3 8 4 4 3 -1 -9 -6 -3 -8 -9 -6 -5 -0 -4 -6 -5 -3 -9 -12 -14 -13 -11 -15 -16 -16 -17 -17 -15 -15 -14 -12 -6 -5 -6 -5 -5
9 7 6 9 12 10 16 11 5 5 0 0 3 0 -5 -6 -3 3 7 -2 -2 -6 -5 -4 -1 1 -4 -4 -4 -7 -7 -11 -8 -0 2 2 -2 -4 -12 -15 -15 -15 -13 -16 -18 -15 -13 -15 -17 -18 -15 -16 -14 -14

GFSWCAN_sfc_temp_063.txt.gz
Temp
47 49 49 49 49 48 48 48 48 48 49 49 49 49 49 49 49 46 45 49 45 42 44 49 52 49 51 53 44 46 48 45 40 36 35 34 31 40 39 43 39 38 32 27 26 22 30 50 49 44 45 45 48 47
47 47 48 47 47 47 47 47 47 48 48 49 49 49 49 49 48 47 42 49 49 43 44 50 51 52 52 60 54 47 49 47 47 40 36 37 34 33 36 33 44 38 41 36 38 37 47 49 49 48 49 47 47 47
46 46 46 46 46 46 47 47 48 48 48 48 48 48 48 48 49 47 45 48 45 41 41 44 46 53 56 56 60 48 48 53 49 49 43 40 38 38 35 35 40 45 47 40 42 45 45 46 47 48 48 48 48 47
46 46 46 46 46 46 47 48 48 48 48 48 48 48 48 48 48 46 46 47 45 43 38 45 55 52 58 57 57 58 55 51 49 47 40 37 36 46 39 46 41 45 47 42 39 42 45 47 45 44 43 44 44 45
46 46 47 47 47 47 47 47 47 48 48 48 48 48 48 48 49 48 48 48 49 43 38 42 50 54 55 55 57 56 55 50 45 41 35 38 42 42 39 42 40 47 45 40 39 45 45 45 44 44 43 42 42 41
46 46 46 47 47 47 47 47 47 47 48 48 49 49 49 49 50 47 41 46 49 48 41 35 48 50 53 53 53 53 51 49 47 43 40 42 46 40 34 34 47 47 49 49 48 48 43 43 43 44 41 40 41 40
46 46 46 46 47 47 47 47 46 47 48 49 49 49 49 50 47 44 38 43 49 49 40 35 38 49 51 50 47 47 48 47 46 44 41 42 42 40 31 32 45 45 45 44 44 44 39 41 38 41 41 40 40 39
47 47 47 47 47 47 47 47 47 48 48 48 49 49 49 50 50 44 49 49 50 45 44 34 36 41 49 42 42 44 41 42 43 41 40 38 41 35 36 43 44 44 44 43 42 44 42 40 40 39 40 39 36 35
46 46 46 47 47 47 47 47 47 48 48 49 49 49 46 45 40 44 49 50 50 47 35 33 35 35 46 41 42 39 40 35 40 35 35 39 34 36 42 44 44 44 43 40 41 41 41 38 37 37 37 36 34 33
46 46 46 46 46 46 47 47 47 48 48 49 47 42 37 44 49 49 46 41 40 39 37 34 39 37 42 36 35 35 35 34 33 36 39 30 33 40 41 44 44 43 43 42 37 35 36 35 35 36 35 36 35 33
46 46 46 46 47 47 47 47 48 48 48 41 39 37 47 50 47 41 34 32 34 33 36 39 40 38 42 35 34 34 33 33 33 35 36 33 33 36 40 41 43 44 44 43 43 42 41 39 36 34 33 32 32 31
47 46 46 46 46 47 47 47 47 44 42 44 45 47 46 42 37 34 32 32 32 32 36 36 36 39 36 38 35 33 32 32 32 37 34 32 33 37 39 40 41 42 42 41 42 40 39 38 37 34 32 31 29 29
47 47 47 47 46 47 47 47 47 46 47 47 43 37 38 33 32 32 30 30 31 33 35 35 34 34 35 34 33 33 32 30 34 33 32 33 38 39 40 41 42 43 41 40 39 38 36 34 33 32 29 29 28 27
46 46 46 46 46 46 46 46 46 44 42 37 35 32 32 31 31 31 32 33 33 33 35 35 33 33 31 33 32 31 32 33 27 24 25 33 37 38 39 40 39 36 35 35 33 33 31 30 29 28 28 27 25 26
46 46 46 46 46 46 46 46 46 44 38 33 34 28 29 31 32 32 33 33 33 35 34 33 33 33 33 32 31 32 30 29 27 23 31 35 37 36 35 35 33 32 32 31 32 29 28 28 28 27 27 28 25 22
46 45 43 46 47 47 46 45 42 40 34 32 30 31 32 32 32 32 33 33 34 34 33 33 32 33 31 31 29 24 27 26 27 32 34 37 36 35 34 34 33 33 32 31 30 29 29 27 26 27 27 24 21 21
45 40 44 45 45 45 45 41 37 31 33 31 29 32 31 32 30 31 32 33 35 33 32 26 30 30 32 29 28 30 27 29 31 33 34 35 34 33 33 31 30 30 29 29 28 29 29 28 27 26 24 25 26 23
40 42 45 46 44 43 40 38 32 33 29 31 29 30 31 31 31 31 32 33 33 31 30 32 33 28 27 26 26 29 31 31 32 33 33 33 33 33 33 31 31 30 30 30 29 29 29 27 27 26 27 27 24 24
42 43 44 45 44 39 34 34 35 29 30 31 32 32 32 31 31 31 32 33 31 31 30 28 22 22 24 29 29 30 31 31 30 30 31 32 32 31 31 31 31 30 30 30 29 28 27 27 26 26 25 24 21 20
44 44 43 44 44 35 32 32 35 31 29 31 31 28 29 28 29 30 30 31 32 30 26 23 23 25 27 29 31 31 32 32 31 28 27 28 29 29 29 28 27 26 26 26 26 25 24 23 23 22 20 18 17 15
40 40 41 42 37 36 33 31 32 32 32 31 32 30 27 29 26 25 26 31 27 25 22 23 23 26 28 30 32 31 31 31 29 29 27 26 27 28 27 27 27 26 24 22 20 19 19 19 19 18 14 9 10 11
34 41 31 35 33 32 32 33 32 33 32 31 31 31 27 25 24 24 28 21 20 20 24 24 24 25 25 25 26 28 28 27 26 26 26 26 23 23 22 23 22 20 19 19 18 16 17 17 17 16 13 10 13 13
37 34 29 29 27 28 28 33 30 31 28 29 29 27 27 26 26 29 19 20 20 22 25 26 25 25 24 25 26 26 26 26 23 22 22 21 21 21 20 20 21 18 17 18 19 17 15 16 14 11 10 10 7 6
36 24 19 17 22 18 23 26 30 29 28 26 25 23 25 24 26 20 15 16 18 21 22 22 24 22 22 22 20 21 23 24 22 22 22 20 17 17 17 16 16 16 16 16 14 12 11 9 9 8 5 1 0 -1
21 19 18 13 18 18 15 18 22 25 22 24 22 23 23 25 17 15 13 15 16 16 17 20 19 20 18 17 19 19 21 22 18 16 18 20 17 16 14 13 13 13 14 10 7 5 4 4 3 1 1 -4 2 -3
14 20 20 20 18 18 15 11 17 16 18 20 22 22 20 16 11 9 13 15 14 16 15 17 16 16 15 16 15 15 16 20 18 13 13 15 16 15 13 11 9 8 11 5 3 -1 -3 -6 -9 -9 -12 -8 -7 -12
16 18 24 28 25 24 17 15 18 13 12 13 15 11 9 3 4 13 17 17 16 17 17 17 17 15 14 14 15 15 16 16 14 13 14 13 12 12 8 4 3 7 8 1 -6 -8 -7 -9 -12 -11 -13 -16 -15 -15
23 22 14 13 12 17 8 5 9 10 11 18 8 -1 -4 -3 6 13 16 17 17 17 15 14 13 11 9 9 10 10 12 12 11 11 11 9 7 7 7 7 5 8 4 0 -5 -9 -10 -5 -6 -7 -10 -11 -10 -14
18 21 15 6 7 9 12 10 9 12 14 11 -2 -1 3 9 9 13 15 16 16 14 11 9 7 6 7 6 5 5 5 2 -1 -5 -10 -12 -9 -3 -0 -3 -3 -4 -6 -6 -1 5 3 -2 -7 -10 -10 -13 -12 -10
13 14 10 3 4 6 9 11 6 6 11 8 11 12 10 9 11 15 13 12 9 6 5 5 2 -2 -9 -5 -8 -0 -3 -8 -7 -7 -12 -13 -9 -8 -15 -16 -14 -13 -14 -15 -14 -10 -3 -10 -7 -12 -13 -12 -16 -17
13 12 8 8 10 9 9 11 12 8 4 6 4 5 2 6 6 11 9 7 6 2 3 -2 -5 -13 -5 -10 -14 -13 -8 -4 -9 -10 -10 -14 -17 -18 -18 -17 -18 -20 -20 -20 -20 -19 -17 -18 -19 -18 -17 -15 -12 -11
8 -0 6 5 9 13 11 1 -0 2 -1 -1 -1 -2 -1 -4 -7 2 6 1 2 -2 -6 -11 -8 -4 -10 -9 -11 -10 -7 -11 -11 -9 -7 -9 -12 -16 -16 -15 -19 -19 -19 -21 -22 -21 -20 -20 -21 -22 -23 -21 -20 -18
4 1 -1 3 7 8 12 9 2 1 1 -1 -1 -3 -12 -9 -6 -0 2 -6 -7 -9 -9 -10 -9 -8 -7 -10 -11 -13 -13 -16 -14 -3 -2 -3 -8 -9 -15 -18 -19 -19 -18 -20 -19 -20 -19 -20 -23 -24 -25 -26 -25 -25

GFSWCAN_sfc_temp_066.txt.gz
Temp
48 48 48 48 49 49 49 48 49 49 48 48 49 49 49 50 50 46 43 46 42 40 43 47 48 47 49 48 39 43 46 44 37 35 31 32 30 38 37 42 39 39 33 27 26 24 31 49 47 43 45 43 46 47
47 48 48 48 48 49 49 49 48 48 48 48 49 49 49 49 49 49 41 47 49 44 43 48 48 49 54 54 50 48 47 45 45 39 34 35 33 33 38 34 43 39 43 38 39 38 47 47 48 48 48 47 47 47
48 48 48 48 48 48 49 48 48 48 47 48 48 49 49 49 50 48 43 45 46 41 42 43 43 50 51 51 55 46 44 49 46 48 41 40 36 39 34 35 39 44 46 40 41 45 45 46 46 46 47 47 46 45
45 47 48 48 48 47 47 47 47 47 47 48 48 48 49 49 49 47 42 46 45 42 35 43 54 50 54 54 53 53 52 49 47 45 38 37 36 45 38 44 41 44 47 41 39 43 44 46 45 45 43 44 44 43
45 45 45 45 46 46 46 46 46 47 47 48 48 48 48 49 48 46 46 47 48 43 36 39 48 51 52 52 52 54 52 47 43 39 34 38 41 42 39 41 38 45 44 40 40 49 48 46 44 43 43 42 43 41
46 46 45 45 45 46 46 46 47 47 47 47 48 48 48 48 48 45 40 47 49 47 39 33 47 49 53 52 50 50 53 47 45 41 37 42 45 42 34 33 47 49 48 49 50 48 42 42 41 42 40 39 40 40
46 46 47 47 47 47 47 47 47 47 47 47 48 48 48 48 46 41 39 43 49 48 39 33 36 47 50 50 47 46 45 44 45 42 37 41 41 40 30 32 45 43 44 45 44 45 40 41 39 40 39 39 39 38
46 46 46 46 46 46 47 47 47 47 47 47 48 48 48 49 48 43 47 49 48 45 42 32 36 41 48 43 41 43 40 41 41 41 39 36 40 36 35 43 42 42 43 41 40 42 41 39 38 36 37 37 34 33
46 46 46 46 46 46 46 47 47 47 48 48 48 48 47 44 39 42 48 49 49 45 34 33 34 34 45 41 41 40 40 35 40 36 36 40 34 34 42 43 42 43 43 39 40 41 40 36 35 36 37 35 33 32
46 46 46 46 46 47 47 47 47 47 47 48 46 41 34 39 48 49 45 41 41 41 37 34 39 36 41 36 35 36 35 34 34 36 41 34 35 40 41 43 44 44 42 41 36 34 34 34 35 35 35 36 34 33
46 46 46 47 47 47 48 48 48 48 48 40 38 37 42 49 45 40 33 33 34 33 36 36 39 37 41 35 33 34 33 32 32 34 35 33 34 37 41 41 42 43 42 43 42 40 40 38 36 33 32 32 33 32
46 46 47 47 47 47 48 48 48 43 39 41 43 47 44 42 35 32 32 31 32 32 35 36 37 39 36 39 34 33 33 32 31 37 34 32 34 36 37 37 38 39 39 39 40 38 38 37 36 34 32 30 29 29
46 47 47 46 47 47 47 46 46 47 46 45 42 39 36 33 31 30 29 27 31 33 35 35 34 35 35 36 33 33 32 30 34 33 32 32 37 39 38 38 39 41 39 39 38 37 35 33 33 30 27 28 29 28
46 46 46 46 46 46 47 46 46 45 41 36 34 31 32 31 32 32 32 33 33 33 34 34 33 34 33 33 33 32 32 33 29 27 27 30 36 37 39 39 38 35 34 33 32 32 30 29 27 27 27 27 26 26
46 46 46 46 46 46 45 45 45 43 37 32 32 28 29 31 32 32 32 33 33 34 34 33 33 34 32 32 31 32 30 26 24 22 30 33 35 35 34 34 33 32 31 30 29 27 26 27 26 26 26 26 25 22
46 45 43 46 46 46 45 45 42 40 34 32 31 31 32 32 31 32 32 32 34 33 33 34 32 32 30 30 26 25 21 18 28 31 33 34 33 33 32 32 31 31 30 29 28 28 27 26 25 25 25 23 21 21
45 40 45 46 46 46 45 40 36 32 32 31 29 31 31 31 30 31 32 31 34 34 31 28 30 29 32 29 28 29 26 29 31 31 32 33 31 30 30 30 30 30 29 28 27 26 25 26 25 24 23 25 25 23
40 43 46 45 45 43 40 37 33 32 29 30 28 29 29 29 29 29 31 32 32 32 32 29 32 27 25 25 25 29 30 30 31 31 31 32 31 31 31 29 29 28 27 27 27 27 28 27 26 25 26 25 23 23
41 43 45 45 43 39 33 33 34 29 30 31 31 31 30 29 30 30 31 32 32 33 29 26 22 22 23 28 29 29 30 30 28 29 29 30 30 29 29 28 28 27 27 27 26 25 25 26 26 25 25 24 21 20
43 42 43 44 43 34 32 32 36 32 29 28 29 26 27 26 27 28 27 29 30 27 22 20 20 21 23 27 31 31 30 30 29 26 25 26 28 28 27 26 25 25 25 25 24 24 23 21 21 20 20 19 17 16
42 41 42 42 37 35 32 32 31 32 31 29 30 29 26 27 23 22 22 27 22 21 20 21 21 24 26 27 28 28 28 29 27 27 25 23 25 26 25 25 25 24 22 20 19 18 18 17 18 17 14 12 13 14
34 40 33 36 33 32 32 32 32 33 32 30 30 30 25 23 21 21 25 18 17 18 22 22 22 23 23 23 24 25 25 25 25 24 24 24 21 21 21 21 20 18 18 17 17 15 16 16 16 14 12 11 14 13
36 34 28 29 28 28 27 33 30 31 27 27 28 26 23 22 23 27 16 18 17 20 22 23 23 23 22 23 24 24 24 24 21 20 20 19 19 19 18 18 19 17 15 16 17 15 12 12 11 9 9 8 6 5
34 22 17 16 21 16 23 25 30 29 27 26 25 23 22 22 25 18 13 14 17 19 20 20 22 21 21 20 18 19 21 22 20 19 20 18 15 14 15 14 14 14 14 13 11 9 8 5 4 4 1 -3 -2 -3
21 20 16 12 15 16 13 17 22 24 22 23 23 20 20 23 15 13 11 13 15 15 16 19 18 18 16 16 16 16 19 20 17 14 17 17 14 13 11 11 10 10 11 6 2 -0 -3 -2 -3 -6 -6 -13 -4 -10
15 20 20 17 21 16 14 10 14 17 19 19 19 19 18 14 10 8 12 14 13 14 14 15 15 14 13 14 14 14 14 18 16 11 11 13 13 11 8 6 5 6 7 0 -2 -7 -8 -10 -13 -10 -13 -9 -11 -16
13 16 22 25 22 21 12 13 17 13 11 10 11 11 11 6 6 12 16 16 14 14 14 15 15 14 12 12 13 13 13 12 11 10 10 9 9 9 6 3 2 5 7 0 -8 -9 -9 -11 -13 -14 -16 -18 -19 -15
21 19 9 9 9 13 2 4 6 8 9 14 8 -0 -3 -4 5 13 14 15 14 14 12 11 11 10 8 8 8 8 8 7 9 8 8 6 4 3 2 0 -0 4 -6 -9 -10 -12 -8 -7 -9 -11 -14 -14 -15 -17
11 14 11 2 3 5 7 5 4 8 12 7 -6 -4 1 8 9 11 13 13 13 11 8 5 2 3 5 4 2 0 -1 -5 -4 -7 -13 -15 -13 -6 -8 -12 -12 -11 -13 -11 -4 2 3 -3 -5 -11 -12 -15 -16 -22
11 10 6 -1 -0 1 4 6 1 6 11 7 10 10 8 7 9 12 11 9 7 3 1 -6 -11 -8 -12 -6 -10 -2 -5 -10 -11 -10 -14 -15 -12 -12 -19 -19 -18 -19 -22 -22 -20 -14 -6 -14 -11 -16 -16 -17 -19 -20
7 8 4 3 3 3 8 5 10 7 3 4 3 2 -0 3 4 8 6 2 2 2 0 -6 -7 -16 -9 -14 -16 -13 -9 -8 -14 -12 -12 -15 -17 -19 -20 -20 -21 -23 -24 -23 -23 -22 -22 -23 -25 -26 -24 -21 -21 -24
4 -0 3 2 3 5 2 -6 -4 -0 -1 -3 -2 -5 -6 -7 -8 -2 1 -2 -4 -7 -11 -15 -11 -8 -14 -15 -17 -18 -12 -15 -15 -13 -10 -15 -16 -18 -18 -17 -22 -23 -22 -23 -24 -23 -23 -24 -25 -26 -27 -26 -26 -27
-3 -4 -3 2 4 5 6 4 -2 -0 -2 -3 -3 -10 -15 -11 -8 -4 -2 -12 -10 -11 -10 -11 -10 -11 -10 -13 -15 -18 -16 -19 -17 -3 -4 -7 -11 -11 -18 -22 -24 -23 -20 -23 -25 -25 -23 -22 -24 -26 -27 -29 -28 -29

GFSWCAN_sfc_temp_069.txt.gz
Temp
48 48 48 47 47 47 48 49 49 49 47 49 49 49 49 50 51 48 43 45 43 37 42 44 46 46 49 49 41 43 46 46 41 37 34 36 35 42 41 45 41 41 37 35 34 33 37 52 52 48 54 52 54 53
48 48 48 48 47 47 48 49 49 46 49 49 49 49 49 50 51 50 40 45 46 40 42 46 47 49 54 56 50 49 47 47 46 41 38 38 35 35 42 40 46 40 46 42 44 45 52 53 56 55 54 55 52 54
47 48 48 48 48 48 48 48 47 48 49 49 48 49 49 50 51 49 42 43 42 40 39 42 42 51 51 52 60 46 46 51 47 50 43 43 37 42 36 39 45 47 48 46 47 51 50 51 53 54 53 54 52 53
48 48 48 48 48 48 48 48 48 48 48 48 48 48 49 50 50 49 42 44 43 42 34 40 52 48 55 55 56 56 53 51 50 48 41 37 38 47 42 48 46 48 49 45 45 49 49 51 51 53 51 50 48 48
46 47 47 48 48 48 47 48 47 47 48 48 48 49 49 49 49 47 45 46 46 42 35 38 46 51 52 53 53 55 52 49 47 41 36 41 45 44 43 44 42 49 47 44 44 52 53 57 54 51 49 48 47 45
45 46 46 46 46 46 46 46 47 47 47 47 47 48 48 48 48 43 37 45 47 45 38 33 46 46 51 51 51 52 54 50 48 44 40 45 47 45 38 41 50 51 51 52 53 51 47 44 45 47 47 46 46 45
46 45 46 46 46 46 46 46 46 46 47 47 48 48 49 47 44 40 39 44 48 47 39 33 35 46 50 50 48 47 48 47 48 44 41 44 44 45 36 40 49 47 47 48 47 47 45 45 45 44 44 43 42 42
46 46 46 46 46 46 46 46 47 47 48 48 48 47 47 48 47 44 47 49 50 44 42 32 34 40 47 42 41 46 42 43 43 43 41 42 42 38 38 45 45 44 44 44 43 44 46 42 41 39 41 40 38 36
46 46 46 46 46 47 47 47 47 47 47 48 48 48 45 44 39 42 48 49 48 44 34 33 32 35 45 42 41 40 42 36 41 37 39 43 37 37 45 46 44 44 45 43 41 41 41 40 38 38 38 38 36 35
46 45 46 46 46 46 46 47 47 47 47 47 45 40 34 42 48 48 44 40 40 41 38 33 38 36 42 38 36 37 35 35 34 38 42 37 37 43 45 47 48 47 44 42 37 35 36 36 37 38 39 39 37 36
46 46 46 46 46 46 47 47 47 47 47 42 39 36 42 48 43 39 33 33 34 32 36 38 40 37 41 36 34 35 33 33 34 37 38 35 35 40 42 43 44 44 44 43 43 43 44 41 38 35 34 34 34 34
47 46 46 47 47 47 47 47 46 44 41 42 43 46 44 41 35 33 31 32 33 33 36 36 38 40 36 40 36 33 33 33 32 37 35 33 36 38 39 38 40 41 41 41 42 40 39 38 37 35 33 31 30 29
46 46 47 46 46 46 46 45 45 46 46 44 40 35 35 33 30 29 26 29 31 33 35 35 34 36 35 37 33 33 32 32 35 33 34 33 37 38 38 38 38 40 39 38 37 36 35 33 33 31 28 28 28 27
46 47 47 46 46 46 46 46 46 44 41 34 33 31 32 31 32 32 30 32 33 34 34 35 33 34 33 33 33 32 32 33 31 30 29 34 35 36 37 38 36 33 33 32 31 31 29 28 26 26 26 26 26 25
46 46 46 46 46 46 45 45 45 42 36 31 32 29 29 31 32 32 33 34 33 35 34 33 34 35 32 31 32 32 31 28 29 28 31 32 33 33 33 32 31 30 29 28 29 27 26 26 25 25 26 26 25 23
46 46 43 45 46 46 45 44 42 40 33 32 30 30 32 32 31 31 32 32 34 33 33 34 33 32 31 31 30 28 27 25 28 31 32 32 31 31 30 30 29 29 28 28 27 27 26 24 23 23 24 23 22 22
45 40 45 45 45 45 45 39 37 33 31 30 28 30 29 30 28 29 31 30 33 33 31 33 31 30 33 29 27 28 26 28 30 30 31 31 30 29 29 29 28 28 27 27 26 26 25 26 26 26 24 25 25 24
40 44 46 46 45 43 40 37 33 32 29 30 27 27 28 28 27 28 30 31 32 32 31 29 33 27 24 25 25 28 29 29 30 30 30 30 30 29 29 28 28 28 27 26 27 27 26 25 24 23 24 25 24 24
43 45 46 46 44 38 33 33 34 28 27 29 28 28 29 27 28 27 28 31 32 32 30 27 22 21 22 26 27 29 28 28 26 26 27 28 28 28 28 28 28 27 27 27 26 25 26 26 25 26 25 24 22 21
42 43 43 43 43 33 32 32 37 31 26 27 28 25 25 24 25 25 24 26 28 25 21 19 18 20 21 25 28 30 29 29 28 25 24 26 27 27 26 26 26 26 25 24 24 23 22 21 21 21 21 21 20 18
41 39 42 41 37 34 32 32 31 32 30 27 29 28 25 27 22 20 20 25 19 19 18 20 21 23 25 26 27 28 27 28 26 26 24 22 24 25 24 24 23 23 21 20 19 18 18 18 18 18 18 17 18 18
36 41 34 36 33 33 32 33 32 32 30 29 29 29 24 21 20 19 24 17 16 17 20 21 21 22 22 22 23 24 24 24 24 23 23 23 20 20 20 21 20 18 18 17 17 15 15 16 16 15 14 14 15 13
37 35 29 30 29 29 28 33 29 31 25 26 28 23 22 21 21 25 15 17 16 19 21 22 22 22 21 22 23 22 23 22 20 19 18 18 18 18 17 18 19 16 14 15 16 13 11 11 10 10 10 10 10 9
34 21 17 17 23 20 25 26 30 28 28 26 24 21 21 21 23 17 12 14 16 18 19 19 21 20 20 19 17 19 20 21 19 18 18 17 13 13 14 14 13 13 13 12 10 8 8 6 5 6 5 5 3 4
21 19 16 14 16 14 11 15 19 23 22 24 20 18 19 21 14 12 11 13 14 13 15 18 17 18 15 15 15 15 18 19 16 14 16 16 13 13 11 11 10 11 12 8 5 4 3 2 2 2 3 2 3 2
14 18 12 15 18 13 14 10 13 14 16 15 16 18 18 14 9 8 11 13 12 13 12 15 15 13 12 14 13 13 13 17 15 10 10 12 13 11 9 7 7 7 8 7 6 5 3 2 2 2 3 2 -6 -1
9 13 19 22 19 19 12 13 16 11 8 8 10 11 11 6 6 11 15 15 13 12 13 14 15 13 11 11 11 11 11 11 10 9 9 8 8 8 7 5 3 6 7 4 3 4 3 2 1 -0 -1 1 -1 -2
18 15 5 6 7 11 3 4 5 5 8 12 9 1 1 2 6 12 13 14 13 13 11 11 10 10 9 8 8 9 8 8 8 7 7 5 3 1 -1 -0 -1 1 -1 -1 1 1 2 1 1 -0 -2 -1 -2 -3
10 10 9 -2 1 2 3 2 2 6 10 8 -0 0 2 7 8 11 12 12 13 11 8 6 3 5 5 4 2 1 0 4 4 -2 -3 -3 -3 -0 -3 -4 -3 -4 -5 1 -0 6 3 3 -0 -2 -4 -5 -7 -9
7 8 2 -5 -4 -1 1 4 1 5 11 8 10 9 7 6 8 11 10 9 6 1 -2 -1 -2 -0 -4 1 -2 -0 -3 -5 -3 -1 -3 -4 -2 -1 -5 -5 -4 -6 -8 -4 -3 -1 -2 -5 -3 -6 -7 -7 -8 -7
5 6 2 1 1 4 5 0 8 7 2 3 2 -0 -0 3 6 7 5 4 4 3 2 -2 -5 -9 -3 -4 -4 -3 -4 -3 -8 -5 -3 -4 -5 -4 -4 -6 -8 -10 -9 -8 -7 -7 -7 -8 -10 -10 -9 -10 -12 -12
1 -4 -0 -2 0 3 5 -2 -1 2 2 2 1 -0 -1 0 -1 2 2 3 2 -1 -8 -8 -3 -2 -7 -7 -12 -10 -12 -7 -5 -6 -5 -4 -3 -5 -6 -7 -11 -11 -9 -9 -10 -9 -10 -10 -10 -10 -11 -12 -13 -14
-5 -4 -4 -0 2 2 1 -0 -2 -1 -1 1 -1 -6 -7 -6 -7 0 1 -5 -2 -2 -2 -2 -5 -6 -9 -11 -8 -8 -11 -8 -10 -2 -4 -5 -9 -7 -7 -8 -9 -9 -8 -8 -9 -10 -10 -10 -10 -11 -12 -15 -15 -15

GFSWCAN_sfc_temp_072.txt.gz
Temp
48 48 48 48 48 48 48 48 50 49 50 50 50 50 49 50 50 48 50 56 53 46 48 52 55 49 51 52 47 53 51 52 51 43 39 44 43 50 50 54 49 47 44 41 46 37 39 60 59 57 66 64 68 66
48 48 48 48 47 47 48 48 50 49 50 50 50 49 49 50 49 51 45 53 57 47 47 51 51 52 47 58 56 55 54 55 56 50 48 52 42 44 50 44 57 46 53 52 52 55 65 64 69 69 69 70 65 67
48 48 48 46 47 46 46 48 48 48 49 50 50 50 49 49 49 50 47 48 49 43 47 45 48 54 55 53 59 52 57 62 58 63 54 52 44 52 40 48 53 56 56 53 54 64 64 64 68 62 66 64 66 66
48 47 48 48 47 48 47 47 48 48 48 49 49 49 49 49 49 50 46 49 48 47 38 45 55 51 59 59 57 59 63 61 63 59 53 46 45 59 52 57 55 61 59 57 59 64 59 61 62 66 65 64 61 61
47 47 48 47 48 48 48 48 47 48 49 49 49 48 48 49 49 50 50 52 55 49 38 42 52 53 51 54 56 58 60 59 56 50 40 46 58 54 55 55 54 60 59 53 53 65 62 68 67 64 63 62 62 59
46 46 46 47 48 48 46 47 48 48 48 48 48 48 48 48 49 47 38 49 55 53 41 35 49 47 48 52 54 56 59 59 58 55 51 57 56 55 44 50 62 66 66 66 63 58 60 56 55 54 60 63 62 60
46 46 46 46 47 47 47 47 47 47 47 48 48 48 47 48 50 46 43 49 52 52 38 34 37 47 48 49 53 55 57 57 57 54 48 54 53 54 43 46 63 64 64 59 56 55 58 56 57 53 54 56 54 57
46 46 46 46 46 46 46 47 47 47 47 47 47 47 48 50 49 48 51 48 52 43 41 34 35 37 48 44 43 55 51 53 49 51 46 48 47 46 44 58 63 60 57 55 55 56 56 52 50 50 52 51 49 49
46 46 46 46 46 46 46 46 46 47 47 47 47 48 48 46 44 48 48 49 52 45 35 34 34 32 45 42 44 44 50 39 46 42 46 52 42 42 53 59 58 57 53 58 54 52 50 50 50 49 50 49 47 45
46 46 46 46 47 47 47 47 47 48 48 48 45 39 34 41 47 48 44 40 40 42 41 34 36 32 41 37 36 40 42 37 34 40 49 43 47 56 55 55 56 58 57 52 48 45 45 46 47 47 48 48 47 46
46 46 46 46 46 47 47 47 47 47 48 47 39 37 46 48 45 40 34 34 35 33 39 40 40 35 41 33 34 38 35 36 35 40 42 40 43 49 49 50 52 53 53 51 51 51 50 48 46 46 43 40 38 37
47 46 46 46 46 47 47 47 48 49 45 43 45 50 45 43 40 34 32 34 33 35 40 39 42 40 39 40 36 35 35 33 33 40 39 37 41 43 43 45 47 50 50 48 49 47 47 46 44 41 39 36 34 32
46 47 47 46 46 47 47 47 46 45 46 48 44 37 41 35 30 29 29 31 33 37 38 37 36 40 41 41 34 34 34 33 35 33 32 33 38 39 40 42 42 46 45 44 42 41 38 36 36 35 31 31 30 29
46 46 46 45 46 46 46 45 45 46 44 38 35 32 34 30 33 35 37 37 40 38 38 38 37 38 35 35 34 34 33 34 33 33 30 34 34 35 35 36 35 33 32 32 31 31 30 29 28 29 29 30 29 29
46 46 46 46 46 46 45 46 46 47 40 33 34 31 32 34 34 33 34 35 35 39 39 38 38 37 34 33 34 33 32 30 30 29 31 32 33 33 32 31 30 29 28 28 29 27 27 27 28 28 28 28 28 27
46 47 45 46 46 46 46 47 46 44 37 34 32 30 30 32 31 31 31 32 34 35 36 37 34 33 33 33 32 29 30 26 28 30 32 32 30 30 29 29 29 28 28 27 27 27 27 26 26 26 27 27 25 25
47 42 45 45 45 44 44 44 43 34 33 32 30 30 29 30 27 29 30 30 33 34 33 35 32 31 35 31 27 29 26 28 29 29 30 30 29 28 29 28 28 28 28 28 28 28 28 30 31 30 26 27 28 26
43 45 45 46 45 44 41 39 36 35 29 30 28 28 28 28 27 27 28 31 33 33 33 30 35 29 26 26 26 30 28 29 29 28 28 29 29 29 29 28 29 29 29 29 30 30 30 29 28 27 28 29 28 26
44 45 45 45 44 39 35 34 37 29 27 29 29 29 29 28 27 26 26 30 32 33 30 27 24 24 25 28 27 30 29 28 26 26 28 29 30 30 30 31 31 30 30 30 29 28 29 29 28 29 28 28 26 26
44 43 43 43 43 35 33 33 37 32 27 27 28 25 25 25 25 24 23 26 29 28 23 21 21 23 24 26 31 30 30 30 30 27 26 28 30 29 28 29 28 28 28 27 27 27 27 26 27 27 27 27 25 23
42 40 41 41 38 37 33 33 32 33 32 29 31 30 26 28 24 21 21 26 21 20 20 22 23 25 27 28 30 32 30 32 29 30 27 25 27 28 27 27 28 28 25 25 23 22 23 23 24 25 23 22 22 22
38 41 37 39 36 35 35 34 34 34 34 31 31 31 26 24 23 22 27 21 18 19 23 23 23 25 24 24 25 27 26 26 25 26 25 26 25 25 25 26 26 23 22 22 22 19 19 20 21 21 20 19 20 17
41 41 37 36 33 33 30 38 32 33 29 29 30 26 24 23 24 29 19 20 19 22 24 24 23 24 24 24 24 23 24 23 21 21 21 21 22 23 23 23 24 21 19 19 21 19 16 16 16 16 17 17 17 16
38 29 26 27 30 26 31 30 34 32 32 28 26 22 22 23 26 20 14 16 18 20 21 21 24 22 21 20 20 21 21 23 21 21 21 20 18 17 19 18 18 18 18 18 17 15 15 14 13 14 14 14 13 12
26 22 25 22 27 25 23 24 24 28 24 25 21 20 20 25 18 15 14 16 16 16 18 19 20 20 17 17 17 18 20 21 19 17 19 20 18 18 17 17 16 17 18 16 14 13 12 13 13 12 12 11 10 10
18 20 20 20 21 21 21 18 19 19 22 19 19 21 22 18 13 11 14 16 15 15 15 17 17 15 14 16 15 15 16 20 19 14 16 19 20 18 16 14 13 12 16 16 15 13 12 11 10 10 10 9 6 8
15 17 22 24 22 22 19 19 21 18 14 14 16 16 17 10 9 14 17 17 16 14 16 17 17 15 14 13 14 14 15 16 15 13 14 14 14 15 15 13 10 11 14 13 12 12 11 10 9 9 8 10 9 6
20 19 11 12 12 15 10 10 10 10 12 15 16 8 8 9 10 15 16 17 16 16 14 14 14 14 14 14 15 14 13 12 12 13 13 12 12 10 9 10 7 7 10 9 11 11 10 9 8 8 7 6 5 5
15 18 15 3 8 9 7 7 8 10 13 14 10 8 8 11 13 16 16 17 17 16 13 12 11 13 12 12 11 12 14 16 14 10 9 8 9 7 8 9 9 8 10 11 9 10 8 7 5 5 3 5 4 5
15 18 10 6 4 4 8 10 8 12 16 15 14 12 11 10 11 15 15 15 13 10 10 11 11 13 12 12 9 8 8 10 10 12 10 8 7 7 8 8 7 7 8 8 8 8 5 6 6 6 4 4 4 3
19 18 12 10 7 10 12 13 15 14 13 12 13 10 8 10 12 12 11 12 11 11 11 9 8 11 11 10 10 9 7 7 5 6 8 8 7 8 7 5 6 6 6 6 5 5 5 5 4 3 1 0 -2 -1
16 14 10 7 9 14 14 14 14 13 13 13 10 12 11 11 7 10 9 12 12 10 3 11 10 7 7 6 5 5 2 6 7 6 7 8 8 6 6 6 4 5 5 5 4 3 0 0 2 1 1 -1 -3 -4
15 16 15 13 11 10 13 14 12 11 12 11 9 7 6 8 5 8 8 7 10 12 10 10 9 8 5 5 6 5 4 6 1 4 2 2 -0 2 6 7 6 5 2 4 4 2 -2 -3 -0 -2 -2 -4 -4 -4

GFSWCAN_sfc_temp_075.txt.gz
Temp
48 47 47 48 48 49 49 49 49 50 50 50 49 50 49 50 50 48 46 59 56 50 53 57 57 53 53 52 46 54 51 53 50 43 40 46 46 53 53 57 54 45 45 42 47 39 39 66 63 58 67 74 75 74
47 47 48 48 48 47 48 48 49 49 49 50 49 50 49 50 50 49 43 58 59 50 51 56 56 59 61 61 54 54 54 55 57 51 51 51 47 50 53 45 63 49 54 51 55 55 68 68 70 71 76 74 75 74
46 48 47 48 47 47 47 48 48 49 49 49 49 50 50 50 50 49 48 55 53 45 47 53 52 58 59 58 62 47 56 64 61 65 58 55 47 57 44 50 56 62 67 57 58 64 67 70 71 73 74 73 75 73
47 48 48 47 45 46 47 46 48 48 49 49 50 50 49 49 49 50 50 55 53 50 41 48 62 56 62 58 58 56 56 60 65 65 55 52 48 64 54 58 57 63 64 59 60 65 68 69 70 71 74 71 71 72
47 47 48 47 46 46 48 48 48 48 49 49 49 49 49 48 49 49 55 56 60 53 41 46 56 60 60 59 55 56 53 55 53 53 48 48 60 60 61 60 57 66 62 57 55 66 65 67 70 74 71 71 70 70
47 47 47 47 47 47 47 47 48 48 49 49 50 49 47 47 49 49 38 49 59 54 45 36 50 55 58 57 54 55 56 54 54 56 52 59 65 60 48 50 62 67 70 69 65 70 67 66 64 65 68 70 71 70
47 47 47 47 47 47 48 48 48 49 49 49 48 47 47 49 53 46 43 51 54 57 46 38 41 51 57 56 53 53 55 53 52 54 53 56 59 58 50 47 63 68 70 71 72 65 62 65 66 61 62 63 60 66
46 47 47 47 47 47 47 47 48 48 48 47 46 47 49 49 49 48 52 53 57 49 50 34 37 42 52 46 45 54 48 51 50 52 54 52 55 53 47 59 63 67 69 65 65 65 65 62 60 60 61 60 59 59
46 46 46 47 47 47 47 47 47 47 47 47 47 47 45 45 44 46 48 50 57 52 36 33 34 32 38 43 50 50 52 43 54 47 49 53 48 43 55 59 63 66 65 65 65 62 59 58 58 57 56 56 55 54
46 46 46 46 46 46 46 46 46 46 47 48 47 41 36 45 48 48 43 39 43 46 45 35 40 34 39 33 42 43 46 40 36 41 56 45 47 60 59 59 61 62 63 60 56 54 54 55 54 54 55 56 54 53
47 46 46 47 47 46 46 46 47 48 50 51 44 39 49 48 44 40 34 34 35 34 43 44 41 39 41 34 34 40 37 38 35 44 45 45 46 54 55 56 57 59 60 58 58 58 58 57 54 53 51 50 49 46
47 47 47 47 47 47 47 47 48 50 48 45 47 47 45 41 38 35 33 35 34 37 41 40 40 43 38 37 32 36 36 36 35 45 41 39 38 43 48 50 53 55 55 54 55 53 52 50 47 41 39 36 34 32
46 46 47 47 47 47 47 47 46 46 49 53 46 38 39 36 30 30 28 33 34 39 41 40 36 40 39 35 32 35 34 34 39 35 33 33 36 39 41 44 46 49 48 46 44 43 40 37 37 35 32 32 32 30
46 46 46 47 47 45 46 46 46 48 50 41 36 31 34 30 36 38 41 38 38 38 39 40 36 35 35 32 33 32 34 34 33 32 30 32 33 33 35 35 35 34 33 32 32 31 30 30 29 30 30 30 30 29
46 46 46 46 46 47 47 46 45 47 43 34 37 30 32 34 34 34 35 36 36 39 40 40 38 36 33 33 34 33 32 30 31 30 30 31 32 31 30 30 29 28 28 28 29 28 28 28 28 29 29 30 29 27
46 46 45 45 46 46 46 46 49 48 40 36 33 31 32 34 32 31 31 32 33 34 38 40 34 33 33 34 32 29 30 27 28 31 30 30 29 28 28 28 28 28 28 28 29 29 29 29 28 28 29 28 27 27
47 43 45 45 45 46 46 52 48 35 36 34 30 32 31 32 29 27 27 28 32 33 33 35 32 31 36 32 28 31 26 28 29 29 30 31 29 29 30 30 30 30 30 30 31 31 30 31 31 30 26 27 27 27
45 48 46 46 50 48 47 45 40 36 30 32 30 30 31 30 27 26 26 30 32 33 33 31 36 30 27 27 27 29 28 28 30 30 30 31 31 31 32 31 31 32 31 31 32 32 32 31 30 29 30 30 30 29
46 47 44 44 46 42 37 36 40 30 29 31 32 32 32 30 30 30 28 29 32 32 31 30 26 26 26 28 30 30 30 30 29 30 30 31 31 31 31 31 31 31 31 31 30 30 31 31 31 31 30 30 29 29
43 43 43 43 43 37 33 34 39 33 29 29 31 28 28 27 28 28 27 27 30 28 24 22 22 23 26 30 33 31 31 31 31 29 28 30 31 30 30 30 30 31 31 30 30 30 29 28 29 28 28 27 25 23
42 40 42 42 39 38 34 34 32 32 31 29 30 30 27 29 25 23 23 26 22 21 20 23 24 27 29 31 33 34 34 34 31 30 29 27 29 30 29 30 31 30 28 27 26 24 25 24 25 25 24 23 23 23
39 42 38 40 36 36 35 36 34 34 33 31 31 30 27 24 23 22 25 20 18 21 23 23 26 27 26 26 27 29 29 29 29 30 29 29 27 26 27 27 27 24 24 24 24 22 22 23 24 24 23 22 21 20
43 46 41 39 34 34 31 39 32 34 30 30 31 27 26 25 26 32 20 21 20 24 26 25 25 27 25 25 26 26 26 26 25 25 25 25 26 26 26 26 26 23 22 23 24 21 19 20 20 20 21 21 21 20
42 32 30 30 32 28 34 31 36 34 32 28 27 23 24 26 31 24 18 19 21 25 24 25 27 24 24 24 23 23 24 25 24 23 23 22 21 22 24 23 23 23 23 23 21 20 20 18 18 19 18 18 17 16
29 24 29 26 30 29 27 27 28 30 25 27 24 23 23 30 22 20 17 19 19 20 22 23 24 23 20 20 20 21 24 24 22 20 23 24 23 22 20 20 20 21 23 20 18 17 17 17 17 16 15 13 14 14
20 22 22 23 24 24 24 22 23 23 25 22 22 25 27 24 18 15 18 19 18 18 20 21 19 18 17 19 18 19 20 24 23 19 21 25 25 23 20 18 16 15 21 21 20 17 16 15 14 14 14 12 10 12
19 20 24 27 25 25 23 23 25 22 19 18 21 21 21 15 13 16 20 20 19 19 20 21 21 18 16 16 17 18 19 19 18 17 18 18 18 20 19 16 13 15 18 18 17 17 15 14 13 13 13 14 12 11
23 21 13 17 17 20 14 16 15 14 15 18 21 13 12 13 12 17 18 20 19 19 18 18 18 19 18 18 18 18 17 17 16 17 17 16 16 16 14 13 13 12 13 15 15 14 14 13 13 12 11 10 9 10
19 22 18 8 14 14 12 12 12 14 17 18 16 13 11 14 18 18 19 20 21 20 17 16 16 17 17 17 17 18 20 21 18 14 13 12 12 11 14 14 14 14 16 14 12 12 11 10 9 10 8 10 11 11
18 24 15 12 9 9 11 14 13 18 19 18 17 14 14 13 15 20 20 19 16 14 15 16 18 18 16 15 12 12 14 15 17 17 14 11 10 12 13 12 12 12 14 14 13 12 8 11 11 11 10 9 9 8
26 23 17 16 12 14 16 18 18 18 18 16 18 15 13 14 15 16 16 16 16 16 15 14 15 16 16 16 16 12 9 11 10 12 13 13 13 12 11 11 11 12 12 12 11 10 9 10 10 8 6 4 2 4
22 19 15 12 13 18 20 19 18 17 17 16 14 16 16 16 12 14 14 17 16 13 13 15 13 10 12 13 12 11 11 12 11 11 12 12 12 11 11 11 11 12 11 10 9 9 5 5 8 6 6 3 2 2
22 21 20 18 16 16 18 19 18 15 17 16 14 15 13 14 9 12 15 15 16 16 15 14 13 12 10 11 12 11 12 10 7 8 7 5 3 6 11 12 11 10 7 9 9 8 3 2 5 3 3 2 2 1

GFSWCAN_sfc_temp_078.txt.gz
Temp
48 48 48 48 47 47 48 48 48 48 49 49 49 49 49 50 50 47 45 50 48 43 51 54 51 46 51 52 46 53 50 49 46 40 37 40 40 47 48 53 45 39 38 39 43 36 37 65 62 55 61 67 71 72
47 47 47 47 47 48 48 48 48 49 49 49 49 49 49 49 50 49 42 51 54 46 46 55 57 57 61 61 56 55 52 52 53 47 46 47 42 44 47 39 58 43 48 45 51 50 63 63 65 67 69 69 69 72
47 47 47 48 47 47 47 48 47 48 49 49 49 49 49 49 49 49 44 50 48 43 43 47 50 59 63 62 64 51 55 59 57 61 52 52 44 51 40 46 53 60 62 53 53 59 60 60 59 68 70 67 73 74
47 47 48 48 47 46 45 45 46 48 49 49 49 49 49 49 49 49 45 50 47 43 38 45 61 58 64 61 61 62 59 59 51 51 50 49 44 58 49 54 53 59 61 58 58 62 63 66 63 68 69 72 70 72
47 47 47 47 46 47 47 46 47 48 49 49 49 49 49 50 49 48 49 50 55 50 39 44 56 60 62 61 57 58 55 52 45 44 42 47 54 55 56 56 53 63 60 54 52 63 60 63 69 71 68 69 71 69
47 47 47 46 47 47 47 47 48 48 49 49 49 49 49 49 49 47 38 49 54 53 47 37 54 55 58 59 56 54 55 51 46 44 48 55 62 56 45 47 61 65 67 68 64 68 65 64 65 65 63 67 69 69
47 47 47 47 47 48 48 48 48 48 48 48 49 48 48 49 48 44 43 45 50 56 46 38 42 52 57 55 54 53 54 51 46 45 47 52 55 57 46 43 59 64 67 68 69 68 60 64 61 62 63 63 63 67
46 47 47 47 47 47 47 47 48 48 48 48 48 48 49 50 50 46 51 51 55 53 51 34 37 41 45 46 45 53 48 48 45 45 51 50 54 53 45 56 60 64 66 67 65 65 64 61 62 61 62 62 60 59
46 46 47 47 47 47 47 47 47 47 47 47 47 49 48 46 42 45 50 51 53 49 36 33 35 32 38 40 47 48 49 36 46 40 45 51 47 42 52 57 60 63 62 63 69 66 61 59 59 58 58 58 55 54
46 46 46 46 46 46 46 46 47 46 48 49 49 40 34 42 50 52 46 40 44 45 44 35 44 34 37 35 38 43 45 40 35 41 48 38 45 57 61 63 60 62 62 63 56 54 56 56 55 56 56 56 54 53
46 46 46 46 46 46 47 47 48 49 49 46 41 38 43 49 46 40 34 34 38 34 42 44 42 36 40 34 33 42 37 38 33 42 40 40 42 51 55 56 59 60 59 58 58 57 59 57 54 48 41 38 39 36
47 46 46 46 45 45 45 46 46 49 49 48 45 48 45 40 36 34 32 33 35 35 42 40 40 44 37 41 35 35 36 35 33 48 39 39 36 45 49 51 53 54 54 53 54 50 47 45 42 38 35 32 31 30
46 46 46 46 46 47 47 46 46 48 49 55 47 37 38 34 31 31 28 32 34 41 41 39 35 39 35 37 33 33 33 33 38 37 36 32 35 37 39 42 42 43 43 40 38 37 35 34 34 33 29 29 29 27
46 47 47 46 47 47 47 46 46 50 52 40 35 31 32 30 33 33 36 39 37 40 40 39 35 33 32 32 33 32 33 35 32 30 29 30 31 31 33 34 32 31 32 31 31 31 30 30 29 29 29 28 27 27
46 46 47 47 47 47 47 47 47 52 46 34 36 30 30 32 33 32 34 35 34 37 39 38 35 34 32 32 32 33 32 30 30 28 30 29 30 29 28 29 29 28 28 28 29 28 27 27 27 26 27 27 27 26
47 48 47 45 46 47 46 49 49 50 41 36 32 30 31 33 31 29 28 30 33 32 36 36 32 32 32 33 31 30 31 27 27 29 30 29 28 28 27 28 28 28 28 27 28 28 27 27 26 26 27 27 27 27
48 46 45 45 45 46 47 47 46 36 36 33 29 32 31 31 27 26 26 28 33 32 32 33 31 29 35 30 27 28 24 26 28 29 29 29 28 28 29 29 29 29 29 29 29 29 28 28 28 28 25 26 28 27
47 47 45 46 49 50 48 47 40 37 29 30 28 29 28 28 27 27 28 29 31 32 33 29 33 26 23 24 24 25 27 28 29 29 29 30 31 31 31 30 30 30 30 29 29 30 30 30 29 28 29 29 28 28
44 45 44 44 47 45 38 38 41 30 29 31 32 31 31 29 29 30 28 29 32 31 31 29 23 21 24 28 27 28 29 29 28 29 30 30 31 30 30 30 30 30 29 30 29 29 29 30 29 29 29 29 26 26
43 43 43 43 46 41 33 35 43 35 29 30 31 28 28 27 28 29 28 29 31 27 24 22 21 22 24 30 31 30 30 31 30 27 27 29 30 29 29 29 29 29 29 29 28 28 27 25 26 26 25 24 22 21
42 41 42 44 41 38 34 34 33 34 34 31 32 33 29 31 26 24 24 29 25 22 20 24 24 26 28 29 32 33 32 32 29 29 27 26 28 29 28 29 29 28 26 25 23 23 23 22 23 23 22 22 22 22
40 42 39 41 36 35 34 35 33 34 33 31 31 30 26 24 24 23 27 21 19 22 22 23 24 25 25 25 27 29 29 30 29 29 29 29 26 26 25 26 25 23 23 22 22 21 22 23 24 23 21 18 19 18
43 45 40 39 34 34 31 36 32 33 29 29 31 27 25 24 24 28 19 20 20 24 25 25 25 26 25 25 26 26 27 27 25 25 25 25 26 26 26 25 25 22 20 22 23 20 19 19 20 20 21 21 20 18
43 33 31 31 33 29 35 32 36 33 31 29 27 23 24 25 28 21 16 18 21 24 25 26 26 24 24 24 23 23 24 25 23 23 24 23 22 22 24 23 23 23 23 22 21 20 19 18 18 19 18 17 16 16
28 23 29 27 31 30 28 28 28 29 24 27 25 23 24 30 22 19 17 18 19 21 22 24 24 22 19 19 20 21 24 24 21 20 23 24 22 21 20 21 21 22 23 19 17 17 17 17 15 14 13 13 14 13
20 22 23 23 24 25 24 22 23 23 25 23 23 26 28 24 18 15 17 18 17 19 21 20 19 17 17 18 17 18 19 22 21 18 20 25 24 21 18 16 14 15 20 21 18 16 15 15 14 14 12 10 7 12
19 20 24 29 26 27 24 24 26 22 18 18 21 22 23 16 13 15 19 20 18 19 21 21 20 17 15 15 16 17 18 19 18 17 18 18 17 18 19 15 12 15 18 18 17 17 15 13 13 13 12 12 10 11
23 21 14 19 19 22 17 17 15 13 15 19 21 14 12 12 11 17 18 20 20 19 19 19 20 19 18 18 18 17 17 17 17 17 17 17 17 15 14 14 13 14 13 14 14 14 14 14 13 11 11 9 8 10
20 23 19 10 16 15 13 13 13 16 19 19 17 13 11 16 19 18 20 21 22 20 17 16 16 17 17 18 18 18 20 22 19 14 12 10 10 11 15 14 15 16 15 13 12 12 10 9 9 10 10 10 11 11
20 25 16 14 11 9 12 17 16 18 19 18 17 15 14 14 17 21 20 19 17 16 17 18 18 17 15 13 11 11 13 15 15 17 13 9 9 13 13 13 13 13 14 14 13 11 10 11 11 10 9 9 8 7
26 24 19 17 13 15 17 20 21 20 19 18 18 14 13 13 15 18 18 18 18 18 16 14 13 15 15 15 14 11 8 11 12 13 14 14 13 12 11 11 12 13 13 12 11 9 9 10 10 9 8 6 4 3
24 20 17 13 14 19 20 20 20 17 18 16 15 18 18 17 12 14 16 18 17 15 15 14 12 11 13 13 13 13 12 12 12 12 12 12 11 11 12 12 12 12 11 10 9 9 8 7 8 6 6 6 3 2
23 23 21 19 17 17 19 20 19 17 18 16 15 17 15 15 10 13 17 17 18 16 14 13 13 12 13 13 13 12 10 9 8 8 6 5 2 5 10 11 11 10 9 9 9 8 7 6 5 4 4 2 2 1

GFSWCAN_sfc_temp_081.txt.gz
Temp
48 48 48 48 48 48 48 49 49 49 49 49 49 49 49 50 50 47 43 47 42 38 42 49 48 41 44 45 37 43 41 41 37 32 32 33 29 38 39 44 40 37 35 32 33 30 30 60 58 50 53 59 62 60
48 48 47 48 47 47 48 48 48 48 48 48 49 49 49 50 50 49 41 47 47 42 42 49 51 52 52 50 46 44 43 44 42 38 35 37 30 32 38 30 50 36 41 38 42 40 53 57 55 57 59 58 59 59
47 47 47 47 47 48 48 48 48 47 48 48 48 49 49 49 50 49 43 45 43 40 41 43 44 54 56 51 52 41 43 50 45 50 41 39 34 40 30 35 42 50 53 46 45 52 56 57 58 60 60 58 63 63
47 47 47 47 48 47 47 47 47 48 48 48 49 48 48 49 49 49 43 46 44 38 34 39 52 51 55 51 52 51 50 50 48 47 41 37 32 46 37 44 43 49 52 50 49 55 57 59 60 63 63 63 63 63
47 47 47 47 47 47 46 47 47 47 48 48 49 48 48 49 49 47 46 47 48 42 35 39 48 53 55 54 52 50 49 45 41 37 35 37 42 41 43 45 43 54 50 44 42 55 55 56 59 61 63 62 63 61
47 47 47 47 47 47 46 46 46 46 47 48 49 49 49 48 48 44 39 46 49 48 41 33 48 48 51 52 50 47 47 44 41 39 37 44 49 46 31 36 52 58 59 58 54 59 58 56 56 58 57 56 59 61
47 47 47 47 47 47 47 45 46 46 48 49 49 48 48 48 46 40 38 45 51 49 40 33 34 46 48 49 45 44 46 42 41 40 38 41 41 43 31 33 52 55 58 59 58 58 53 55 52 56 56 58 57 57
47 47 47 47 47 47 47 48 48 48 48 48 48 48 48 49 47 44 47 50 49 45 43 30 31 36 41 38 36 43 39 40 39 40 41 41 44 43 36 48 53 56 58 56 57 56 55 55 54 54 55 53 52 51
46 46 46 47 47 47 47 47 47 48 48 48 47 48 47 44 40 42 49 50 49 43 30 31 28 29 37 36 39 42 40 29 40 33 37 41 37 36 45 50 52 55 54 55 58 55 55 52 52 52 51 50 48 45
46 46 46 46 46 47 47 48 48 48 48 49 46 39 32 41 49 49 43 38 39 39 36 28 35 29 35 34 33 33 34 31 33 35 42 36 35 48 50 51 52 53 54 54 49 48 49 48 45 42 39 39 37 34
46 45 46 46 46 46 46 46 48 49 49 43 39 36 43 48 43 38 32 31 32 30 33 35 35 31 37 31 32 34 33 32 30 34 36 34 32 43 48 49 50 51 49 45 44 44 47 43 38 34 31 31 30 29
46 46 46 46 46 46 47 48 49 46 43 43 42 44 43 40 35 33 30 31 29 28 33 32 32 36 34 37 32 29 32 33 24 37 30 28 34 38 40 40 40 40 39 38 39 37 36 35 33 31 30 28 27 27
46 47 47 46 47 47 47 47 48 49 48 46 41 35 36 32 29 22 26 23 30 30 34 33 33 34 34 36 33 31 30 30 35 26 27 30 33 34 36 35 34 35 34 33 32 32 31 30 30 29 27 27 27 26
46 47 47 46 47 46 47 47 47 48 44 35 31 30 31 29 30 30 31 31 33 35 33 34 34 33 32 31 32 29 33 33 28 29 26 29 29 29 31 32 31 29 30 29 29 29 28 28 27 27 27 27 26 24
47 47 47 45 46 47 47 47 48 46 39 32 32 27 27 31 31 29 31 32 31 33 35 34 33 33 31 31 31 32 29 29 25 22 25 27 28 28 28 28 28 27 27 27 27 26 25 26 25 25 25 26 25 24
47 48 44 46 46 46 47 48 45 42 36 29 29 27 29 29 26 25 25 27 31 30 32 34 32 31 31 32 29 25 26 20 23 25 25 27 26 27 27 27 27 27 27 26 26 26 25 25 24 24 25 25 25 25
48 42 45 46 47 46 48 44 38 34 32 30 24 27 27 27 23 24 26 26 30 29 32 32 28 26 31 27 22 23 19 23 25 25 27 27 27 27 27 28 27 27 26 26 26 26 25 26 25 25 23 25 26 25
42 43 45 45 46 48 42 42 33 32 25 28 25 24 26 26 24 25 26 28 29 30 31 27 30 24 21 21 20 24 25 27 27 27 27 28 29 29 29 27 27 27 27 27 27 27 26 26 25 24 25 26 25 24
42 42 43 44 43 40 35 33 34 26 26 28 28 29 28 26 27 26 27 29 30 29 29 25 20 18 19 26 24 25 26 27 25 26 27 28 28 28 27 27 27 27 27 26 26 25 25 26 25 25 25 25 22 21
44 43 43 44 45 36 32 31 36 30 27 27 28 25 25 24 24 24 25 27 28 25 21 19 19 20 22 27 28 27 27 27 26 24 24 25 27 27 26 26 25 25 24 25 24 24 23 21 22 22 20 18 18 18
42 42 43 42 38 36 33 32 30 31 31 27 29 27 25 25 21 20 20 26 21 18 18 21 21 23 27 29 31 30 29 28 26 26 24 23 25 25 24 24 24 24 22 21 20 19 19 17 17 17 17 16 16 16
39 42 38 39 34 34 33 34 31 33 30 29 28 27 22 19 19 19 24 18 18 19 21 21 22 23 23 23 25 27 27 27 27 26 25 25 22 21 21 21 21 18 18 18 18 17 18 19 17 15 13 13 13 13
42 41 34 34 31 31 30 34 31 31 27 27 28 24 22 20 22 27 16 18 19 23 23 23 23 24 23 23 24 24 24 24 22 22 22 22 22 22 21 21 20 17 15 16 18 16 15 13 14 14 13 11 10 9
39 29 27 28 30 27 31 28 31 29 28 25 24 20 22 23 25 18 13 15 19 22 22 22 22 21 21 21 20 20 22 22 21 20 21 19 18 18 20 19 19 19 18 17 15 13 12 10 7 8 6 5 4 4
19 17 22 22 24 26 25 24 23 24 18 22 20 18 20 25 18 15 13 15 16 18 19 20 20 19 16 16 17 18 22 21 18 17 18 20 18 18 17 17 17 18 18 13 10 8 6 4 2 3 3 1 5 2
13 18 16 18 18 19 20 16 19 18 19 18 19 22 21 14 9 8 13 13 13 15 17 16 15 13 12 14 13 14 16 19 18 13 13 20 19 15 13 11 10 11 16 12 8 4 4 4 2 1 -0 1 -1 -1
11 15 21 26 24 23 17 16 20 13 8 9 14 12 14 5 4 11 15 16 15 16 17 17 16 14 12 12 14 14 15 15 14 13 15 14 13 14 13 9 8 10 13 11 9 6 3 1 3 2 -3 -8 -7 -8
17 16 7 15 11 16 9 9 8 7 9 15 15 4 0 4 5 13 14 16 16 17 17 17 18 17 15 15 15 15 14 15 15 14 14 13 13 12 10 9 11 12 7 7 6 5 3 -0 -1 -2 -4 -9 -9 -9
17 17 13 3 7 8 9 8 9 13 15 14 8 4 5 14 14 14 16 18 19 17 15 13 14 15 14 13 13 13 14 14 13 8 6 4 4 6 7 8 10 8 4 5 9 2 1 -3 -6 -6 -6 -7 -5 -8
15 18 8 3 2 4 7 14 9 9 12 10 12 12 11 11 15 17 17 16 15 15 16 15 15 13 10 9 7 7 10 11 12 10 6 3 4 5 5 3 2 3 4 4 -3 -3 6 -4 2 -7 -8 -8 -11 -12
20 16 10 9 6 9 9 9 13 15 13 8 7 5 4 6 9 14 15 16 16 14 12 10 10 11 10 9 8 5 4 8 8 8 8 7 4 3 -0 -0 0 -1 -4 -5 -5 -9 -9 -7 -9 -9 -9 -11 -12 -13
15 10 5 2 5 9 14 14 13 9 9 4 4 5 8 6 3 6 12 14 13 11 11 10 9 8 10 9 10 9 8 5 3 2 3 3 -1 -3 -3 -2 -3 -5 -7 -7 -9 -9 -9 -10 -10 -11 -12 -11 -12 -13
13 12 10 7 6 8 9 14 11 10 11 7 2 4 3 3 -0 6 12 16 13 11 9 8 9 9 9 8 6 4 3 -0 0 3 -1 -3 -7 -1 -0 -3 -4 -8 -7 -8 -8 -9 -9 -9 -12 -11 -13 -14 -15 -16

GFSWCAN_sfc_temp_084.txt.gz
Temp
48 48 48 48 48 48 48 49 49 49 49 49 49 49 49 50 50 47 43 45 40 34 38 44 47 41 42 42 36 40 39 38 34 29 28 29 26 36 36 40 36 33 31 26 31 27 28 54 54 48 50 56 57 59
48 48 48 48 48 48 48 48 48 49 49 49 49 49 49 49 50 50 41 46 46 38 38 44 50 53 51 51 45 44 40 41 40 34 30 33 30 31 36 31 47 35 39 34 37 37 50 54 54 55 56 56 57 56
47 47 47 47 47 47 48 48 48 48 48 48 48 49 49 49 49 49 43 44 42 38 37 38 40 52 55 50 51 40 40 47 42 44 38 36 31 38 30 34 40 46 49 41 42 50 52 54 57 59 59 59 60 59
47 47 47 47 47 47 48 47 48 48 48 48 48 48 49 49 49 49 43 44 43 38 32 38 49 49 55 52 49 49 46 46 45 42 38 34 30 43 37 42 41 47 49 44 44 51 55 56 58 59 61 61 61 59
47 47 47 47 47 47 47 47 47 47 48 48 48 48 48 48 49 47 45 45 46 39 33 34 45 51 54 52 49 49 47 43 40 36 33 35 39 39 39 41 42 48 45 41 40 53 52 57 58 59 58 58 59 61
47 47 47 47 47 46 47 47 47 47 47 47 48 49 49 48 48 43 37 44 48 45 38 31 45 46 48 50 49 46 47 44 41 37 35 40 46 43 34 32 47 52 53 54 52 58 56 56 54 56 56 55 56 57
46 47 47 47 47 46 47 46 46 47 47 48 48 48 48 48 45 38 37 41 48 47 36 33 34 43 49 48 45 42 44 42 39 36 34 37 39 44 34 32 46 50 54 55 56 55 50 52 51 54 54 53 52 51
46 47 47 47 47 46 46 46 47 47 48 48 48 47 48 48 47 42 44 49 49 42 38 31 33 35 41 37 36 40 36 37 37 36 35 35 38 38 31 43 48 52 54 54 55 55 54 52 52 51 51 49 43 40
47 47 46 47 47 47 47 47 48 48 48 48 48 47 45 43 40 43 49 50 48 40 31 27 26 29 36 36 38 37 36 30 36 30 32 36 33 31 40 43 47 50 53 52 52 52 51 50 49 47 45 41 36 34
46 46 46 46 47 47 47 47 47 47 47 47 45 38 32 41 49 48 42 36 37 39 33 24 31 30 35 32 34 35 31 27 28 34 38 29 31 43 45 45 44 43 45 51 46 44 44 40 38 36 35 34 32 31
46 47 47 47 47 47 47 47 48 49 48 41 38 33 43 48 43 36 32 31 32 31 31 32 32 31 36 29 31 29 31 27 27 30 32 33 32 39 44 43 40 39 40 40 41 41 41 38 34 30 29 29 29 28
46 47 47 47 47 47 48 48 48 44 41 42 42 43 42 39 34 31 28 30 29 28 30 31 31 33 32 34 29 31 30 32 27 34 28 30 33 36 36 36 36 36 36 36 36 34 33 32 31 29 28 27 27 27
46 46 46 46 46 47 48 48 49 48 47 45 39 34 35 30 24 19 21 26 23 31 31 32 32 34 34 35 31 31 28 29 34 27 26 29 32 33 33 33 32 34 33 32 31 31 30 29 29 28 26 27 26 25
46 46 46 46 46 46 47 47 47 47 42 34 28 27 26 26 28 27 30 31 31 32 29 32 33 33 32 31 32 28 29 32 29 27 27 28 29 29 31 31 30 28 29 28 28 28 27 27 25 26 25 25 25 23
46 46 46 45 46 47 47 48 47 43 36 28 29 22 24 28 27 27 29 30 29 31 33 33 33 33 31 30 31 30 29 27 25 24 25 27 28 28 27 28 27 27 26 26 26 25 24 25 24 24 25 25 25 23
47 45 43 45 46 47 47 46 42 40 33 28 25 23 25 23 23 25 25 26 29 29 32 33 31 30 29 30 27 22 23 19 20 21 25 27 27 27 27 27 26 26 26 25 25 25 25 24 23 23 24 24 23 22
45 38 44 45 45 47 46 40 36 30 27 23 21 25 23 21 19 24 25 26 30 28 31 31 25 23 29 24 19 23 17 20 24 25 26 26 26 25 26 25 25 25 24 24 25 25 24 25 25 24 22 23 23 23
40 39 44 45 45 42 38 36 31 28 23 24 20 19 24 23 22 23 24 27 28 29 28 25 27 22 20 19 16 22 24 25 26 26 27 27 27 27 27 26 26 26 25 25 25 25 25 24 23 22 22 23 22 22
41 41 44 44 43 36 31 31 31 23 23 22 25 26 23 23 24 24 24 27 29 29 27 24 18 17 18 24 23 24 25 25 23 23 24 26 27 26 26 26 25 25 25 25 25 23 24 25 23 23 23 22 19 19
44 44 43 44 43 32 28 30 32 27 23 24 25 22 22 20 22 21 23 24 25 24 20 18 17 19 20 25 26 25 25 26 25 22 22 23 25 24 23 23 23 23 23 23 22 22 21 20 20 21 21 19 15 14
42 41 42 40 35 35 33 30 29 29 29 26 26 27 21 24 20 19 20 25 20 18 17 19 20 23 27 27 28 27 26 27 24 23 21 20 22 23 22 22 23 22 20 19 18 17 17 16 17 17 15 14 13 13
38 42 35 37 33 32 32 32 30 32 27 27 27 26 20 17 15 17 23 18 17 18 20 19 20 22 22 23 24 25 25 25 24 23 23 23 19 19 19 19 19 17 18 18 18 15 15 15 15 14 12 11 11 9
41 39 34 34 31 30 29 34 28 30 24 25 26 22 18 18 20 25 14 18 18 22 22 21 21 22 21 22 22 22 23 22 20 20 20 19 19 19 18 18 18 16 15 15 17 15 13 14 12 11 10 9 7 4
36 26 26 24 27 24 28 26 30 28 27 24 23 19 21 19 22 15 11 13 16 20 20 19 20 19 20 20 18 19 20 21 19 19 19 18 16 16 18 17 17 17 16 15 13 11 11 9 8 8 6 4 2 0
18 15 18 13 21 22 21 20 20 22 17 20 17 16 21 23 15 12 10 12 14 15 16 16 15 16 15 15 15 16 19 20 17 16 18 18 17 16 15 16 15 15 15 10 7 6 4 4 4 3 2 1 1 -4
10 14 12 13 13 15 16 9 12 11 11 14 14 19 15 9 5 5 10 11 12 13 13 14 13 12 11 13 12 13 14 18 17 12 14 18 17 15 12 11 10 10 13 9 7 4 3 2 2 0 -2 -2 -4 -5
4 6 16 22 19 19 11 10 14 7 2 4 8 5 4 -1 1 9 13 14 13 14 15 16 15 13 12 12 13 13 13 13 13 12 14 13 13 13 11 8 6 8 10 8 6 5 4 -1 -3 -4 -9 -14 -13 -9
11 12 2 5 6 11 0 2 4 4 5 12 9 -1 -5 -3 2 10 12 14 15 16 16 16 16 15 14 13 14 13 12 13 13 13 13 12 11 10 9 9 10 10 5 4 3 2 2 -0 -3 -7 -5 -9 -13 -18
7 10 8 -2 -0 2 6 2 2 8 11 10 -4 -2 1 10 11 12 13 14 17 16 13 12 12 13 11 11 11 11 12 13 9 5 3 2 3 5 6 5 4 2 2 4 7 2 1 -2 -6 -7 -11 -10 -15 -19
6 8 1 -5 -4 -0 4 5 4 -0 7 5 10 11 9 9 12 16 16 15 13 12 13 12 11 10 8 8 7 7 9 9 9 6 2 1 1 1 0 3 2 -1 -5 -4 -7 -6 3 -5 -5 -12 -11 -11 -13 -15
10 5 1 -0 1 4 3 -3 4 7 1 -1 -4 -1 -2 5 9 13 13 14 13 12 10 8 8 9 8 8 6 5 3 6 6 6 6 4 2 0 -0 -2 -5 -4 -7 -9 -13 -14 -15 -13 -15 -16 -16 -16 -18 -19
1 -5 -2 -5 -0 3 6 8 -1 -0 -3 -2 2 -6 -1 -2 -3 5 11 10 10 9 9 9 7 7 8 7 5 5 5 2 2 2 2 0 -3 -5 -5 -6 -11 -10 -13 -14 -15 -15 -15 -15 -17 -18 -17 -16 -18 -19
1 -1 -5 -3 -2 0 2 7 1 3 2 -5 -3 -2 -3 -4 -4 2 10 12 8 7 7 7 7 7 5 4 2 1 1 -1 1 3 -1 -2 -4 -5 -12 -16 -14 -14 -9 -12 -16 -17 -15 -14 -17 -18 -20 -20 -21 -22

GFSWCAN_sfc_temp_087.txt.gz
Temp
46 47 47 48 48 48 48 48 48 48 49 49 49 49 49 49 49 47 44 46 41 36 38 44 45 40 40 41 33 39 38 36 32 27 23 27 24 32 33 38 35 33 32 30 31 27 26 50 50 42 47 52 56 57
47 47 47 47 48 48 48 48 48 48 48 49 49 49 49 49 50 48 41 46 46 38 38 43 44 46 49 50 43 43 41 40 38 31 29 30 26 26 32 28 42 32 39 35 37 34 45 50 54 56 56 55 55 55
47 47 47 47 47 47 48 48 48 48 48 48 49 49 49 49 50 49 43 43 41 35 36 37 37 46 50 50 51 40 40 47 44 44 35 34 30 34 26 31 38 43 47 39 40 46 47 50 53 54 56 57 60 59
47 47 47 47 47 47 48 48 48 48 48 48 48 48 49 49 49 49 43 44 43 37 31 33 47 43 49 49 50 50 49 47 46 42 36 31 29 39 33 38 39 44 46 43 41 47 49 54 55 55 58 60 59 60
46 46 47 47 47 47 47 47 47 47 48 48 48 48 48 49 49 48 46 45 47 39 28 30 41 46 50 49 48 48 48 45 41 38 34 35 36 37 36 36 36 46 45 38 39 50 48 51 57 57 55 57 58 59
47 47 47 47 47 47 47 47 47 48 48 48 48 48 48 48 49 43 34 43 48 42 35 29 39 41 45 48 46 46 45 45 42 39 36 37 42 38 29 31 43 51 50 50 48 53 52 52 54 55 55 51 54 56
46 47 47 47 46 47 46 46 47 47 47 47 48 48 48 48 45 37 35 41 47 43 37 30 33 40 46 46 45 42 44 43 42 39 36 36 39 41 32 28 44 47 48 49 50 51 48 51 51 50 50 47 46 45
46 46 47 47 46 46 46 46 46 47 47 47 48 47 47 47 45 41 43 47 47 41 38 29 32 36 42 38 37 42 39 39 39 38 37 36 36 34 29 39 45 49 49 49 50 51 52 50 49 46 45 42 38 36
46 46 46 47 47 47 47 47 47 47 47 47 48 48 45 41 38 41 47 48 45 41 31 30 29 28 38 37 39 37 39 32 34 31 32 35 30 29 37 40 42 42 41 43 51 48 47 45 44 42 40 37 33 31
46 46 46 46 46 47 47 47 47 47 47 47 44 38 32 41 48 47 41 37 38 38 35 28 33 31 36 33 32 32 28 27 29 33 36 31 30 38 43 42 41 40 40 40 43 41 40 37 36 34 33 32 30 29
46 46 46 47 47 47 47 47 48 48 47 42 36 36 43 48 40 35 31 31 32 30 32 33 33 32 36 30 31 28 30 27 25 29 30 32 31 35 39 38 38 38 38 37 37 40 41 37 32 29 28 29 28 28
46 46 47 47 47 48 48 48 48 43 40 42 42 44 42 38 33 30 28 30 28 28 29 32 30 33 33 32 30 31 26 31 26 33 30 28 32 36 36 35 35 36 35 34 34 32 32 31 30 28 28 26 26 26
46 46 46 48 48 47 47 47 47 47 47 44 40 34 33 29 22 21 23 27 25 25 29 33 30 34 34 33 29 30 27 25 32 30 27 30 32 33 33 33 32 32 32 31 30 30 30 29 29 28 26 26 25 24
45 46 46 46 46 46 47 47 47 46 41 33 28 21 20 19 25 25 28 30 30 31 31 33 32 32 32 29 30 27 27 32 27 24 26 28 29 29 30 31 31 28 28 27 27 27 27 26 25 25 25 25 24 22
46 46 46 45 46 47 48 46 46 41 35 27 28 21 21 26 26 26 28 29 29 31 33 32 32 33 31 27 29 28 27 24 27 25 24 27 28 28 27 27 27 26 26 25 25 24 24 24 23 23 24 24 23 21
46 45 43 44 45 46 46 44 41 39 31 27 24 22 23 22 21 23 24 25 29 28 32 34 31 29 25 27 26 22 21 17 18 22 25 27 26 26 26 26 26 26 25 24 24 24 24 23 22 22 23 22 22 21
44 39 44 45 46 45 45 39 35 30 27 23 20 23 22 18 20 22 23 24 28 28 30 30 24 22 28 22 19 22 17 20 22 24 26 26 25 24 25 25 24 25 24 23 23 24 23 24 24 23 20 21 21 20
37 38 44 45 44 41 38 35 30 28 23 23 18 19 20 19 18 18 21 25 27 28 27 23 26 21 18 18 18 22 24 25 25 25 25 25 25 25 25 24 25 25 24 24 24 24 23 22 21 20 21 21 20 19
40 41 44 44 41 35 30 30 30 21 20 21 22 21 19 17 21 23 24 26 28 28 26 23 18 16 17 23 22 22 23 23 21 22 23 24 25 25 25 25 25 24 24 24 24 22 22 23 22 21 20 20 17 17
44 43 43 43 41 31 28 28 30 25 18 19 19 19 19 19 21 21 23 24 25 23 18 16 16 18 20 24 25 24 24 25 23 20 19 21 23 23 22 23 22 22 22 21 21 21 20 19 19 19 18 17 15 13
39 39 41 38 33 34 32 26 28 26 25 22 22 24 19 23 19 18 19 25 19 17 16 17 18 23 25 25 26 26 25 25 22 21 20 18 21 22 21 21 21 21 19 18 17 16 16 15 16 16 13 11 11 11
37 42 33 37 32 33 31 32 30 30 26 26 25 25 20 16 15 17 22 17 16 17 18 18 19 20 20 21 22 23 23 23 22 21 21 21 18 18 18 19 19 17 17 16 16 14 14 15 14 12 10 9 9 8
39 37 32 33 30 29 28 33 28 29 24 24 25 20 16 14 18 24 13 15 15 18 19 19 20 21 20 21 21 21 21 21 19 19 18 18 18 18 18 18 18 16 14 15 16 14 12 12 10 8 7 5 3 1
36 25 23 22 25 22 28 25 29 26 25 24 22 19 19 17 21 14 10 12 14 17 16 15 18 18 18 18 16 18 19 20 18 18 19 17 15 15 16 15 16 15 15 14 13 11 9 7 7 5 3 0 -1 -3
19 15 16 14 20 19 15 15 16 19 14 18 16 16 19 21 12 9 7 10 12 12 14 15 14 14 13 14 15 15 18 19 16 15 17 17 16 15 14 14 14 13 14 10 7 6 3 5 3 2 0 -1 -2 -7
9 12 12 12 14 14 14 6 7 7 7 9 10 14 11 6 3 3 8 9 11 12 12 13 13 12 10 12 11 11 13 17 16 12 12 17 16 14 12 10 9 8 11 8 7 4 3 1 1 -1 -4 -5 -7 -10
3 3 14 19 17 17 8 9 12 6 3 1 4 -0 -2 -7 -2 7 13 12 12 13 15 15 14 12 11 11 12 12 13 13 12 11 13 12 12 12 11 9 6 7 10 7 5 4 1 -3 -5 -6 -11 -16 -15 -10
10 11 2 3 4 10 -1 1 1 1 4 10 6 -3 -4 -5 2 10 11 14 14 15 14 13 13 13 12 12 13 12 12 12 12 13 12 11 10 8 7 7 8 8 2 1 1 -1 -2 -5 -6 -9 -8 -11 -16 -21
3 6 6 -5 -2 2 4 -2 1 7 9 7 -8 -5 0 8 9 9 12 15 15 14 11 10 11 12 11 11 10 10 11 11 7 4 2 2 2 3 4 3 3 1 1 3 6 -0 -2 -6 -8 -8 -11 -12 -21 -23
3 5 -2 -7 -4 -0 -1 -2 -2 -1 6 5 9 10 8 8 11 15 14 12 10 10 10 10 10 9 8 8 7 6 7 7 8 6 1 0 0 1 -2 0 -0 -4 -3 -0 -0 3 3 -7 -7 -15 -13 -16 -19 -19
5 1 -2 -1 1 1 -3 -8 -2 1 -4 -4 -9 -4 -1 3 5 10 11 9 9 8 7 6 6 7 7 7 5 3 2 4 5 5 6 4 2 -1 -4 -6 -7 -6 -4 -5 -11 -14 -16 -18 -20 -20 -18 -19 -21 -21
-3 -9 -4 -4 0 3 3 -3 -6 -6 -9 -6 -6 -11 -6 -8 -9 -2 8 5 6 5 6 4 3 2 3 4 3 3 3 0 0 1 1 -0 -2 -4 -3 -5 -9 -8 -9 -12 -17 -17 -16 -17 -19 -20 -20 -20 -21 -22
-5 -7 -9 -6 -1 -1 1 4 3 0 -3 -4 -3 -5 -7 -9 -7 -1 4 6 2 3 3 3 3 1 0 0 -0 -1 -2 -2 0 3 -0 -1 -4 -5 -9 -14 -15 -13 -11 -18 -20 -19 -18 -17 -21 -21 -22 -23 -24 -24

GFSWCAN_sfc_temp_090.txt.gz
Temp
46 46 46 46 46 46 47 47 47 48 48 48 48 48 48 48 48 46 43 46 40 34 38 42 44 40 40 39 33 39 37 34 33 29 26 26 25 31 31 35 33 29 30 30 32 30 28 48 46 38 45 49 52 53
45 46 46 47 47 47 47 48 48 48 48 48 48 48 49 48 48 48 40 46 46 38 37 44 46 50 49 48 43 42 37 37 37 32 28 28 24 25 31 26 39 30 36 34 35 35 47 49 51 53 53 51 51 53
46 46 47 47 47 47 48 48 48 48 48 48 48 49 49 49 49 48 43 44 42 34 35 37 38 46 48 48 52 38 37 44 41 44 37 33 27 31 24 28 34 39 44 37 38 45 47 48 52 52 54 53 54 57
46 46 47 47 47 47 47 47 47 47 48 48 48 48 49 49 49 49 43 44 41 37 31 34 44 41 48 48 47 46 46 46 45 43 37 34 28 37 30 35 33 38 41 40 40 47 50 51 52 53 54 56 55 56
46 46 46 46 47 47 47 47 47 47 48 48 48 48 49 49 49 47 45 44 46 38 31 31 40 44 49 46 46 48 46 43 40 37 34 33 37 36 34 34 32 41 40 35 35 48 45 47 51 54 51 52 50 52
47 47 46 47 47 46 47 47 47 47 48 48 48 48 48 48 49 44 36 43 47 46 35 28 37 38 43 45 44 44 45 44 41 37 34 35 41 38 30 27 40 46 47 47 46 48 46 49 49 49 49 46 44 43
46 47 47 47 46 46 46 46 47 47 47 48 48 48 48 48 45 37 35 41 47 45 35 27 27 37 41 41 40 41 43 42 42 39 36 37 36 40 27 31 39 44 45 46 47 46 45 47 45 45 44 44 43 40
46 47 47 47 47 47 47 46 47 47 47 48 48 48 48 48 45 40 43 47 48 40 38 25 23 35 40 34 36 40 37 40 39 37 37 36 38 34 31 36 42 46 48 47 47 48 48 45 43 42 42 40 35 34
46 46 46 46 47 47 46 46 47 47 48 48 48 48 43 40 37 41 47 48 45 39 30 29 21 28 39 37 39 38 39 31 36 33 34 36 33 30 35 39 40 43 43 46 46 47 45 41 40 39 38 37 33 31
46 46 46 46 46 46 46 45 48 47 47 44 42 35 32 40 47 46 41 37 36 38 35 25 33 30 36 34 33 32 34 32 30 33 35 32 32 36 40 42 43 41 42 42 39 40 38 35 33 32 31 32 30 28
46 46 46 47 47 46 46 47 47 47 46 41 38 36 42 48 40 36 31 30 32 29 32 32 32 32 35 31 31 32 31 30 23 28 29 30 30 34 37 37 35 36 37 37 37 35 38 35 30 28 28 29 29 28
47 47 47 46 46 46 47 48 47 43 42 43 42 44 41 37 33 28 24 29 30 27 32 30 32 34 33 35 32 31 28 30 24 31 30 28 30 35 36 34 35 34 32 32 32 31 30 30 29 28 27 26 26 25
46 46 46 45 46 47 47 47 48 48 46 43 37 31 32 29 25 25 16 25 26 29 32 32 30 32 33 31 30 30 26 26 31 29 29 29 32 32 33 32 31 32 31 30 29 29 29 28 28 27 25 25 24 23
45 46 46 45 46 47 47 47 47 44 39 32 27 23 20 12 19 24 26 29 29 31 32 29 31 31 32 30 30 25 23 29 27 24 26 28 29 29 30 31 30 28 28 27 27 27 26 25 24 24 23 23 22 21
46 46 45 44 46 47 46 46 45 39 32 25 26 17 21 25 25 26 27 28 28 30 32 30 32 32 29 28 29 28 26 24 26 19 21 27 28 28 27 27 27 26 25 25 25 24 23 23 22 21 22 22 21 20
46 45 42 44 45 46 46 43 39 36 29 24 21 19 21 21 19 22 22 24 28 28 31 33 30 27 26 25 27 23 22 18 14 19 23 27 26 25 25 25 25 25 24 23 23 23 22 21 20 20 21 21 20 20
44 38 43 44 45 45 44 37 34 28 24 21 18 21 20 18 18 19 20 23 27 27 28 28 24 20 25 20 19 21 16 19 20 21 23 24 24 23 24 24 23 23 23 22 22 22 21 22 21 20 17 18 19 18
38 39 43 45 44 41 37 34 29 27 22 22 18 18 19 18 17 17 21 23 26 28 26 22 25 20 17 17 17 21 22 22 24 24 23 24 24 24 25 23 24 24 23 23 23 23 22 21 19 18 18 18 17 17
39 41 43 44 41 35 31 29 29 19 19 20 18 19 19 18 22 23 24 25 27 27 25 22 17 15 16 21 21 21 21 22 20 21 21 23 25 24 24 24 24 23 23 22 22 21 21 21 20 19 18 18 15 14
43 43 43 43 41 30 28 27 30 23 15 17 18 18 18 19 21 21 22 23 23 21 16 14 14 16 19 23 24 23 22 22 21 19 18 20 22 22 22 21 21 21 21 20 20 19 18 17 18 18 17 16 13 12
39 38 41 37 32 33 31 26 26 22 21 20 22 22 19 22 18 17 17 23 18 15 14 16 16 19 23 23 24 24 23 23 21 21 19 18 20 21 20 20 21 20 18 17 16 15 15 14 14 14 12 11 11 10
34 41 30 34 30 32 30 31 29 27 23 21 23 24 17 15 15 16 20 14 13 13 15 17 17 19 18 19 20 21 21 21 21 20 21 21 17 17 18 18 18 16 16 15 15 13 12 13 12 11 10 9 9 8
37 36 31 32 27 25 28 33 25 28 23 23 24 19 15 14 17 23 12 13 13 16 16 17 19 18 18 19 20 19 20 20 18 17 17 17 17 18 17 17 17 15 13 14 15 12 10 10 9 7 6 5 4 3
35 24 22 21 24 20 26 23 27 25 24 22 20 16 16 16 20 14 8 10 13 15 15 15 16 17 17 16 15 16 18 19 17 17 18 16 14 14 15 14 14 15 15 14 12 10 8 6 6 5 4 2 1 -0
17 13 15 11 19 17 15 13 14 17 14 16 16 13 15 19 10 8 6 9 11 11 12 14 14 14 12 12 14 14 16 18 16 14 16 16 15 14 13 13 13 13 14 10 8 7 5 5 4 3 2 0 -1 -5
6 9 9 10 10 10 11 5 5 6 6 7 8 10 8 4 2 2 7 8 10 11 11 11 12 11 9 11 10 10 11 16 15 11 11 15 16 14 12 11 10 8 11 10 7 5 3 3 1 -0 -2 -4 -6 -10
3 5 13 17 16 15 6 8 10 5 2 1 3 -2 -1 -6 -4 6 12 12 11 11 13 13 13 11 10 10 11 12 12 12 11 10 12 11 11 11 11 9 7 7 10 8 7 5 3 -0 -2 -4 -10 -17 -17 -13
10 10 -1 -1 3 8 -3 -2 -2 -1 2 9 3 -5 -6 -6 0 9 11 13 13 13 12 12 12 12 11 12 12 12 12 12 12 12 12 10 9 7 7 7 8 9 4 3 1 1 1 -1 -5 -8 -8 -12 -18 -24
0 4 4 -5 -2 0 2 -1 1 5 7 5 -10 -6 -0 7 7 9 11 13 14 12 10 9 10 11 11 10 9 8 9 10 8 6 4 3 3 3 4 3 3 3 3 5 7 0 -1 -4 -7 -8 -13 -14 -22 -27
0 3 -3 -8 -6 -4 -4 -2 -2 -2 5 5 8 9 7 6 9 13 11 10 8 6 7 7 8 7 6 6 5 5 5 5 7 6 4 2 3 2 1 1 -1 -2 0 3 3 0 1 -8 -9 -16 -17 -19 -21 -21
1 -2 -4 -2 -2 -2 -5 -11 -9 -4 -5 -6 -9 -5 -3 -1 4 7 8 7 7 6 5 3 3 3 2 3 1 2 1 3 4 5 5 3 2 0 -2 -5 -7 -4 -3 -2 -5 -11 -17 -20 -22 -20 -18 -19 -21 -21
-6 -13 -6 -5 -0 0 -3 -11 -12 -11 -13 -10 -7 -13 -11 -8 -9 -1 6 3 4 2 3 2 2 -1 -1 -1 0 1 1 0 0 1 1 0 -2 -4 -5 -5 -7 -4 -5 -11 -16 -16 -17 -18 -21 -22 -21 -21 -23 -23
-9 -11 -12 -8 -5 -5 -3 1 -0 -4 -6 -8 -8 -11 -14 -13 -8 -3 2 4 0 -1 -1 -2 -4 -4 -1 -1 -2 -3 -2 -3 -1 3 0 -2 -4 -4 -10 -16 -14 -12 -11 -17 -21 -20 -19 -19 -22 -22 -24 -24 -25 -26

GFSWCAN_sfc_temp_093.txt.gz
Temp
46 46 46 46 46 46 46 46 47 47 47 47 48 48 48 48 49 46 42 46 39 34 37 41 44 39 40 40 33 39 37 36 34 30 30 30 29 34 34 38 36 33 29 29 31 28 26 50 49 42 43 48 53 55
46 46 45 45 46 46 46 46 47 47 47 47 47 47 47 48 48 48 40 45 45 38 37 44 46 50 49 48 43 42 38 38 37 34 33 34 30 32 35 30 42 33 40 36 34 34 45 50 50 53 55 51 54 53
46 46 46 46 47 47 47 47 47 47 47 48 48 49 48 48 48 47 42 44 41 37 34 38 38 46 49 51 53 39 42 46 39 44 36 34 29 36 30 33 38 42 46 40 40 46 48 50 54 54 55 53 57 57
46 46 46 46 46 46 47 47 47 48 48 48 48 48 48 49 48 48 42 44 41 36 31 35 45 42 51 50 50 49 48 48 48 44 37 34 32 37 35 40 39 45 45 42 41 46 49 52 53 54 54 57 56 58
45 46 46 46 46 46 47 47 47 47 47 48 48 48 48 49 49 47 44 44 44 40 32 33 40 44 48 47 46 47 46 45 42 37 33 33 37 37 38 37 37 45 44 39 38 48 47 49 52 53 52 49 49 52
46 46 47 47 47 47 47 47 47 47 47 47 48 48 48 49 49 43 36 43 45 43 35 30 40 40 43 45 44 44 44 43 41 37 36 39 43 40 32 32 43 48 50 50 47 53 50 50 52 51 50 47 45 45
46 46 47 47 47 47 47 47 47 47 47 48 48 48 48 48 45 38 36 42 47 45 35 30 31 38 42 43 42 40 44 42 40 36 34 37 39 41 33 32 44 47 48 49 50 49 47 51 50 48 47 44 43 42
46 47 47 47 47 47 47 47 46 47 47 48 48 48 48 48 46 40 44 47 48 39 38 27 27 34 41 35 34 40 38 40 39 37 37 36 39 39 33 41 46 49 50 49 49 51 51 52 46 44 44 43 39 37
46 46 46 46 46 46 46 47 47 47 48 48 48 48 45 38 34 40 47 48 46 40 31 30 25 26 38 36 38 38 40 32 39 33 35 36 35 31 38 41 44 46 45 47 48 47 49 46 44 42 41 38 34 31
46 46 46 46 46 46 45 47 47 48 48 48 43 34 31 38 47 46 41 35 36 38 35 29 32 29 36 35 33 32 34 32 28 33 38 33 35 43 44 45 46 45 46 46 43 44 42 40 37 35 36 35 33 31
46 46 46 46 47 46 46 45 45 46 46 38 34 35 42 48 41 36 31 31 32 30 32 33 33 31 37 32 32 34 32 32 27 32 32 32 32 37 39 39 37 37 38 38 39 38 40 41 35 32 30 31 31 30
46 46 46 46 47 47 46 46 46 44 42 42 41 43 42 37 33 29 28 31 30 28 32 31 33 35 34 36 33 32 30 30 26 34 31 29 34 36 37 35 35 35 34 33 35 34 34 34 33 32 30 29 28 26
45 46 46 46 47 48 48 48 48 48 47 43 37 33 34 27 21 19 22 26 27 30 33 33 31 33 33 34 31 30 28 28 33 30 29 32 31 33 33 33 32 33 32 31 30 31 31 30 30 29 26 26 25 22
45 46 46 46 46 46 46 46 46 44 40 31 26 17 18 16 20 22 26 27 29 30 32 32 31 31 32 30 31 27 29 31 27 26 27 27 29 30 30 31 30 28 29 28 28 28 27 26 24 24 23 23 21 19
46 45 45 44 46 46 45 45 44 38 32 24 25 16 17 23 23 25 26 29 28 30 33 32 33 33 30 29 31 29 26 25 27 24 22 26 28 29 28 27 26 26 25 24 24 23 22 22 22 21 22 22 21 19
46 45 42 44 45 45 45 42 39 35 28 22 19 17 19 21 19 21 21 24 27 27 31 33 30 27 27 29 27 23 24 22 19 22 24 27 26 25 25 25 25 24 23 23 22 22 21 20 19 19 19 19 18 17
44 38 43 44 45 44 44 37 34 28 25 21 17 21 20 18 16 18 20 23 27 26 28 28 23 20 27 22 19 22 17 21 23 24 24 24 24 24 24 24 23 23 22 22 21 21 20 21 20 19 16 17 17 17
37 38 44 45 44 42 36 34 30 27 19 20 17 19 21 20 19 19 22 25 26 28 27 22 26 20 17 16 17 22 23 22 23 24 24 24 24 24 25 24 23 23 22 22 21 21 20 19 18 17 17 17 16 16
39 40 43 44 41 35 32 29 30 18 18 19 20 21 21 20 22 23 23 25 26 26 25 22 17 15 16 21 22 22 22 22 20 21 22 23 25 24 23 24 23 22 22 22 21 20 20 20 19 18 17 17 14 13
43 43 42 42 40 31 28 27 30 23 16 19 21 20 20 19 20 21 20 22 24 21 15 13 13 16 18 21 24 23 23 23 22 19 19 21 22 22 21 21 20 20 20 19 19 19 18 17 18 18 17 15 13 12
39 38 40 36 32 32 30 28 23 23 21 21 22 23 20 22 18 16 16 21 16 13 13 15 15 18 20 21 23 24 22 23 21 21 19 18 21 21 20 20 21 20 18 17 15 15 15 14 15 15 13 12 12 12
32 40 30 34 30 31 30 29 28 25 24 23 23 23 17 15 15 15 19 13 11 12 14 14 16 17 18 18 19 21 21 21 21 21 21 21 18 18 18 18 18 16 16 15 15 13 13 13 13 13 11 10 10 10
36 34 29 30 25 23 27 32 24 27 21 22 23 18 16 15 17 22 11 13 12 15 15 16 17 18 17 18 20 19 20 19 18 18 17 17 18 18 18 18 17 15 13 13 14 12 10 11 10 9 9 9 8 6
34 23 19 18 21 15 23 19 26 24 22 22 19 15 16 16 19 13 8 10 12 14 14 15 16 16 17 16 14 15 18 19 17 17 17 16 14 14 15 14 15 15 15 14 12 11 10 9 9 8 7 6 5 4
17 11 14 10 17 14 12 11 13 16 13 15 14 12 13 17 10 8 6 8 11 10 11 14 14 12 12 12 13 13 16 17 15 14 16 17 15 15 13 13 13 14 15 12 9 8 7 8 7 7 6 6 4 2
5 9 9 9 10 10 10 6 6 7 7 8 8 9 10 7 3 3 6 8 10 10 10 11 12 11 9 10 10 10 11 16 15 11 11 14 16 15 14 13 12 10 13 12 10 8 7 7 6 5 3 2 0 -0
-0 1 11 15 14 14 6 7 10 5 3 2 4 1 2 -3 -1 6 12 12 11 12 13 13 13 11 10 10 11 12 12 12 11 10 12 12 11 12 13 12 9 10 13 12 11 10 7 6 4 3 -0 0 1 1
9 9 1 0 3 6 -3 -2 -1 -0 2 8 4 -3 -4 -4 1 9 11 14 14 14 13 13 13 12 11 11 12 13 13 13 13 13 13 12 10 9 9 9 10 10 9 9 9 8 7 6 3 2 2 1 -4 -7
-1 3 4 -6 -2 -1 -0 -2 -1 4 6 3 -7 -3 1 6 8 10 12 13 14 12 10 10 10 12 11 10 9 9 9 10 11 8 6 6 6 6 6 7 7 8 8 8 8 6 5 3 2 2 -0 -1 -5 -7
-1 3 -3 -8 -7 -4 -1 -1 -1 -1 4 6 8 8 6 6 8 11 10 9 8 6 7 8 8 9 8 8 7 6 6 6 7 9 6 4 4 4 5 5 5 6 8 6 4 4 5 1 1 -3 -4 -5 -3 -3
-0 -1 -3 -3 -2 1 -3 -9 -8 -5 -4 -3 -6 -4 -2 -1 6 7 6 7 7 7 6 4 3 2 3 2 3 4 3 4 5 6 6 5 4 3 2 1 3 4 4 3 2 1 -1 -2 -2 -2 -2 -3 -6 -5
-6 -12 -5 -5 -1 -2 -3 -9 -12 -8 -6 -4 -5 -9 -7 -4 -5 2 5 5 5 3 2 3 2 -0 1 2 1 2 1 1 1 2 2 2 1 0 1 1 1 2 2 1 0 -1 -2 -2 -3 -3 -3 -4 -6 -7
-10 -12 -12 -7 -5 -5 -2 -2 -2 -6 -7 -6 -6 -12 -14 -9 -8 1 5 4 3 2 1 -1 -1 -1 -1 -1 -0 -0 -0 0 1 3 -0 -1 -3 -2 -2 -2 -1 -0 -1 -3 -3 -3 -3 -5 -6 -7 -8 -8 -9 -10

GFSWCAN_sfc_temp_096.txt.gz
Temp
47 47 47 47 46 46 46 47 47 47 47 48 48 48 48 49 49 47 45 49 42 35 40 45 45 39 37 38 33 38 38 40 36 30 32 33 33 39 38 43 39 35 32 29 31 29 28 54 48 38 44 53 57 54
46 46 46 46 46 46 46 46 46 47 47 47 47 48 48 48 49 48 40 47 47 39 39 47 49 50 50 50 43 42 41 40 39 37 38 40 35 38 40 34 50 38 45 42 40 38 52 55 48 50 52 53 57 51
46 46 46 46 46 47 47 47 47 47 47 47 47 47 48 48 48 47 42 43 41 36 35 38 39 47 53 54 57 40 45 48 45 48 39 39 34 44 34 39 43 50 53 45 44 50 50 49 48 51 56 59 57 59
46 46 46 46 46 46 46 47 47 47 47 48 48 48 47 47 48 47 42 43 41 36 31 37 49 46 54 54 55 54 51 53 51 47 37 36 35 44 41 43 43 50 52 48 47 51 53 55 56 58 60 59 56 56
45 45 45 45 46 46 46 46 47 47 47 47 48 48 49 49 48 47 45 44 44 41 34 39 47 49 52 52 50 52 50 47 44 38 35 35 43 43 45 44 42 52 49 45 44 54 53 53 58 59 58 59 56 53
45 45 46 46 47 47 47 47 47 47 47 48 48 48 49 49 48 43 34 43 46 45 36 34 49 45 48 49 48 48 49 47 43 37 37 38 47 43 37 39 50 55 57 57 52 58 57 57 58 60 58 55 52 52
45 46 47 47 47 47 47 47 47 47 47 47 48 48 48 48 46 38 38 44 46 44 36 33 39 45 49 47 47 46 48 43 40 36 36 38 45 44 39 35 49 53 56 57 59 58 53 57 56 58 55 51 49 48
46 47 47 47 47 47 47 47 47 47 48 47 48 48 48 48 45 41 49 47 47 40 39 32 36 40 48 42 40 47 41 42 38 38 38 37 40 38 34 46 50 54 56 56 57 59 58 58 58 55 54 51 47 43
46 46 46 46 46 46 46 46 47 48 48 48 48 48 45 39 37 41 47 47 47 44 33 32 32 31 44 43 46 43 45 35 45 36 37 40 38 34 44 48 50 53 53 54 58 57 57 56 55 52 49 47 43 37
46 46 46 46 46 46 46 47 47 47 48 48 41 34 32 37 47 46 41 35 37 39 39 35 43 32 40 36 36 36 39 36 31 38 44 34 38 48 51 52 53 51 52 53 50 50 54 51 49 46 47 45 41 35
46 46 46 46 45 45 46 47 47 47 47 39 33 35 42 49 44 37 32 33 34 32 36 41 42 37 41 34 34 39 32 35 30 37 35 36 37 46 52 51 48 45 46 47 48 48 49 49 48 44 41 40 38 34
46 47 47 46 45 45 46 47 47 46 43 41 42 44 44 37 34 32 31 33 33 34 35 33 38 44 37 41 36 34 33 32 29 39 33 34 37 38 41 40 40 40 39 40 42 42 43 43 45 42 39 35 32 29
45 48 47 45 45 46 48 48 48 48 50 50 43 33 36 32 29 29 25 29 29 36 34 34 33 36 36 38 35 33 30 31 40 31 33 33 32 34 34 35 35 35 34 34 34 38 39 38 38 37 30 29 27 25
46 46 46 46 45 44 43 45 45 46 44 35 32 24 29 27 28 31 33 33 33 34 34 36 33 36 36 33 34 29 32 34 29 28 30 28 30 32 33 33 33 31 30 30 30 31 30 29 28 27 26 25 23 21
46 45 46 45 45 46 45 45 44 45 39 30 31 22 24 27 29 29 31 32 32 32 35 35 35 34 32 31 33 31 28 28 31 27 27 30 31 31 31 31 29 28 26 25 25 24 24 24 23 22 23 22 21 20
46 47 45 45 45 45 45 45 45 42 34 28 25 25 27 28 26 27 28 29 31 30 33 35 32 29 29 31 28 26 28 26 24 27 29 31 29 28 28 27 27 26 25 23 22 22 22 20 19 18 19 18 18 18
46 45 43 45 46 45 45 42 40 31 28 25 22 26 26 25 23 25 27 28 31 29 32 33 28 25 32 26 23 27 23 24 27 29 29 28 27 27 27 26 25 25 24 24 23 23 21 21 21 20 18 18 18 18
43 45 44 45 46 44 40 39 33 29 22 24 22 23 25 25 24 25 27 29 30 32 32 26 32 24 22 20 22 25 27 28 28 27 28 28 28 28 28 26 25 25 24 23 22 22 21 20 19 18 18 18 16 16
43 45 43 45 46 42 35 33 35 23 23 25 25 26 26 25 26 26 26 28 29 29 29 25 20 18 20 23 23 26 27 27 25 25 25 26 26 25 26 26 25 24 23 23 23 22 21 21 20 19 18 18 15 15
44 43 42 43 45 38 31 30 37 28 23 24 27 23 24 22 24 23 22 23 24 22 17 15 15 18 18 21 24 26 27 27 27 24 23 25 25 24 23 23 22 22 22 21 20 20 19 19 19 18 17 16 15 13
44 43 42 44 41 39 34 31 28 29 27 25 27 27 22 24 20 18 18 23 18 14 14 16 17 20 22 23 24 26 26 28 26 25 24 22 24 25 23 23 23 22 20 19 18 17 17 16 17 16 15 14 15 15
40 42 42 42 35 35 33 36 31 31 29 27 27 26 21 18 18 17 20 14 12 13 15 16 18 19 20 20 22 24 24 25 25 25 24 24 22 22 22 22 22 20 19 18 19 17 16 17 17 16 15 14 15 14
40 41 36 36 31 32 28 34 30 29 25 25 26 21 19 19 20 23 13 14 14 17 18 18 19 20 19 20 22 22 22 23 22 22 22 22 22 22 21 20 20 18 16 16 18 17 16 16 16 16 16 15 13 12
35 25 23 23 28 23 29 24 30 28 27 24 22 18 18 19 23 17 11 12 15 17 17 17 19 20 20 20 19 19 21 22 21 20 21 20 18 17 19 18 18 18 18 18 18 17 17 16 16 16 15 14 13 12
22 14 20 16 22 20 18 17 18 21 17 19 16 15 16 21 14 12 10 12 14 14 14 17 18 16 16 17 17 17 18 19 18 17 19 19 17 16 16 16 17 18 19 17 15 15 15 15 15 14 14 13 11 10
9 13 14 14 15 15 14 12 12 12 14 13 12 16 18 14 9 6 10 12 13 13 14 14 15 15 14 15 14 14 15 19 19 15 14 17 20 19 17 16 15 14 19 18 16 14 13 13 13 12 11 10 9 9
9 10 15 18 17 16 12 13 15 12 9 8 10 10 11 4 4 9 16 16 15 16 17 17 17 15 14 14 15 15 16 15 14 13 15 16 16 17 19 16 13 14 18 17 17 16 14 13 12 12 10 10 10 10
13 13 6 7 9 11 5 6 6 6 8 11 11 4 3 4 6 13 15 17 18 18 18 17 17 16 15 15 16 16 17 17 16 17 17 16 15 15 15 15 14 14 16 17 16 16 15 13 11 11 10 8 6 10
9 12 11 1 6 7 5 5 6 9 11 12 8 6 7 11 12 14 16 17 18 18 16 15 16 17 16 15 14 14 14 16 16 13 11 11 12 11 14 15 16 16 16 14 14 14 14 13 13 11 11 9 8 9
9 14 8 4 3 4 7 9 8 10 14 14 14 12 11 11 12 15 15 15 14 12 13 13 13 14 13 13 11 11 12 13 13 14 12 10 9 12 13 14 14 14 16 15 13 11 10 9 8 6 6 6 8 7
13 14 9 9 6 10 11 10 13 14 13 12 14 11 9 10 13 13 12 13 14 13 13 11 9 9 10 9 11 11 8 10 10 11 12 12 12 12 11 12 13 14 13 12 11 10 9 10 9 8 8 7 5 6
11 9 8 5 7 12 13 14 13 12 13 13 10 11 9 11 7 10 10 13 12 9 7 10 8 6 8 9 9 8 8 9 9 9 9 10 10 9 10 11 11 12 11 10 10 9 9 8 8 8 7 6 5 4
10 12 11 10 9 9 11 12 10 10 10 9 7 6 6 7 3 9 12 11 10 9 8 7 8 8 6 6 7 8 8 7 5 5 4 3 2 6 9 10 10 9 9 9 8 8 6 5 6 4 3 2 2 1

GFSWCAN_sfc_temp_099.txt.gz
Temp
47 47 47 47 47 47 47 47 47 47 47 48 48 48 48 48 49 48 48 52 43 37 43 48 49 41 39 39 35 39 37 40 37 31 32 35 32 40 39 43 36 35 32 32 35 29 29 57 55 43 47 52 54 58
46 46 46 46 46 47 47 46 46 46 47 47 48 48 48 48 49 49 44 51 50 41 43 51 53 54 52 49 42 43 41 42 37 35 39 37 34 40 40 34 51 35 45 40 41 42 54 58 53 53 52 48 53 55
46 46 46 46 46 46 47 47 47 47 47 47 47 48 48 48 49 48 46 49 45 38 38 42 44 52 55 54 55 41 46 49 45 45 38 36 33 43 35 40 44 49 55 47 47 53 55 57 56 54 51 51 55 60
46 46 46 46 46 46 46 46 46 47 47 47 47 47 48 48 48 48 43 46 46 37 32 40 52 47 55 56 53 52 50 51 48 46 37 36 35 47 41 43 44 50 50 48 48 53 56 57 58 54 53 59 60 60
45 45 45 46 46 46 46 46 46 46 47 47 47 48 48 48 48 47 45 44 46 41 35 37 49 51 55 53 51 52 49 46 42 37 35 35 45 43 46 46 43 53 50 47 44 54 53 55 60 61 59 59 60 56
45 45 45 45 45 46 46 46 46 46 46 47 48 48 48 48 47 43 36 43 45 46 36 33 49 49 52 52 50 48 49 47 42 37 37 44 50 43 37 40 52 56 58 59 53 60 59 60 62 63 61 60 56 56
45 45 45 46 47 48 47 47 47 47 46 47 48 48 48 48 45 36 39 45 46 45 35 34 39 50 53 51 48 46 49 46 42 36 36 42 45 44 38 36 50 55 58 59 61 60 56 60 58 63 63 59 53 52
45 46 47 47 48 48 48 47 47 47 47 47 48 48 48 48 46 40 49 47 47 39 38 33 37 41 50 41 40 47 42 44 39 38 39 38 45 44 35 47 52 57 58 58 60 62 62 63 62 62 62 57 52 48
46 46 46 46 46 46 47 47 48 48 47 47 47 48 45 40 37 41 47 47 48 42 34 35 34 33 49 47 48 44 45 34 46 36 39 44 40 35 45 49 51 55 54 56 59 59 60 59 60 59 56 56 51 43
46 46 46 46 46 46 46 46 47 48 48 47 43 33 32 38 47 46 40 35 37 39 40 35 46 37 45 42 41 40 42 37 33 41 47 38 39 49 53 55 55 56 58 56 51 51 55 56 57 54 53 53 50 43
46 46 46 46 45 45 46 46 47 47 45 38 33 35 41 48 44 37 32 33 35 32 38 44 45 40 47 36 35 42 34 38 31 41 38 38 40 46 53 54 55 50 52 51 52 52 54 53 53 53 49 47 42 37
46 45 45 46 46 47 47 47 47 46 41 40 42 44 43 38 35 33 32 34 35 36 42 39 44 45 41 46 37 37 33 34 29 44 35 35 33 37 40 41 42 43 44 45 45 45 48 48 51 51 47 42 36 31
45 45 45 45 46 46 47 47 48 47 49 51 44 35 37 33 30 29 27 31 33 40 38 38 36 37 40 42 37 34 31 31 42 32 35 33 34 35 37 38 39 40 37 38 37 38 40 41 43 43 37 32 29 27
45 44 44 45 45 46 47 48 48 49 46 37 33 27 31 29 33 33 38 39 36 39 38 39 37 39 40 34 35 30 36 37 30 29 30 30 31 33 35 35 36 35 32 30 31 32 30 30 29 29 29 28 25 23
46 45 45 45 44 44 43 44 46 48 42 32 35 26 27 30 31 31 34 36 34 35 37 36 38 38 34 32 34 35 30 29 31 28 28 30 31 31 31 31 31 31 29 28 28 26 26 25 24 24 25 24 23 21
47 47 46 45 46 45 45 47 48 46 38 31 29 28 31 30 29 30 31 30 33 33 35 36 33 31 31 33 30 29 30 27 25 28 30 31 30 29 29 29 28 28 27 26 26 24 23 21 20 19 21 20 20 19
48 48 43 45 45 45 46 49 43 34 31 28 25 29 30 29 27 28 30 30 34 32 32 34 31 28 35 30 26 30 25 26 28 29 31 29 28 28 28 28 27 27 27 25 24 23 22 22 21 20 18 18 19 19
48 49 45 46 48 46 42 42 37 33 24 29 25 26 28 29 29 28 30 32 32 33 34 29 35 27 26 23 25 28 29 30 30 29 28 28 28 28 28 28 27 27 26 25 24 24 23 22 20 20 19 19 18 17
45 46 44 46 48 45 36 35 38 26 26 28 29 29 29 27 28 29 29 31 31 33 33 29 24 23 22 24 23 26 28 28 27 27 27 27 28 27 27 27 27 26 25 25 25 25 24 23 22 21 21 20 17 17
44 43 44 45 48 41 33 33 42 32 26 27 30 26 27 26 28 26 26 27 28 25 20 19 18 20 21 23 25 26 28 29 28 27 26 27 28 26 27 27 26 26 25 24 24 23 22 22 22 21 20 19 17 16
47 45 45 49 45 42 35 34 32 32 31 27 30 29 25 27 23 22 21 25 19 16 16 18 18 21 23 24 25 27 27 28 27 27 26 25 27 27 26 26 25 26 24 23 21 20 19 18 19 19 17 16 17 16
45 44 47 47 39 38 36 38 33 34 32 29 29 30 25 22 21 19 22 16 14 15 17 18 19 20 21 21 23 25 26 27 28 28 27 27 26 25 25 24 22 21 22 21 21 19 18 18 18 17 15 14 15 15
43 45 40 40 33 33 28 37 31 31 27 26 29 24 23 22 21 25 15 16 16 19 20 21 22 22 22 23 24 24 25 26 25 25 25 25 25 25 24 24 24 21 20 20 21 20 18 19 19 19 19 18 16 15
38 29 27 27 31 25 32 28 33 30 29 26 24 19 20 22 26 20 13 15 18 21 20 20 22 24 25 23 22 21 22 26 25 24 25 24 22 21 22 21 21 21 21 21 21 20 20 19 19 19 19 18 17 16
25 17 25 21 27 25 23 22 23 25 20 23 20 19 19 26 19 16 14 16 18 17 18 21 22 21 20 21 22 21 22 23 21 21 22 22 21 21 19 20 20 21 23 21 19 20 19 20 20 19 19 18 16 15
14 17 19 20 20 20 20 17 18 18 20 17 17 21 24 20 14 11 14 15 17 17 17 17 18 20 18 18 18 18 19 23 22 18 18 20 22 21 19 17 17 17 22 22 20 19 18 18 17 16 15 14 13 13
14 15 19 23 22 22 18 19 21 18 15 13 16 15 17 10 9 13 19 19 18 19 20 20 20 19 18 19 19 19 19 19 17 17 18 19 19 21 21 18 16 18 22 22 21 20 17 16 15 15 14 15 15 15
17 16 10 13 14 18 12 13 13 11 13 17 18 10 8 9 10 16 17 20 21 22 21 21 21 20 19 19 19 20 21 21 19 19 19 18 19 20 19 18 17 18 20 21 21 20 19 18 16 16 15 14 13 15
15 18 15 7 13 13 11 12 12 13 15 18 14 11 10 13 16 17 19 20 22 21 19 19 19 21 21 20 19 18 19 19 19 16 15 14 13 14 19 20 20 19 18 17 18 18 18 17 16 15 13 13 14 15
14 22 13 11 10 9 11 15 13 17 18 18 17 15 14 14 16 20 19 19 18 16 16 16 17 18 17 17 15 14 15 16 15 17 15 12 13 16 18 18 18 19 20 18 16 14 14 14 13 12 12 12 12 12
22 20 16 15 11 13 15 17 19 18 19 17 19 15 13 14 16 17 17 18 18 18 17 14 13 14 13 12 14 14 11 13 13 14 16 16 16 16 16 17 18 18 18 17 16 16 15 15 14 13 12 12 10 11
19 16 13 10 11 16 19 19 18 16 17 16 15 17 15 16 12 14 15 17 16 14 12 14 12 10 13 14 13 13 12 13 12 12 13 14 13 14 15 16 16 16 16 15 14 14 13 13 13 13 12 10 9 9
19 19 18 16 13 15 17 18 17 15 17 15 13 14 13 13 8 13 16 16 14 13 12 13 13 12 11 11 12 13 12 10 7 7 7 6 5 9 14 15 15 15 14 14 14 13 11 10 11 9 8 8 7 6

GFSWCAN_sfc_temp_102.txt.gz
Temp
47 48 47 47 47 47 47 47 48 48 48 48 48 48 48 48 49 47 46 51 44 38 42 46 47 41 39 41 35 37 38 41 35 30 32 34 33 37 37 42 32 33 31 30 34 30 27 56 54 42 47 53 53 53
47 47 46 46 46 47 47 47 47 47 47 47 47 47 48 48 48 48 44 53 50 38 42 50 52 53 51 48 41 41 37 37 35 33 36 34 32 36 35 31 44 31 42 37 40 40 52 56 55 55 54 52 53 53
46 46 46 46 46 46 46 47 47 47 47 46 46 47 48 48 48 48 47 49 43 38 38 42 42 52 56 54 56 40 44 47 44 41 36 36 31 36 31 36 37 45 47 41 40 47 48 52 58 57 56 54 56 57
46 46 46 46 46 46 46 46 46 46 46 47 47 47 47 48 48 48 44 48 44 39 32 39 54 49 55 55 54 53 48 49 48 44 35 35 33 43 36 37 36 43 49 46 46 49 52 54 56 56 57 57 56 59
45 45 45 46 46 46 46 46 46 46 46 46 47 48 47 48 48 48 47 48 47 41 35 36 46 50 55 54 51 51 49 46 42 37 34 34 41 40 42 43 40 49 48 44 39 48 48 49 58 60 58 58 58 55
45 45 45 45 45 46 45 45 46 46 46 46 47 48 48 47 48 45 36 45 49 47 36 31 49 48 51 52 50 49 48 46 42 35 36 41 47 41 35 36 49 53 53 55 51 56 57 58 60 62 60 56 56 53
45 45 45 45 46 46 46 46 46 46 46 46 47 48 48 47 45 38 38 46 47 46 33 32 36 49 51 50 48 47 48 45 40 37 35 39 42 43 35 33 47 52 55 57 59 58 54 58 56 62 62 55 51 45
45 46 46 45 46 46 48 48 47 47 47 46 47 48 48 48 45 39 46 48 47 38 35 32 34 41 51 41 39 48 42 43 38 37 37 38 44 42 33 45 50 53 56 57 58 60 57 59 60 61 62 58 52 42
45 46 46 46 47 47 47 48 48 47 47 46 47 48 45 42 35 40 47 47 46 40 33 32 33 33 48 44 44 43 44 34 44 36 39 43 39 34 43 47 49 53 53 54 58 58 57 56 54 58 57 56 48 40
46 46 46 47 46 46 47 47 47 47 47 47 44 33 31 37 47 46 40 36 35 37 38 35 43 37 44 42 39 39 41 37 33 39 47 38 37 47 51 53 53 55 55 54 50 49 51 50 52 53 54 53 49 39
46 45 46 46 46 46 46 47 47 48 46 37 33 35 41 49 43 36 32 32 33 31 37 41 43 39 48 36 36 43 34 37 30 39 38 37 38 39 44 44 44 45 48 48 49 49 50 49 49 49 50 44 39 35
45 45 45 46 46 46 46 46 47 45 39 42 42 44 43 38 35 33 31 34 34 34 41 39 42 45 42 46 36 36 33 33 28 40 33 33 31 37 39 40 41 41 41 42 44 43 44 46 45 46 42 37 32 29
45 45 46 46 46 46 46 46 48 46 47 49 42 35 36 33 29 28 27 31 33 39 41 41 35 37 41 42 34 33 29 30 43 33 33 29 32 35 36 37 39 41 35 35 37 37 36 34 34 33 30 30 27 24
45 45 45 46 46 46 46 47 47 44 42 36 33 30 31 29 33 34 37 38 38 41 41 42 38 39 39 35 34 30 36 37 30 28 28 28 30 32 34 34 34 33 31 30 30 30 28 28 26 27 27 26 23 21
45 45 45 44 44 46 46 44 46 47 41 33 36 27 28 31 33 33 34 35 35 39 42 39 39 39 35 32 34 33 29 28 30 25 26 29 30 31 30 30 30 29 28 28 27 25 24 24 23 22 23 23 22 21
46 46 41 43 44 45 44 44 48 44 38 32 31 30 32 31 30 31 32 31 34 34 37 39 32 30 31 33 30 30 31 25 24 27 29 30 29 29 29 29 28 28 27 26 24 23 22 21 20 20 20 20 19 19
46 46 43 43 43 44 47 47 42 35 32 30 27 31 31 30 28 29 31 30 34 32 32 34 30 31 35 32 27 28 24 25 28 28 29 29 28 28 29 28 27 27 26 24 23 22 21 21 21 20 18 18 19 19
48 46 46 46 48 47 46 45 38 33 26 29 26 27 29 29 28 29 31 32 32 33 34 30 35 29 25 25 24 26 28 30 30 29 28 28 29 28 28 27 27 26 25 24 24 23 22 21 19 18 18 18 17 17
48 47 46 46 47 42 35 37 40 27 27 30 30 31 29 27 28 30 30 31 32 34 33 30 24 22 21 23 22 24 27 28 27 28 28 27 27 27 27 27 26 26 25 24 24 24 23 22 21 21 21 20 17 16
44 44 45 45 46 40 33 34 42 32 27 28 30 26 27 26 28 27 26 27 28 26 20 19 18 19 20 22 24 24 26 27 28 27 26 27 28 28 26 27 26 25 25 24 23 23 22 21 22 21 20 18 16 14
46 46 46 49 45 42 37 34 31 32 31 28 30 30 25 27 24 22 21 26 20 16 16 18 19 21 24 24 25 25 26 27 25 26 25 25 27 28 26 26 26 26 24 23 21 20 20 19 19 19 18 16 16 15
46 44 47 47 38 39 35 38 34 35 31 29 30 30 25 22 21 19 23 17 15 16 18 19 20 21 22 22 23 24 25 27 28 28 28 27 26 25 24 24 24 22 22 21 20 18 17 17 17 16 15 14 15 15
44 45 40 41 33 33 29 36 31 31 27 27 30 25 23 22 21 24 15 17 17 20 21 22 22 24 23 24 24 23 25 26 25 25 25 25 25 25 24 23 23 20 19 19 20 18 17 17 17 16 15 15 14 13
39 31 29 29 32 26 33 29 33 30 28 26 23 20 21 22 24 18 12 16 18 21 20 21 23 23 24 23 21 21 22 26 24 24 25 24 21 21 21 21 21 21 21 20 20 19 19 18 18 17 17 16 16 15
26 19 26 23 29 27 25 24 24 26 21 24 21 19 20 26 19 16 13 15 17 17 18 20 22 20 19 20 21 20 22 23 20 19 22 23 21 20 19 20 21 22 23 20 19 19 19 20 20 19 19 17 16 15
16 19 20 21 22 23 23 20 21 21 21 19 19 23 24 21 15 11 14 16 17 17 17 18 18 19 17 18 17 17 18 22 22 18 18 19 22 21 19 17 17 18 23 23 22 20 19 19 18 17 16 16 15 15
16 16 21 26 25 24 21 22 24 20 17 15 18 18 19 13 10 13 18 19 19 20 21 21 20 19 18 19 20 20 20 19 18 17 19 19 19 19 19 17 15 19 23 23 22 20 17 16 15 15 14 15 15 15
18 19 13 17 18 21 15 16 15 13 15 18 19 12 10 10 10 16 18 21 22 23 23 22 22 21 19 19 20 20 21 20 19 19 20 20 20 19 19 18 18 20 20 21 21 21 19 18 16 16 15 14 14 16
17 20 17 12 15 14 14 13 12 15 17 18 15 11 10 14 17 18 19 21 23 21 19 18 20 22 20 19 18 18 19 17 19 15 13 13 14 15 20 20 19 19 18 18 20 19 19 18 17 15 15 14 15 15
18 24 16 13 11 9 13 18 15 18 19 18 17 15 14 14 17 21 20 20 18 16 16 17 17 17 16 16 14 13 15 15 15 16 13 12 13 17 18 18 18 19 19 17 15 14 16 15 15 14 13 13 13 11
25 23 18 16 12 15 17 20 21 21 20 19 19 15 13 14 16 18 17 19 19 18 17 14 13 14 13 11 12 12 10 13 13 14 15 16 16 15 16 17 18 19 19 18 17 16 15 15 14 13 13 12 10 11
22 18 15 11 12 18 20 21 20 18 18 17 16 17 17 17 12 13 15 17 16 14 13 13 11 10 13 14 13 12 11 10 10 9 9 12 13 15 16 16 17 17 16 15 15 14 15 14 14 13 12 10 10 10
20 20 19 17 15 16 18 20 19 17 18 16 15 16 14 14 9 13 17 17 15 14 13 13 14 13 12 12 14 13 11 9 6 7 6 6 3 5 12 13 15 15 15 15 14 13 13 12 12 11 10 8 7 7

GFSWCAN_sfc_temp_105.txt.gz
Temp
47 47 47 47 47 47 47 48 47 48 48 48 48 48 48 48 48 43 38 42 39 34 37 41 41 35 35 35 28 35 33 34 33 28 24 27 26 33 33 38 32 29 25 24 27 20 22 49 49 39 41 46 47 47
47 47 47 47 47 47 47 47 47 47 48 48 48 48 48 48 48 47 35 44 44 37 34 43 44 45 44 42 36 38 34 34 34 31 33 32 28 30 31 26 35 29 34 30 30 30 43 46 43 47 48 46 46 46
47 46 46 46 47 47 47 47 47 47 47 47 47 47 48 48 48 47 38 40 40 35 33 36 37 45 49 47 47 33 37 43 37 38 33 33 29 33 27 30 32 35 40 34 36 41 42 46 49 50 49 47 50 52
46 46 46 46 46 46 46 46 46 46 47 47 47 47 47 47 48 48 40 41 38 37 28 33 48 42 49 48 46 45 43 43 41 37 31 31 29 36 30 34 34 39 38 34 36 41 45 46 48 52 51 52 52 53
46 45 46 46 46 46 46 46 46 46 47 47 47 47 47 48 48 45 42 41 42 36 29 32 40 46 48 47 46 46 43 40 37 34 32 32 36 36 35 36 33 44 40 35 33 42 41 45 52 52 50 51 52 50
45 45 45 45 46 46 46 46 46 46 47 47 46 47 47 47 48 42 35 41 43 43 34 26 42 44 47 47 45 44 43 39 38 36 34 36 43 37 29 30 45 48 50 51 45 51 50 52 54 54 51 47 46 43
45 45 45 45 45 45 46 46 46 46 46 46 46 47 47 47 43 37 35 41 46 43 33 28 30 41 46 46 43 41 43 40 37 36 34 36 37 39 32 29 43 47 49 50 53 52 48 51 48 54 47 44 42 39
45 45 45 45 46 46 46 46 46 46 46 46 46 47 47 47 46 40 42 47 47 38 36 29 28 34 46 37 35 41 37 39 37 36 36 34 37 35 30 40 45 49 51 51 51 53 50 52 52 52 50 45 39 34
44 45 45 45 46 46 46 46 47 48 47 47 46 47 44 41 34 38 48 47 44 38 31 31 27 26 43 39 40 39 39 32 37 33 33 34 31 29 38 41 42 45 46 47 50 50 50 49 48 49 49 43 36 32
44 46 46 46 46 46 47 47 48 47 47 46 43 34 30 35 47 45 40 36 33 34 36 31 34 26 38 34 34 32 34 30 24 31 37 29 30 38 40 39 39 39 42 43 40 40 42 42 43 44 44 44 36 31
46 46 46 46 46 47 47 47 47 47 45 38 33 34 39 47 40 34 30 30 31 30 33 35 35 30 40 31 30 32 28 29 25 30 29 28 29 33 39 39 40 37 37 39 40 40 40 38 38 39 37 34 31 29
45 45 45 46 46 47 47 47 46 41 39 40 41 43 42 37 33 30 29 29 29 28 33 31 34 37 35 40 32 31 25 29 23 34 29 25 28 33 34 35 37 33 33 34 35 35 34 34 35 33 31 27 26 25
45 45 46 47 46 47 47 47 47 46 47 47 40 34 34 32 27 24 22 26 24 31 33 32 32 32 34 35 32 30 26 23 32 20 24 26 29 32 32 33 33 34 31 31 31 31 31 29 30 30 27 27 25 23
44 45 46 46 46 46 46 46 47 45 42 34 32 28 29 25 26 27 28 30 32 33 32 33 28 29 29 29 31 27 25 32 26 21 21 25 27 28 31 31 30 28 28 26 26 27 26 26 25 24 24 23 22 20
44 44 46 45 45 46 46 45 44 42 38 31 31 24 25 29 31 32 33 32 32 32 32 31 31 30 27 26 29 26 27 25 24 17 23 25 27 26 28 28 27 26 25 23 22 18 18 21 21 20 22 22 21 20
44 44 42 44 44 45 46 44 43 41 33 30 27 27 30 29 28 30 30 29 32 32 33 31 32 29 20 25 26 25 23 17 17 23 23 24 26 26 25 25 25 23 18 15 14 16 15 15 18 18 19 19 18 18
46 40 43 45 46 45 45 42 37 32 30 26 24 27 28 27 25 27 28 29 31 32 30 31 27 24 27 22 22 24 17 18 20 21 22 22 22 22 26 24 23 23 20 17 15 15 18 19 18 18 15 16 16 16
40 41 43 44 45 45 42 40 33 30 24 27 22 23 24 25 24 25 28 30 30 30 31 27 29 23 16 18 14 21 22 25 22 20 17 17 20 17 21 18 19 19 19 21 20 19 18 17 16 15 15 16 15 15
44 44 45 45 45 39 32 32 33 24 25 25 26 24 22 21 25 25 25 28 29 27 25 23 15 13 13 17 15 18 20 20 21 22 16 15 16 18 18 19 21 19 20 20 21 20 19 19 18 18 17 16 13 13
44 44 44 45 44 35 31 29 35 27 22 23 23 22 22 23 22 20 21 22 24 21 16 15 12 12 14 16 20 20 22 22 23 22 23 19 18 17 18 20 18 20 20 20 19 20 19 18 18 17 16 14 12 11
44 43 45 43 40 37 32 28 28 27 27 24 25 24 19 22 18 16 16 22 16 13 12 14 14 16 19 20 22 23 23 23 22 22 21 22 21 20 20 23 24 22 20 19 17 16 16 15 16 16 14 13 13 13
41 45 41 42 33 34 31 32 29 30 27 26 25 26 20 15 15 16 21 14 13 14 16 17 18 19 21 19 19 21 22 25 24 24 23 23 21 21 20 20 20 19 18 17 16 14 14 15 14 14 13 12 13 13
43 41 35 35 29 26 26 33 28 28 23 22 26 22 19 16 18 24 13 15 15 19 19 20 21 22 21 21 21 21 21 22 20 20 21 20 19 20 21 20 20 17 16 16 17 15 14 15 14 13 13 13 12 12
37 27 26 26 28 23 27 24 29 27 25 22 20 17 19 19 21 15 11 13 15 18 18 19 20 20 20 20 17 17 19 21 20 20 20 19 18 18 19 19 19 19 18 18 17 16 16 14 14 13 13 12 12 11
20 15 20 16 23 21 19 20 22 22 18 20 18 16 18 23 15 13 10 13 14 15 16 18 18 16 15 15 16 16 18 20 17 15 16 19 18 17 17 18 19 20 21 18 16 16 16 16 15 15 14 13 12 11
11 16 15 17 18 18 19 15 15 16 14 12 15 18 19 13 8 6 10 12 12 14 14 15 16 15 14 15 14 14 15 19 18 14 15 16 19 18 16 15 15 16 21 20 18 16 16 16 15 14 13 13 12 11
8 10 19 26 23 23 16 17 19 13 9 10 12 10 11 3 3 10 14 16 15 16 17 18 17 15 15 16 17 16 16 17 16 15 17 17 16 16 16 14 13 17 20 19 18 16 14 13 12 12 11 11 11 11
15 16 6 12 14 17 10 9 8 7 9 14 13 4 1 3 5 12 13 16 19 20 18 18 18 17 15 14 15 16 16 16 15 17 17 17 18 16 16 16 17 18 17 18 17 16 15 14 13 12 11 11 10 10
10 15 13 6 9 10 10 8 9 12 15 14 8 5 5 12 13 14 16 16 18 16 14 14 16 17 15 14 13 12 13 14 15 10 9 9 10 13 17 16 15 15 15 15 19 17 16 15 14 13 12 11 11 10
14 18 9 5 3 5 12 10 6 7 12 11 12 12 10 8 13 16 15 15 13 9 8 11 11 10 9 10 8 8 10 10 9 10 8 8 10 13 15 15 15 13 11 10 10 11 15 11 11 8 8 9 5 5
19 14 9 8 7 9 10 16 17 16 13 10 7 5 3 5 6 10 10 11 10 11 6 3 6 8 7 6 6 6 4 7 6 6 8 11 11 11 11 12 14 14 12 11 9 7 7 7 4 4 5 5 2 1
13 7 4 3 7 13 16 15 11 9 10 6 4 5 7 7 1 2 8 12 4 2 1 0 -3 2 3 1 2 3 3 2 3 2 2 1 1 3 10 11 10 9 7 6 4 4 4 4 4 1 -1 -5 -4 1
13 12 10 7 4 7 9 11 8 8 7 4 1 2 -0 1 -2 4 6 5 4 2 1 2 2 1 -1 -0 4 -1 -3 -6 -5 2 0 -0 -3 -2 -3 -3 1 5 6 1 -2 -2 -0 -1 -5 -3 -3 -7 -9 -10

GFSWCAN_sfc_temp_108.txt.gz
Temp
47 47 47 47 47 48 47 48 47 47 48 47 48 48 48 48 48 41 36 39 38 33 33 38 39 32 31 31 27 34 31 33 32 23 26 25 24 30 29 35 30 28 25 23 26 18 20 45 43 37 39 43 44 44
46 47 47 47 47 47 47 47 47 47 47 47 48 48 48 48 48 46 36 40 41 36 33 39 41 43 41 40 34 34 32 34 33 28 29 28 28 29 29 25 34 28 32 28 27 29 41 43 42 44 44 44 44 44
46 47 46 46 46 46 47 47 47 47 47 47 47 48 48 48 48 46 38 38 37 35 34 33 35 43 46 44 43 31 32 40 35 38 31 29 26 31 25 29 31 34 36 33 34 37 38 43 47 48 49 46 47 49
46 46 46 46 46 46 46 46 46 46 47 47 47 47 47 48 48 48 40 38 36 34 29 29 44 39 45 44 42 43 40 41 38 34 30 29 26 36 29 33 33 34 35 33 34 36 39 44 45 47 47 48 47 46
45 46 46 46 46 46 46 46 46 46 47 47 47 47 47 47 48 45 41 41 39 34 27 29 37 45 47 43 41 41 40 37 33 32 32 29 33 31 33 34 32 41 37 33 31 39 40 43 47 48 47 47 47 43
46 45 45 46 46 46 46 46 46 46 46 47 47 47 48 47 48 41 34 40 40 40 33 26 36 40 44 43 42 40 40 38 35 33 34 35 39 35 29 29 41 47 48 46 43 49 47 49 51 49 44 43 41 39
45 45 45 45 45 46 46 46 46 46 46 46 46 46 47 46 43 37 33 38 45 41 32 26 27 39 43 43 40 38 41 38 36 33 33 33 35 37 30 27 41 45 47 48 50 48 45 47 44 45 42 39 37 35
45 45 45 45 45 46 45 45 45 46 46 46 46 46 46 47 45 39 42 46 46 38 36 27 27 32 43 35 34 40 37 38 36 34 36 34 36 34 29 37 38 40 45 46 47 48 48 48 48 45 44 40 34 31
45 45 45 45 45 45 45 46 46 46 46 46 46 46 43 41 36 38 47 47 43 38 28 28 25 24 41 38 39 38 38 31 37 32 34 35 32 29 32 33 33 35 36 37 44 43 43 42 43 46 43 38 32 29
44 44 44 44 44 45 46 46 46 46 46 47 43 33 30 35 46 46 38 35 33 33 35 29 33 26 37 32 34 32 34 29 29 31 36 30 30 34 35 36 33 33 34 35 34 33 34 34 36 39 37 37 33 29
43 43 43 44 45 46 46 46 47 47 45 38 33 33 38 47 40 35 29 29 28 28 32 33 31 27 36 28 27 33 26 28 23 28 29 28 29 31 35 34 34 32 32 33 33 34 33 33 33 34 31 30 29 27
42 44 45 46 46 46 47 47 46 41 39 40 41 43 42 37 33 29 27 29 29 26 29 29 30 33 31 35 28 29 24 26 20 33 29 26 27 30 32 32 32 31 30 31 32 30 31 31 32 30 30 28 27 26
45 45 46 46 46 47 47 46 47 45 47 45 40 34 34 31 26 24 23 22 23 27 28 28 29 31 33 32 31 29 20 20 29 17 23 24 27 29 29 29 30 31 29 28 28 28 27 27 28 28 26 26 25 23
44 45 45 46 46 46 46 46 46 45 41 34 32 27 27 24 27 25 27 28 30 27 31 30 30 31 28 27 26 17 24 29 24 16 19 23 25 27 27 29 28 26 26 21 21 23 23 23 23 23 23 23 22 21
45 45 46 46 46 46 46 46 44 42 36 30 29 20 20 29 30 31 33 32 31 28 29 29 29 29 29 25 30 25 26 23 22 14 18 23 24 25 25 26 23 23 18 17 14 11 12 15 17 19 20 21 20 19
45 46 45 46 46 47 44 42 40 39 33 28 24 24 29 29 27 29 30 29 31 30 33 30 29 24 20 20 26 26 23 17 13 16 19 21 22 21 23 22 21 18 14 10 7 9 10 11 12 16 18 17 17 17
43 38 43 44 44 44 44 36 35 31 29 24 22 25 27 25 24 26 27 28 31 31 29 32 26 21 25 25 20 22 12 15 19 17 18 18 19 18 19 19 18 18 15 13 11 14 12 14 14 14 12 13 14 14
39 42 45 46 45 42 39 38 31 29 23 25 21 21 23 22 22 23 24 28 29 30 30 25 27 18 10 12 8 14 19 23 22 20 15 15 16 14 17 14 13 14 14 13 14 13 12 11 12 12 13 14 14 13
41 41 45 45 44 36 31 32 32 23 24 24 24 24 22 18 21 20 22 24 26 26 25 18 9 7 7 12 11 13 16 17 18 20 18 13 12 14 15 16 15 12 14 15 16 16 13 12 15 15 15 14 11 12
43 44 45 45 43 32 30 29 34 27 21 22 24 20 19 19 16 16 18 20 21 18 13 9 7 7 9 12 16 17 19 19 21 18 17 14 13 13 14 16 13 14 18 18 17 18 17 15 15 15 14 13 11 10
42 42 44 42 37 34 28 25 25 25 25 20 22 21 15 19 15 13 13 20 14 12 10 11 11 13 15 17 19 21 21 22 21 22 20 21 17 19 17 19 20 16 14 15 14 14 14 14 14 14 13 11 12 12
39 43 38 40 33 33 30 29 26 25 24 22 23 23 12 10 9 12 19 12 11 12 13 14 15 16 18 17 18 19 20 23 22 21 20 20 18 18 17 17 17 15 16 15 14 13 12 13 13 13 11 11 13 13
40 39 33 33 28 26 24 33 26 26 18 19 23 18 14 13 15 22 11 13 14 17 18 19 19 21 19 19 20 18 19 20 18 18 16 17 17 17 16 16 16 15 14 14 15 14 13 14 13 13 13 13 12 11
35 26 25 23 24 17 25 23 27 25 24 19 17 14 15 14 20 13 9 11 15 17 17 17 18 18 18 18 16 15 16 18 17 17 18 17 16 16 17 16 17 16 17 16 15 14 14 13 13 12 12 11 11 10
19 16 18 13 20 16 15 16 18 19 15 18 16 14 18 21 12 10 9 11 12 12 14 17 15 15 13 13 14 14 16 17 15 14 15 18 17 17 16 18 18 18 19 16 14 13 13 13 13 13 12 11 11 9
9 11 11 9 11 13 16 12 12 11 11 8 11 15 15 8 3 3 9 9 7 11 11 12 13 13 13 14 12 12 13 16 16 13 14 15 17 16 15 14 15 16 20 18 17 15 14 13 13 12 11 11 10 8
2 3 15 23 21 19 11 13 15 8 3 4 5 6 5 -3 -1 7 13 15 14 13 14 15 16 14 13 12 15 15 16 16 15 14 16 16 16 16 14 11 11 15 18 17 16 15 13 12 11 11 10 10 10 9
13 11 2 6 10 14 6 5 2 1 4 12 9 -2 -5 -3 2 11 12 14 18 17 18 16 15 14 12 11 11 12 13 15 14 15 16 16 16 14 14 14 16 18 16 15 14 14 13 12 12 11 11 10 9 10
3 9 8 -0 4 7 6 1 4 8 11 10 -3 -4 1 10 10 13 10 8 11 13 9 8 10 9 11 11 10 9 9 12 11 8 7 7 9 11 14 13 13 12 12 15 18 15 14 13 12 11 10 10 9 9
6 10 4 -1 -0 3 4 1 -1 -4 6 5 10 10 8 6 8 10 11 8 6 2 -3 -1 1 4 5 4 3 5 6 6 4 4 4 4 6 10 11 12 9 7 8 9 9 11 15 11 12 9 7 6 6 5
12 7 4 5 5 5 3 2 5 7 -0 -1 -5 -3 -3 0 5 7 8 3 3 -3 -1 -3 -0 -2 -1 -1 -3 -1 -1 3 2 3 4 4 4 5 8 9 9 9 7 6 6 5 4 3 3 3 2 2 0 -0
-0 -5 -3 -0 5 6 5 3 -2 3 -2 -4 -3 -9 -2 -3 -6 -1 7 -1 -2 -5 -10 -11 -8 -4 -8 -9 -11 -9 -6 -6 -5 -5 -4 -5 -4 -2 0 2 3 3 5 5 4 3 3 2 1 -1 -4 -5 -3 -5
5 8 -3 -1 1 1 4 4 -1 2 -3 -7 -2 -5 -6 -7 -7 -0 1 -4 -3 -4 -6 -8 -10 -11 -7 -5 -9 -12 -11 -13 -10 -1 -3 -4 -9 -9 -13 -11 -7 -5 -2 -4 -7 -5 -3 -4 -7 -9 -11 -13 -16 -17

GFSWCAN_sfc_temp_111.txt.gz
Temp
47 47 48 47 47 47 47 48 48 48 48 47 48 48 48 48 49 42 35 40 36 32 33 36 37 32 31 30 26 30 27 29 27 26 22 24 25 30 28 33 28 27 25 24 25 17 18 43 42 35 40 44 45 45
48 47 47 47 47 47 47 47 48 47 48 48 48 48 48 48 48 45 37 40 41 35 31 37 39 41 39 38 33 32 30 32 31 27 27 27 25 29 27 24 33 25 30 28 29 27 39 40 41 45 45 43 44 43
46 47 46 46 47 47 47 47 47 47 47 47 47 47 48 48 48 45 37 41 39 34 30 31 33 41 44 42 43 32 32 36 34 37 31 29 24 29 23 27 29 32 35 32 32 35 37 41 44 45 47 45 46 45
45 46 46 46 46 46 46 46 46 47 47 47 47 47 48 48 48 47 39 41 39 33 28 29 41 37 43 41 41 42 39 39 37 36 30 27 26 33 29 32 31 32 35 32 34 35 37 42 44 45 47 46 43 41
45 45 46 46 46 46 46 46 46 46 46 47 47 47 47 48 48 44 42 41 40 34 25 27 35 43 44 42 40 38 37 34 31 32 31 28 32 32 31 33 32 37 37 30 29 38 36 38 44 46 43 40 42 40
45 45 45 46 46 46 46 46 46 46 46 46 47 47 48 47 47 41 34 41 42 42 33 25 34 35 40 40 38 37 37 35 33 30 29 34 36 33 29 27 39 41 43 44 41 44 45 46 43 43 39 38 37 35
45 45 45 46 46 46 46 46 46 46 46 46 46 47 47 47 43 35 32 36 44 41 32 27 25 36 41 41 38 36 38 36 35 33 32 30 32 36 30 25 33 36 39 41 44 45 43 43 40 41 39 36 35 34
44 45 45 45 45 45 45 45 46 46 46 46 46 46 46 46 45 39 39 45 45 38 35 26 25 31 41 34 34 38 35 36 35 35 35 33 35 34 29 33 34 34 37 39 39 42 41 44 44 43 41 38 33 29
44 44 44 44 45 45 45 45 46 46 46 46 46 45 43 39 34 38 46 46 42 37 28 28 24 23 39 37 38 37 38 31 36 31 32 34 31 29 31 32 31 31 32 32 36 37 37 36 36 39 40 36 31 28
44 44 44 44 44 45 45 45 46 46 46 46 42 34 30 35 47 45 39 33 33 34 34 28 30 24 35 33 34 32 33 29 28 32 36 31 30 32 33 33 32 31 32 32 30 30 31 30 31 34 33 31 30 28
44 44 44 44 45 45 45 45 45 46 45 34 32 33 38 47 39 35 29 27 29 27 31 33 32 26 35 29 29 33 28 29 23 28 29 28 27 29 32 32 32 31 31 32 32 32 31 30 30 30 30 30 30 29
44 45 45 44 44 44 44 44 45 42 38 39 40 42 41 37 32 28 25 27 28 25 28 30 32 31 28 33 28 31 28 24 20 31 29 25 25 28 29 30 30 29 28 28 29 28 28 28 28 30 29 28 27 26
42 42 42 43 43 44 45 46 46 45 46 44 39 32 33 30 25 20 19 24 25 26 26 29 30 29 33 33 28 30 26 21 28 23 26 23 26 26 27 28 28 28 26 25 24 25 26 26 25 25 25 25 25 23
42 43 44 45 46 46 45 46 46 45 41 34 31 27 27 23 25 25 26 27 28 28 28 27 31 28 27 26 27 23 24 28 23 19 19 21 24 25 26 26 25 24 23 18 19 21 20 20 19 19 18 20 20 20
44 45 46 46 46 46 46 46 46 41 35 30 30 23 24 23 26 31 32 33 31 31 28 28 30 29 28 24 30 24 25 22 20 13 13 23 24 24 24 25 22 21 17 15 13 10 10 12 14 13 17 18 18 17
45 45 44 46 46 46 46 44 41 38 32 28 22 25 28 29 27 28 29 29 31 32 32 32 25 19 24 21 25 24 22 15 10 14 17 19 20 21 20 21 18 14 10 7 6 7 9 9 10 11 13 15 15 15
45 42 45 45 45 44 42 37 35 31 28 21 18 25 25 25 23 25 26 26 31 32 28 28 26 17 24 23 17 18 7 11 19 16 17 16 18 19 13 15 13 14 11 8 7 9 7 7 10 11 9 10 12 13
41 43 44 44 42 39 36 36 31 28 23 23 19 21 21 19 21 21 22 25 28 30 28 24 24 19 10 11 7 9 14 18 19 18 16 14 14 12 15 13 11 11 10 8 8 9 9 8 9 10 10 12 11 11
41 43 44 45 41 35 31 31 32 22 22 23 23 23 21 19 20 19 20 23 24 23 22 16 8 4 4 10 8 11 12 14 15 15 14 10 8 15 11 12 12 9 11 10 11 10 8 11 10 13 13 12 10 10
44 44 44 44 43 32 29 28 33 26 19 20 22 17 18 17 16 14 17 19 20 16 12 9 5 5 7 12 15 16 15 18 18 13 12 14 11 11 11 14 12 11 12 12 13 13 12 12 14 14 13 11 10 9
41 41 43 40 34 33 28 26 25 25 24 19 21 20 14 16 13 12 12 19 13 9 8 8 9 11 14 14 16 19 19 21 18 19 17 15 17 19 13 14 16 15 13 10 11 11 12 12 12 12 10 9 10 11
39 42 38 39 31 30 26 26 25 24 22 20 20 19 8 7 7 8 17 10 9 9 9 11 13 13 14 13 15 17 18 20 19 18 16 17 14 14 13 12 14 11 12 10 14 12 12 13 13 12 11 11 12 12
40 39 33 33 28 25 23 31 22 22 14 16 20 14 10 10 11 20 8 11 10 14 15 14 17 17 16 15 18 16 13 17 15 15 16 14 16 15 12 11 11 11 11 12 15 14 12 13 13 12 12 12 11 10
35 25 23 23 24 19 26 21 27 24 22 17 15 12 12 10 18 11 6 7 11 16 16 15 18 14 15 16 13 13 14 16 15 14 15 14 13 14 12 12 14 15 15 15 14 13 13 12 12 12 11 10 10 10
21 15 17 12 19 14 12 13 15 16 12 15 12 12 14 19 8 7 7 10 12 12 13 15 14 14 11 10 12 13 15 14 11 11 12 15 15 16 16 17 16 16 17 14 12 11 12 12 12 11 11 10 10 8
11 12 11 10 12 14 14 11 11 12 14 13 13 14 13 8 3 2 8 6 5 10 6 7 6 7 10 11 9 10 11 15 14 11 12 14 14 14 13 13 13 15 19 16 14 12 12 12 11 10 9 9 8 7
5 5 15 21 19 17 9 10 13 8 4 4 7 5 2 -5 -4 6 12 12 10 11 13 13 13 11 9 9 12 13 14 15 13 13 15 15 15 15 13 10 10 13 17 16 15 13 12 11 10 10 8 8 7 7
12 11 4 5 8 12 2 2 -1 -2 3 12 5 -6 -9 -8 -1 8 7 12 12 14 12 12 11 10 10 9 9 10 11 12 13 12 14 15 14 14 14 14 14 17 14 13 12 11 11 10 9 9 9 8 7 7
2 7 7 -2 3 4 2 -4 -1 7 9 5 -7 -8 -1 5 4 6 8 8 10 8 3 3 3 -1 3 4 6 7 6 8 8 6 3 2 5 8 11 11 11 12 12 13 17 14 13 11 10 9 9 8 5 5
4 8 3 -2 -0 -1 -1 -1 -3 -5 4 4 8 9 5 4 7 5 1 3 2 -3 -7 -6 -4 -5 -6 -3 -3 1 3 3 3 2 2 1 2 7 8 8 7 8 9 10 9 10 14 10 10 5 5 4 2 1
8 4 2 4 3 0 -1 -5 1 1 -5 -5 -10 -7 -3 -0 3 5 -1 -7 -11 -12 -6 -8 -6 -11 -6 -7 -9 -6 -6 -2 -0 1 1 1 2 3 4 5 6 5 5 4 3 3 2 1 1 2 2 0 -1 -1
-3 -9 -4 -2 0 1 -1 -7 -7 -6 -10 -8 -8 -14 -8 -10 -11 -5 0 -6 -10 -10 -13 -16 -11 -8 -13 -16 -18 -16 -11 -12 -11 -11 -10 -10 -11 -10 -5 -4 -3 -1 2 0 -2 -1 -2 -3 -4 -3 -6 -8 -10 -11
-3 -4 -8 -4 -1 -3 -1 3 -1 -2 -8 -9 -4 -9 -9 -10 -10 -5 -1 -9 -8 -9 -12 -12 -13 -17 -13 -12 -12 -15 -14 -17 -14 -5 -6 -8 -11 -10 -15 -15 -13 -9 -5 -9 -11 -10 -6 -8 -13 -15 -16 -17 -18 -18

GFSWCAN_sfc_temp_114.txt.gz
Temp
48 48 48 47 48 46 47 47 48 48 48 48 48 48 48 48 48 42 39 39 36 28 29 34 35 31 30 30 24 29 26 28 25 23 22 24 24 28 27 32 27 26 24 23 25 20 16 38 38 30 37 42 42 43
47 47 47 47 47 47 47 48 48 48 48 47 47 48 47 48 48 45 37 40 41 35 30 35 38 39 37 37 31 31 30 30 26 20 22 26 24 27 27 23 32 24 29 27 28 27 35 37 40 42 44 41 42 43
47 47 46 46 47 47 47 47 47 47 47 47 47 48 48 48 47 45 39 40 39 34 34 30 32 40 41 40 41 28 30 35 32 35 32 29 23 28 23 27 29 32 34 31 31 35 35 37 41 45 42 40 45 42
46 46 46 46 46 46 46 47 47 47 47 47 47 47 47 47 47 46 39 41 39 34 27 28 39 35 41 39 38 39 37 37 35 37 31 28 25 33 28 32 30 33 35 31 32 35 37 41 42 41 42 44 38 38
45 45 46 46 46 46 46 46 46 46 47 47 47 47 47 48 48 44 41 41 42 35 25 27 33 41 42 40 36 37 36 33 31 29 28 28 31 30 32 31 31 36 33 30 29 35 35 37 41 42 38 38 40 37
45 45 45 45 46 46 46 46 46 46 46 47 47 47 47 47 47 40 33 38 41 41 32 24 32 34 37 37 35 34 35 32 33 29 29 31 35 33 28 28 34 35 37 36 34 40 42 39 41 41 36 35 35 34
45 45 45 45 45 46 46 45 45 46 46 46 46 47 47 47 41 35 33 36 43 41 32 26 25 33 39 37 34 33 37 34 33 32 30 30 31 34 29 25 33 34 36 36 37 38 37 39 38 41 37 34 34 32
44 44 45 45 45 45 45 45 45 46 46 46 46 46 47 47 44 38 41 45 44 37 34 25 24 27 38 31 32 37 33 34 34 33 34 32 34 33 28 32 33 33 34 35 34 37 35 37 37 39 41 37 32 29
44 44 44 44 45 45 45 45 46 46 46 46 46 46 42 39 34 37 46 45 43 36 26 27 22 20 36 36 36 36 37 30 36 31 32 33 30 28 30 30 30 29 29 30 32 34 33 32 32 34 34 32 29 28
44 44 44 44 44 45 45 45 45 46 46 46 42 33 30 35 45 45 39 34 33 33 34 28 29 24 32 32 33 32 33 31 28 32 35 31 28 31 32 31 30 30 30 31 28 27 28 28 29 31 31 30 30 29
44 44 44 44 44 44 45 45 45 46 46 37 32 32 38 45 37 33 28 28 29 27 29 30 30 28 34 26 29 32 30 30 25 29 29 28 26 28 30 30 30 29 28 29 29 29 29 28 27 28 30 30 29 28
44 44 44 44 45 45 45 45 45 42 35 37 39 41 41 35 32 26 25 26 26 25 28 30 31 33 31 34 30 31 28 26 23 31 28 25 24 26 28 28 28 28 26 26 26 24 26 27 26 26 27 27 26 25
44 44 45 45 45 45 45 45 45 44 42 42 38 32 32 30 24 19 18 22 24 27 27 30 29 27 30 34 29 30 26 22 28 24 25 23 25 26 26 26 26 27 25 23 23 23 23 24 24 22 22 23 23 21
44 44 44 45 45 45 45 45 44 43 40 33 31 27 24 22 25 25 25 25 28 26 27 27 30 27 30 25 28 23 25 28 23 20 18 21 23 24 25 26 25 23 22 17 17 18 17 17 17 16 15 17 17 16
43 43 43 43 43 43 43 43 45 41 34 31 30 21 24 23 27 27 29 28 31 31 28 28 27 30 26 25 28 23 24 22 19 12 14 23 25 23 23 24 21 20 16 14 11 8 8 10 11 10 13 14 15 13
41 41 41 44 44 44 44 43 39 36 31 27 23 23 26 28 27 28 30 29 31 32 31 30 23 22 24 23 25 22 20 13 10 15 18 19 19 20 19 21 17 13 9 5 4 5 5 6 6 7 7 9 10 11
44 41 45 45 45 45 42 37 35 30 27 21 16 23 25 24 23 23 25 25 29 30 25 26 18 20 25 21 15 15 6 11 18 18 17 16 17 19 15 13 11 12 10 7 4 6 3 4 6 9 6 8 10 11
42 44 45 43 41 38 36 34 30 28 21 21 17 20 19 18 21 20 21 23 26 29 28 23 24 22 17 18 7 8 13 16 17 15 14 14 14 12 15 13 11 9 9 7 7 7 7 5 7 6 6 8 8 10
42 42 44 44 41 34 30 30 31 20 20 19 22 22 20 18 19 19 20 23 23 23 22 16 10 6 2 8 6 9 11 15 13 12 13 9 7 18 12 11 11 7 9 8 9 8 7 7 6 7 8 9 7 8
43 43 43 44 42 31 28 27 30 24 19 20 22 17 17 16 17 13 17 19 19 17 12 10 6 3 3 8 15 16 16 17 18 14 9 10 15 11 9 11 10 9 11 12 13 12 12 9 10 10 11 10 8 7
40 41 43 39 33 33 26 23 25 24 24 17 20 18 12 17 13 13 13 18 12 8 7 7 8 8 10 12 15 18 19 21 16 17 13 10 12 16 16 14 15 14 12 11 10 8 8 9 10 11 8 8 9 10
39 43 35 37 30 29 27 26 24 24 21 20 19 18 7 6 4 7 16 9 7 7 8 10 10 10 12 12 14 15 16 18 16 14 12 14 12 13 13 11 13 10 11 8 12 9 9 11 12 12 10 10 11 11
39 37 32 32 26 23 20 29 21 20 13 16 18 12 6 5 8 18 3 8 7 11 12 12 13 13 14 14 16 15 14 16 12 11 12 12 14 13 13 11 9 7 9 9 10 12 9 12 12 12 12 11 10 10
34 25 23 23 23 16 24 20 25 21 20 13 11 6 7 6 14 7 0 2 7 13 14 15 17 13 15 15 13 13 14 13 12 12 13 13 12 12 12 12 13 13 12 12 12 10 11 9 10 10 9 9 8 9
21 16 18 9 16 12 8 9 12 14 10 10 10 8 10 14 5 3 1 7 9 11 11 14 14 14 12 12 13 13 14 15 12 11 12 13 12 12 13 15 15 16 16 9 8 8 7 8 8 8 8 8 8 7
10 11 10 9 10 12 12 6 6 7 10 8 11 13 12 7 4 3 8 8 8 11 8 6 6 7 9 11 11 11 11 15 14 10 12 14 13 11 9 8 8 12 16 12 10 8 9 8 6 8 7 8 8 6
6 6 15 19 18 17 10 11 14 10 8 8 8 3 2 -5 -5 5 12 12 10 10 12 12 11 8 6 7 10 12 14 14 13 13 14 14 14 14 12 8 8 12 15 15 12 10 9 8 6 6 6 5 5 6
10 12 4 4 7 10 1 2 0 -1 4 10 4 -7 -9 -7 -2 6 6 10 7 10 9 8 8 8 6 6 6 8 8 9 11 12 12 13 12 12 12 12 12 16 12 11 10 10 9 7 5 5 4 3 3 5
2 7 8 -1 3 3 2 -2 -0 7 8 4 -5 -6 -2 4 0 3 5 7 9 7 0 -1 -2 -5 -1 1 3 4 3 2 0 -1 -3 -3 0 5 9 9 10 10 10 12 16 12 12 10 8 7 5 5 3 4
1 5 -0 -5 -4 -3 -4 -2 -4 -3 3 2 6 7 4 1 3 3 -0 1 1 -5 -8 -9 -13 -11 -12 -10 -10 -5 -2 -4 -5 -7 -5 -5 -4 1 5 6 7 7 7 7 8 8 12 8 9 5 4 3 1 -1
5 2 0 -1 -4 -1 -2 -10 -8 -6 -8 -7 -9 -8 -5 -3 1 1 -7 -13 -16 -17 -11 -11 -10 -18 -12 -14 -14 -11 -9 -7 -9 -7 -5 -6 -6 -7 -5 -3 0 2 2 3 3 2 1 -0 -1 0 2 1 -1 -1
-6 -10 -3 -4 -2 -4 -4 -11 -11 -11 -15 -10 -11 -17 -13 -12 -13 -7 -4 -11 -14 -12 -15 -19 -13 -11 -16 -19 -22 -21 -14 -16 -15 -16 -15 -16 -17 -18 -16 -13 -15 -11 -9 -8 -6 -5 -5 -5 -7 -9 -10 -9 -10 -12
-8 -7 -9 -6 -4 -6 -3 -4 -5 -7 -12 -11 -10 -14 -15 -11 -10 -6 -4 -12 -10 -9 -13 -15 -16 -19 -17 -16 -15 -17 -16 -19 -18 -6 -5 -8 -13 -13 -19 -19 -17 -15 -11 -14 -15 -11 -8 -12 -17 -18 -19 -19 -19 -18

GFSWCAN_sfc_temp_117.txt.gz
Temp
48 48 48 49 48 48 48 48 48 48 48 48 48 48 48 48 48 41 38 40 37 31 33 36 37 33 33 33 27 32 31 32 29 25 25 26 25 28 25 29 26 26 25 26 26 23 21 40 42 34 39 41 39 41
48 48 48 48 47 47 47 48 47 48 48 48 48 48 48 48 48 44 38 41 41 35 33 37 38 40 40 40 35 35 32 32 33 28 27 27 25 28 27 22 33 25 29 27 29 31 38 41 40 44 44 41 41 43
47 47 47 47 47 46 47 46 47 48 48 48 47 47 48 48 48 44 40 40 38 34 34 35 35 41 42 42 44 31 34 38 36 38 33 31 25 30 24 27 29 33 35 31 31 36 37 39 43 45 45 42 44 41
46 46 47 47 46 47 47 47 47 47 47 47 47 47 47 47 47 45 39 41 39 34 27 31 40 37 43 41 40 41 39 39 38 37 32 30 27 35 29 32 30 33 34 32 32 34 35 38 37 40 40 41 39 38
46 46 46 46 45 46 46 47 46 46 47 47 47 47 47 47 47 43 41 41 41 36 27 30 36 42 43 40 38 38 37 36 34 31 29 28 34 32 34 33 31 35 31 29 28 32 33 33 33 36 36 36 37 37
45 46 46 46 46 46 46 46 46 46 46 47 47 47 47 47 46 38 33 41 42 42 31 25 36 35 39 39 37 35 36 35 34 32 31 34 38 35 28 28 34 36 35 33 31 34 35 36 38 37 35 33 33 35
45 45 45 45 45 46 46 46 46 46 46 47 46 47 47 47 40 34 34 39 43 42 32 26 27 36 40 38 35 34 37 36 35 33 32 34 35 35 31 27 34 34 35 35 35 37 35 35 33 37 37 36 35 34
45 45 45 45 45 45 45 46 46 46 46 46 46 47 47 46 43 38 40 45 44 37 35 25 26 30 39 34 33 37 33 34 34 34 34 32 35 33 28 32 32 32 34 34 33 36 33 34 35 35 37 36 33 32
45 45 45 44 44 44 45 45 46 46 46 47 46 46 42 39 34 37 46 45 43 37 27 28 24 22 38 36 37 36 36 30 37 31 33 34 32 29 29 30 29 29 28 28 32 33 33 31 31 33 34 33 32 30
44 44 44 44 44 45 45 45 45 45 46 46 41 33 31 35 44 44 39 34 32 33 34 27 32 25 34 33 33 33 33 32 28 32 35 31 29 30 31 30 30 29 29 29 27 26 27 27 27 29 30 31 31 30
44 44 44 44 45 45 45 45 45 46 45 37 32 32 36 44 38 35 30 29 29 27 30 31 31 28 35 30 30 33 31 31 27 31 31 30 27 27 30 29 30 29 29 28 27 27 28 28 26 26 28 29 29 28
44 44 44 44 45 45 45 45 45 41 38 37 38 41 40 35 32 28 24 28 27 26 30 30 32 34 34 35 32 32 30 29 25 33 30 27 25 27 29 28 29 28 27 26 26 25 25 27 25 25 26 26 26 25
44 45 44 44 45 44 43 45 45 44 42 40 37 32 31 30 24 21 20 22 24 28 29 31 29 32 32 34 31 30 27 26 31 26 26 24 26 27 27 27 27 28 25 24 23 24 23 23 23 21 21 22 23 22
44 44 44 44 44 45 45 45 45 43 38 31 30 26 26 22 25 25 28 29 30 29 29 31 31 30 32 30 31 26 29 29 25 23 22 23 24 25 26 27 26 24 22 17 18 19 18 17 17 16 15 17 18 18
44 44 44 44 44 45 45 45 45 41 34 30 31 23 24 26 28 28 29 30 29 30 32 31 31 32 29 27 29 26 25 23 23 20 20 25 25 25 25 25 24 22 18 17 15 12 11 11 12 12 12 14 16 16
44 44 42 44 45 45 45 44 40 34 31 27 24 24 26 29 28 30 30 29 32 32 31 32 27 26 25 27 26 25 23 20 17 20 23 24 23 21 21 21 20 18 16 14 13 12 12 10 10 11 11 11 12 14
43 37 42 44 44 45 44 35 33 30 27 22 19 23 25 24 24 24 25 26 29 31 31 27 22 24 27 24 20 18 17 16 20 22 23 22 22 21 20 18 17 17 17 15 13 13 12 11 11 13 11 12 13 14
37 40 45 43 43 39 33 33 30 27 20 22 18 19 19 18 21 20 22 24 25 30 31 26 27 23 18 22 15 14 17 19 21 20 20 20 21 19 19 19 18 16 16 14 13 13 13 12 13 13 12 13 13 13
42 42 43 43 40 34 30 30 31 21 20 21 22 22 20 18 19 19 21 24 24 24 24 21 17 12 10 12 13 14 16 18 19 20 20 17 15 18 19 17 17 15 15 15 16 16 15 13 14 15 15 15 13 14
43 44 43 43 42 33 27 27 32 25 19 20 22 18 18 17 18 16 18 20 20 18 14 12 11 11 12 15 17 18 19 19 20 19 18 18 19 19 18 18 18 17 17 16 16 15 16 15 15 15 15 14 13 12
39 40 41 39 34 32 27 25 23 24 23 19 20 20 15 18 15 15 16 19 14 11 11 12 13 15 15 17 18 21 20 21 18 18 17 16 17 19 18 18 18 18 17 16 15 14 13 13 14 14 13 13 13 14
38 41 34 37 30 29 25 26 24 24 22 21 19 19 12 11 11 11 18 12 10 11 12 14 15 15 16 15 15 16 18 18 17 17 14 16 15 15 15 15 17 14 14 14 15 13 13 14 15 14 13 13 14 14
37 36 31 32 25 22 21 28 21 23 15 16 18 13 9 9 12 19 7 10 11 13 15 15 15 16 15 16 17 16 16 17 15 15 16 16 16 16 16 15 15 14 13 13 15 14 13 11 13 13 14 13 13 13
34 25 20 18 21 15 24 19 25 21 19 14 12 7 8 9 15 7 3 6 11 15 15 15 17 15 16 16 14 14 15 18 16 16 15 17 16 16 17 16 16 16 16 15 14 13 13 13 12 13 12 12 12 12
22 16 19 10 15 11 7 6 10 14 6 9 8 7 9 13 4 2 1 8 11 11 13 15 15 15 14 14 14 14 15 16 15 13 14 15 16 17 16 17 17 17 17 14 12 12 11 12 12 12 12 12 11 11
10 9 8 6 9 10 11 5 4 6 10 7 9 13 11 7 4 3 8 10 11 13 11 12 11 11 11 12 12 12 13 16 16 13 13 15 15 15 14 13 13 15 18 16 13 12 12 12 12 11 11 11 11 11
6 6 14 18 18 16 9 10 14 11 7 7 10 8 7 1 0 7 12 13 12 12 13 13 13 12 11 11 12 13 14 15 15 14 15 15 14 14 13 11 11 14 17 16 16 15 14 12 11 11 10 11 11 11
12 13 9 7 7 10 4 5 5 4 7 10 7 -2 -2 -1 2 8 9 12 11 11 9 8 8 9 9 8 8 9 10 10 14 14 15 15 13 12 11 13 13 15 15 16 15 15 15 14 12 11 11 10 9 11
4 8 9 -0 3 3 2 0 2 7 8 6 -0 -1 1 4 3 5 7 9 10 9 4 4 2 1 3 4 3 3 2 3 8 3 2 4 4 7 8 9 11 12 13 14 17 15 14 13 13 13 12 11 10 11
3 7 0 -4 -5 -3 -1 1 2 0 4 4 7 6 4 3 4 5 6 7 6 1 -3 -5 -7 -1 -1 1 -1 -1 -2 -4 -3 4 3 3 4 3 3 3 5 7 9 12 12 12 13 12 13 11 10 9 9 8
4 1 -3 -3 -3 0 -2 -8 -8 -5 -7 -5 -5 -5 -2 0 4 1 -2 -6 -8 -8 -3 -3 -4 -9 -3 -3 -2 -2 -1 -2 -7 -4 -2 -1 -1 -2 -3 -3 -1 0 6 8 8 9 8 8 8 8 7 6 5 5
-7 -10 -5 -5 -2 -2 -3 -10 -11 -8 -11 -5 -9 -13 -9 -6 -8 -2 -3 -5 -4 -3 -10 -9 -3 -2 -8 -9 -12 -10 -12 -6 -5 -7 -6 -5 -3 -5 -5 -4 -4 -0 2 3 5 4 3 3 3 2 2 1 -0 -1
-9 -10 -8 -4 -5 -5 -5 -3 -4 -6 -8 -9 -10 -13 -13 -6 -6 -2 -4 -8 -3 -2 -4 -5 -5 -7 -8 -9 -6 -6 -10 -7 -11 -6 -3 -5 -11 -7 -6 -4 -3 -2 -0 -1 -0 2 2 -1 -2 -3 -4 -4 -5 -5

GFSWCAN_sfc_temp_120.txt.gz
Temp
47 47 48 48 48 48 47 48 48 48 47 49 48 48 48 48 48 49 49 49 45 38 43 42 43 40 41 40 34 41 38 39 38 31 31 32 30 33 28 29 27 27 27 28 30 26 23 46 46 35 42 47 42 39
47 47 48 48 47 47 48 48 48 47 47 48 48 48 48 48 48 48 46 50 49 38 42 45 46 48 47 47 41 43 38 37 39 33 35 33 31 32 28 25 35 27 29 28 31 33 42 44 41 47 48 43 41 40
47 47 47 48 47 48 47 48 47 47 47 48 48 48 48 48 48 48 46 45 39 35 38 41 43 49 51 49 51 38 45 43 42 45 34 35 29 37 26 30 30 34 36 31 31 33 34 35 37 39 43 39 40 41
46 47 47 47 47 47 47 47 47 47 48 48 47 47 48 48 48 47 45 46 40 38 32 41 50 45 52 51 49 48 47 47 45 45 36 34 31 41 33 33 32 33 36 32 32 33 35 37 35 34 36 36 36 42
46 46 46 47 47 46 46 46 47 47 47 48 47 48 48 48 47 48 47 43 43 40 32 37 47 50 51 50 47 47 45 43 42 35 33 33 39 38 39 38 33 37 31 29 29 31 32 33 33 36 35 35 37 40
46 45 46 46 46 46 46 46 46 47 47 47 47 48 48 48 47 42 34 43 45 44 36 32 48 45 47 48 46 44 44 43 41 36 36 40 44 37 31 32 37 38 35 33 32 38 36 37 42 39 39 38 39 40
45 45 46 46 46 46 46 46 46 46 46 47 47 47 47 47 47 41 40 41 45 45 33 31 37 46 45 45 45 44 44 40 40 37 36 38 40 37 34 31 35 37 36 37 39 39 37 37 33 39 39 40 40 39
45 45 45 46 46 46 46 46 46 46 46 46 47 47 47 46 46 42 48 45 45 38 36 28 32 39 46 42 40 46 39 37 38 39 41 37 38 37 31 35 37 36 37 35 38 38 36 38 38 38 40 41 40 38
44 45 45 45 45 46 46 46 46 46 46 46 47 46 46 43 36 42 46 46 45 38 32 30 29 31 46 43 42 38 38 31 42 33 36 37 38 31 31 34 33 33 33 33 38 37 38 35 34 35 35 36 35 35
44 44 45 45 44 45 45 46 46 46 46 46 44 35 32 36 46 46 40 35 33 35 35 31 41 33 43 40 37 34 35 33 30 36 40 32 34 33 34 33 34 35 35 35 32 31 32 32 32 32 32 33 33 32
44 44 45 45 45 44 45 45 45 46 45 39 33 33 44 45 41 37 30 29 32 29 35 37 40 35 45 34 35 41 33 35 30 34 32 33 30 29 33 33 35 35 35 34 33 33 33 32 30 30 31 32 32 31
45 45 45 45 44 44 45 45 45 41 40 41 41 42 40 36 34 30 29 32 30 31 38 32 35 38 40 43 37 35 32 32 28 38 31 31 27 31 32 32 32 33 32 32 31 30 31 30 29 29 30 29 28 28
45 44 45 45 44 45 45 45 43 44 44 42 36 33 32 33 27 26 22 26 29 35 38 35 32 37 39 38 34 32 29 29 40 30 31 28 29 31 33 33 33 33 29 30 30 30 29 28 27 24 23 24 24 25
44 44 45 45 45 45 45 43 43 44 39 33 31 27 28 26 31 32 33 34 38 38 38 38 35 35 36 31 34 28 33 34 28 26 26 29 29 31 32 32 32 30 26 21 24 25 23 21 21 20 18 19 21 21
44 44 45 45 45 45 45 44 44 44 37 30 32 28 28 36 34 35 36 37 37 41 39 35 35 36 33 31 32 31 27 26 30 28 28 29 30 30 30 29 28 26 23 22 21 19 17 17 17 18 17 19 20 19
44 44 44 44 44 44 44 43 41 37 34 31 29 29 32 32 31 32 33 31 37 39 40 40 32 30 30 32 28 28 27 27 26 28 30 32 28 27 26 26 25 24 23 22 21 20 20 16 16 18 17 17 17 18
43 42 44 44 44 44 43 37 36 32 31 27 28 29 28 31 31 29 32 31 35 35 32 35 28 30 33 30 28 30 28 26 28 28 31 28 27 26 25 25 23 23 24 22 21 20 20 19 18 19 18 19 19 19
42 44 44 44 45 40 35 35 33 29 24 28 26 25 26 25 28 27 29 30 31 33 36 32 36 29 29 28 28 25 26 27 29 29 29 27 26 25 26 26 24 23 24 21 20 20 20 19 21 22 20 20 20 20
42 43 44 44 41 37 32 32 34 25 26 26 26 26 26 24 25 26 28 29 28 29 31 30 27 28 24 25 24 24 25 27 27 27 27 24 24 23 24 24 24 24 22 22 23 24 23 19 20 22 22 22 21 21
43 43 44 43 45 36 30 29 37 28 24 26 27 24 25 24 25 25 25 26 27 26 21 21 21 21 22 22 25 25 26 27 27 26 26 26 26 25 24 25 26 24 25 23 24 20 23 23 22 22 21 20 20 19
40 41 42 40 35 34 32 29 28 30 27 25 25 26 23 26 24 22 22 24 22 20 20 21 21 21 22 23 26 27 25 27 25 26 25 25 25 26 25 25 25 25 24 23 22 22 20 20 20 21 19 19 19 19
37 40 38 40 33 33 31 34 30 31 28 26 25 26 23 22 21 20 23 19 18 18 21 22 22 22 21 20 21 23 22 23 23 24 22 23 24 24 23 23 24 22 22 21 21 20 20 21 20 20 19 19 19 19
40 40 36 34 29 29 25 33 27 28 23 22 25 20 20 20 21 25 16 18 18 21 22 22 21 22 21 20 21 21 21 23 24 23 23 23 23 23 23 22 22 20 20 20 22 21 19 16 18 19 19 20 19 18
37 29 26 26 29 24 30 27 31 27 26 23 21 16 17 20 23 19 13 17 19 22 22 20 23 21 21 20 21 20 21 24 22 22 22 24 22 21 23 22 22 22 21 22 21 20 20 19 17 19 18 18 18 17
28 19 24 20 25 23 21 21 22 23 18 19 17 16 17 22 15 13 10 15 18 19 20 21 22 23 21 19 20 19 20 23 22 20 20 22 23 23 23 23 22 22 23 22 20 19 18 19 19 18 18 18 17 16
16 16 19 18 20 22 21 17 18 18 19 16 16 19 21 17 11 9 14 16 17 19 18 18 18 17 17 19 19 19 19 22 22 19 19 20 20 20 20 19 19 20 22 22 21 20 19 18 18 15 17 15 14 16
14 14 19 23 23 22 19 20 22 20 16 14 16 15 15 10 8 12 17 19 19 19 20 21 21 20 18 17 18 19 21 21 20 19 20 20 20 20 19 17 15 18 21 21 21 21 20 18 18 17 17 18 17 17
17 17 13 13 13 16 12 13 12 11 14 16 16 9 9 10 9 15 17 18 18 18 17 17 17 19 19 17 18 19 19 19 19 19 20 20 19 18 17 18 18 18 20 20 20 21 21 20 19 18 17 17 16 17
13 15 15 6 9 9 8 9 10 12 13 15 10 8 7 10 11 15 16 18 19 18 16 15 13 15 14 13 12 13 13 15 16 10 9 14 15 15 15 15 17 18 19 21 20 19 19 19 18 18 16 17 17 17
11 15 8 5 4 4 7 9 10 10 12 13 13 11 11 11 11 14 16 17 17 15 13 13 12 15 13 14 11 10 10 10 10 14 14 12 12 12 12 13 14 15 17 18 19 19 17 18 17 16 16 15 16 15
14 12 8 8 6 8 9 8 9 10 10 10 12 11 8 10 12 11 11 11 10 10 11 11 9 10 11 10 13 11 9 8 5 6 7 10 10 11 10 10 12 13 16 17 17 17 17 16 16 14 13 11 10 12
11 8 6 4 5 10 10 11 12 11 11 13 9 9 7 10 8 10 9 11 11 11 3 9 9 7 6 6 5 6 -0 7 7 5 5 6 9 9 9 10 11 13 14 14 15 14 13 12 13 12 11 9 8 8
8 9 10 9 7 7 9 10 10 9 10 10 9 8 10 11 7 11 7 8 11 13 10 10 9 7 5 5 6 6 3 6 -1 -0 1 0 -2 0 7 10 11 11 11 11 12 12 10 8 9 7 6 5 5 4

GFSWCAN_sfc_temp_123.txt.gz
Temp
49 49 48 48 48 48 48 49 49 49 49 49 48 49 48 49 48 48 51 55 49 42 47 48 48 45 46 46 40 45 44 42 42 34 33 35 33 35 31 33 28 27 27 29 30 27 24 39 46 33 38 47 42 41
48 48 48 48 48 48 48 48 48 48 47 47 48 48 48 49 48 48 45 55 54 44 45 51 51 53 52 51 46 47 43 41 42 35 37 36 32 36 31 26 36 27 30 28 30 30 36 37 35 37 38 40 38 37
45 47 47 47 48 48 47 47 48 47 47 46 48 48 48 48 48 48 47 50 48 40 42 47 47 54 56 54 55 43 50 48 47 47 39 37 32 40 29 33 33 33 37 31 31 34 33 35 36 36 35 35 37 39
46 45 46 47 47 47 47 47 47 47 47 47 48 48 48 48 49 48 46 51 50 44 35 45 57 50 57 56 54 53 50 52 49 46 39 37 34 44 36 38 35 36 37 33 33 35 38 39 36 35 36 37 38 40
46 46 47 47 47 47 47 47 47 47 47 48 48 48 48 48 48 49 48 52 54 42 34 40 51 55 56 55 52 52 49 47 44 38 36 35 43 41 42 42 35 40 32 30 30 34 32 34 35 40 37 38 40 40
46 46 46 47 47 47 47 47 47 47 47 48 48 48 48 48 47 44 37 48 52 48 38 32 52 49 52 53 51 49 50 47 44 38 38 42 47 40 33 34 38 41 36 36 34 40 40 39 41 41 40 40 41 41
46 46 46 46 47 47 47 47 47 47 47 47 47 48 48 47 50 42 41 44 49 48 37 33 40 50 51 50 50 49 49 46 43 37 35 40 42 40 36 33 38 41 42 40 42 41 38 40 36 41 41 43 44 43
45 46 45 46 46 46 46 46 46 47 47 47 47 47 47 47 47 45 49 47 48 43 43 29 35 42 51 44 39 48 39 38 37 40 43 39 42 40 33 38 40 42 43 41 42 42 41 43 44 43 43 42 41 38
45 45 45 44 45 46 46 46 46 47 47 47 47 47 46 43 39 46 46 47 50 39 33 31 32 33 50 47 45 42 39 32 44 34 38 42 38 33 35 37 37 39 38 38 43 44 43 41 40 40 41 39 35 35
44 45 45 44 45 44 44 46 46 46 46 46 43 37 32 39 46 47 41 36 35 35 35 33 44 36 47 42 39 36 36 35 31 39 45 37 40 37 38 38 39 39 40 40 37 35 36 36 36 37 37 38 35 33
44 44 44 44 44 44 44 46 46 46 44 38 34 37 45 47 43 38 31 31 34 30 38 41 43 40 50 37 37 44 36 36 31 37 35 35 32 32 36 36 39 40 39 38 38 38 38 35 34 34 34 34 32 30
44 44 44 44 44 44 44 46 46 44 38 44 45 45 44 39 34 31 30 34 34 34 43 38 41 45 45 47 39 39 34 35 29 41 33 34 30 35 38 37 37 37 37 36 36 35 35 34 33 31 31 30 28 28
44 44 44 44 44 43 45 46 45 44 46 46 41 34 33 33 27 26 25 29 32 40 43 40 34 39 41 42 37 34 29 31 44 33 35 31 33 36 38 38 37 36 33 34 33 33 31 30 30 27 25 25 25 25
43 43 45 45 44 44 45 45 45 44 44 36 31 27 28 27 33 37 38 38 42 43 42 42 35 36 38 33 35 29 36 37 29 28 30 33 34 35 36 36 37 33 29 25 27 29 26 23 23 23 21 22 22 22
44 45 45 44 44 45 45 44 44 45 42 31 32 28 30 38 41 40 41 42 43 46 44 39 38 39 35 32 35 34 29 28 33 30 30 32 34 34 34 33 32 30 27 26 26 23 22 20 20 21 22 22 22 21
45 44 45 45 45 45 44 43 38 41 37 32 32 30 35 34 32 33 35 35 42 44 44 42 34 31 31 34 29 30 30 30 29 31 32 33 31 30 30 29 28 27 26 26 26 24 24 21 20 22 24 22 21 21
45 43 45 44 44 44 42 34 38 34 33 31 31 34 32 32 32 32 35 34 39 37 33 36 29 30 38 32 31 37 30 30 31 31 31 30 29 28 28 28 26 27 27 27 26 25 24 24 23 24 22 23 23 23
46 45 44 44 43 38 35 38 38 35 29 33 30 30 32 31 31 31 32 35 34 37 40 36 40 32 30 29 31 29 30 30 31 30 29 28 28 28 28 28 27 27 27 26 24 24 25 24 24 24 24 24 24 24
45 46 43 41 40 41 35 35 39 30 31 31 31 31 31 29 30 31 32 32 34 35 38 37 31 31 29 29 28 28 29 30 29 29 27 27 27 26 26 27 27 27 26 25 25 26 26 24 24 24 24 24 22 24
44 43 42 42 44 40 32 32 40 35 29 30 30 29 30 29 29 29 29 31 32 31 29 28 28 26 27 27 28 29 29 29 30 29 28 28 29 27 27 27 27 27 28 27 27 22 26 26 26 25 23 22 22 22
44 44 43 44 37 37 35 33 33 35 31 30 30 31 28 30 29 28 27 29 28 27 26 26 24 24 27 27 29 29 28 29 28 29 28 27 27 28 28 27 27 27 26 26 25 24 24 23 24 23 22 21 21 23
40 41 37 42 35 34 34 36 33 34 32 29 29 30 28 26 27 26 29 26 24 23 25 26 25 25 25 24 25 26 26 27 27 27 26 27 26 26 25 25 26 24 24 23 24 22 22 23 22 23 22 22 22 21
40 40 38 36 30 29 27 35 28 30 26 26 29 25 25 26 26 30 24 25 22 25 27 25 25 26 24 24 25 24 25 27 27 26 26 26 26 26 26 25 25 23 23 23 25 23 22 19 22 21 23 23 23 22
39 32 30 30 30 26 31 28 32 29 28 26 26 22 23 25 28 26 22 22 22 25 25 23 26 24 25 25 25 24 25 28 26 26 27 27 26 24 26 25 25 24 24 24 24 23 23 22 19 22 22 22 21 21
29 23 27 24 29 27 25 26 26 27 23 25 22 22 22 26 22 21 19 20 22 23 24 25 27 27 26 24 24 23 24 27 26 23 24 26 26 27 26 27 25 25 25 24 22 22 21 22 22 22 21 21 20 19
21 21 23 25 26 27 27 22 24 24 25 23 21 25 26 24 18 17 21 21 22 22 23 23 23 22 23 26 23 23 22 26 27 23 22 24 23 23 22 22 22 22 25 24 23 22 22 21 21 20 20 18 17 19
20 20 25 29 30 29 25 27 29 26 21 20 22 21 21 16 17 19 22 24 22 22 25 26 26 24 22 21 22 23 24 24 24 23 24 24 23 23 21 19 18 19 23 23 23 23 22 22 21 20 20 21 20 20
22 23 17 20 21 25 19 21 20 18 21 25 24 17 17 18 15 20 21 23 23 23 23 23 25 25 23 22 22 22 22 22 22 23 24 23 23 22 21 21 21 21 22 22 22 23 23 22 22 21 20 20 19 20
19 22 20 11 15 16 15 16 18 18 18 22 17 14 13 16 19 19 20 21 23 23 21 19 19 20 20 20 20 21 21 21 19 14 14 18 19 18 20 19 20 20 21 22 21 21 21 21 20 21 20 21 21 21
16 23 15 11 10 11 12 15 14 15 18 19 18 16 15 15 16 21 21 21 20 20 20 20 20 20 18 18 17 16 17 17 16 17 17 17 15 16 17 17 18 18 19 20 20 21 19 20 20 21 20 19 20 19
21 19 14 14 11 13 13 15 16 17 17 17 20 17 14 14 16 19 20 20 19 18 18 17 16 18 17 17 18 16 14 14 11 11 12 15 16 17 16 15 17 17 19 19 19 19 19 19 19 18 17 15 14 15
19 15 13 9 10 13 16 17 17 16 16 16 13 15 13 16 14 15 17 18 17 17 11 17 15 13 14 13 13 11 10 13 12 11 10 12 14 14 15 16 17 18 17 17 18 18 17 16 16 16 16 13 13 13
15 17 16 14 11 11 14 16 17 14 17 16 15 18 19 19 13 17 16 18 20 19 16 17 15 13 11 12 13 11 11 11 5 6 5 4 2 5 11 15 16 16 15 16 16 16 14 12 13 12 11 10 10 10